<?xml version="1.0" encoding="UTF-8" standalone="no" ?>
<gpx xmlns="http://www.topografix.com/GPX/1/1" xmlns:xsi="http://www.w3.org/2001/XMLSchema-instance" xsi:schemaLocation="http://www.topografix.com/GPX/1/1 http://www.topografix.com/GPX/1/1/gpx.xsd" version="1.1" creator="VisuGPX - https://www.visugpx.com">
  <metadata>
    <name>Tête de la Dame (Vercors)</name>
    <desc><![CDATA[Au départ de Rouisse montée par le Pas de Rouisse, descente par la crête et le col des Teulières.
]]></desc>
  </metadata>
  <trk>
    <name><![CDATA[2014-11-23 15:18:11]]></name>
    <trkseg>
      <trkpt lat="44.83094" lon="5.27924">
        <ele>530.79</ele>
        <time>2014-11-23T08:00:14Z</time>
      </trkpt>
      <trkpt lat="44.83094" lon="5.27924">
        <ele>530.79</ele>
        <time>2014-11-23T08:00:15Z</time>
      </trkpt>
      <trkpt lat="44.83093" lon="5.27926">
        <ele>530.3</ele>
        <time>2014-11-23T08:00:38Z</time>
      </trkpt>
      <trkpt lat="44.83093" lon="5.27926">
        <ele>529.82</ele>
        <time>2014-11-23T08:01:04Z</time>
      </trkpt>
      <trkpt lat="44.83092" lon="5.27925">
        <ele>529.34</ele>
        <time>2014-11-23T08:01:32Z</time>
      </trkpt>
      <trkpt lat="44.83092" lon="5.27923">
        <ele>529.34</ele>
        <time>2014-11-23T08:01:48Z</time>
      </trkpt>
      <trkpt lat="44.83092" lon="5.27924">
        <ele>529.34</ele>
        <time>2014-11-23T08:02:09Z</time>
      </trkpt>
      <trkpt lat="44.83091" lon="5.27922">
        <ele>529.34</ele>
        <time>2014-11-23T08:02:27Z</time>
      </trkpt>
      <trkpt lat="44.83089" lon="5.27918">
        <ele>529.34</ele>
        <time>2014-11-23T08:02:50Z</time>
      </trkpt>
      <trkpt lat="44.83082" lon="5.279">
        <ele>529.34</ele>
        <time>2014-11-23T08:03:04Z</time>
      </trkpt>
      <trkpt lat="44.83077" lon="5.27883">
        <ele>528.86</ele>
        <time>2014-11-23T08:03:18Z</time>
      </trkpt>
      <trkpt lat="44.83071" lon="5.27863">
        <ele>528.38</ele>
        <time>2014-11-23T08:03:32Z</time>
      </trkpt>
      <trkpt lat="44.83065" lon="5.27842">
        <ele>527.9</ele>
        <time>2014-11-23T08:03:46Z</time>
      </trkpt>
      <trkpt lat="44.8306" lon="5.27823">
        <ele>527.9</ele>
        <time>2014-11-23T08:03:59Z</time>
      </trkpt>
      <trkpt lat="44.83058" lon="5.27817">
        <ele>527.42</ele>
        <time>2014-11-23T08:04:03Z</time>
      </trkpt>
      <trkpt lat="44.8305" lon="5.2779">
        <ele>527.42</ele>
        <time>2014-11-23T08:04:19Z</time>
      </trkpt>
      <trkpt lat="44.83045" lon="5.27771">
        <ele>527.42</ele>
        <time>2014-11-23T08:04:32Z</time>
      </trkpt>
      <trkpt lat="44.83045" lon="5.27761">
        <ele>527.42</ele>
        <time>2014-11-23T08:04:38Z</time>
      </trkpt>
      <trkpt lat="44.83047" lon="5.2775">
        <ele>527.42</ele>
        <time>2014-11-23T08:04:44Z</time>
      </trkpt>
      <trkpt lat="44.83054" lon="5.27741">
        <ele>528.86</ele>
        <time>2014-11-23T08:04:53Z</time>
      </trkpt>
      <trkpt lat="44.83056" lon="5.27738">
        <ele>528.38</ele>
        <time>2014-11-23T08:04:55Z</time>
      </trkpt>
      <trkpt lat="44.83064" lon="5.27727">
        <ele>529.34</ele>
        <time>2014-11-23T08:05:06Z</time>
      </trkpt>
      <trkpt lat="44.83068" lon="5.2772">
        <ele>529.82</ele>
        <time>2014-11-23T08:05:11Z</time>
      </trkpt>
      <trkpt lat="44.8307" lon="5.27718">
        <ele>529.82</ele>
        <time>2014-11-23T08:05:14Z</time>
      </trkpt>
      <trkpt lat="44.83074" lon="5.27711">
        <ele>530.79</ele>
        <time>2014-11-23T08:05:21Z</time>
      </trkpt>
      <trkpt lat="44.83087" lon="5.27699">
        <ele>531.27</ele>
        <time>2014-11-23T08:05:35Z</time>
      </trkpt>
      <trkpt lat="44.83097" lon="5.27678">
        <ele>532.23</ele>
        <time>2014-11-23T08:05:52Z</time>
      </trkpt>
      <trkpt lat="44.83106" lon="5.2766">
        <ele>533.19</ele>
        <time>2014-11-23T08:06:03Z</time>
      </trkpt>
      <trkpt lat="44.83113" lon="5.27647">
        <ele>533.67</ele>
        <time>2014-11-23T08:06:15Z</time>
      </trkpt>
      <trkpt lat="44.8313" lon="5.27627">
        <ele>535.11</ele>
        <time>2014-11-23T08:06:29Z</time>
      </trkpt>
      <trkpt lat="44.8315" lon="5.27625">
        <ele>535.59</ele>
        <time>2014-11-23T08:06:46Z</time>
      </trkpt>
      <trkpt lat="44.83161" lon="5.27625">
        <ele>536.55</ele>
        <time>2014-11-23T08:06:59Z</time>
      </trkpt>
      <trkpt lat="44.8317" lon="5.27614">
        <ele>537.03</ele>
        <time>2014-11-23T08:07:11Z</time>
      </trkpt>
      <trkpt lat="44.83172" lon="5.27602">
        <ele>537.51</ele>
        <time>2014-11-23T08:07:20Z</time>
      </trkpt>
      <trkpt lat="44.83174" lon="5.27584">
        <ele>538.96</ele>
        <time>2014-11-23T08:07:34Z</time>
      </trkpt>
      <trkpt lat="44.83176" lon="5.27579">
        <ele>539.44</ele>
        <time>2014-11-23T08:07:52Z</time>
      </trkpt>
      <trkpt lat="44.83183" lon="5.27564">
        <ele>540.4</ele>
        <time>2014-11-23T08:08:06Z</time>
      </trkpt>
      <trkpt lat="44.83186" lon="5.27553">
        <ele>540.88</ele>
        <time>2014-11-23T08:08:17Z</time>
      </trkpt>
      <trkpt lat="44.83195" lon="5.27538">
        <ele>541.84</ele>
        <time>2014-11-23T08:08:30Z</time>
      </trkpt>
      <trkpt lat="44.83195" lon="5.27534">
        <ele>542.32</ele>
        <time>2014-11-23T08:08:33Z</time>
      </trkpt>
      <trkpt lat="44.83203" lon="5.27524">
        <ele>543.28</ele>
        <time>2014-11-23T08:08:39Z</time>
      </trkpt>
      <trkpt lat="44.8321" lon="5.27513">
        <ele>544.24</ele>
        <time>2014-11-23T08:08:49Z</time>
      </trkpt>
      <trkpt lat="44.83219" lon="5.27497">
        <ele>546.17</ele>
        <time>2014-11-23T08:09:04Z</time>
      </trkpt>
      <trkpt lat="44.83225" lon="5.27487">
        <ele>546.65</ele>
        <time>2014-11-23T08:09:12Z</time>
      </trkpt>
      <trkpt lat="44.8323" lon="5.27471">
        <ele>548.09</ele>
        <time>2014-11-23T08:09:24Z</time>
      </trkpt>
      <trkpt lat="44.83235" lon="5.27459">
        <ele>550.01</ele>
        <time>2014-11-23T08:09:33Z</time>
      </trkpt>
      <trkpt lat="44.83239" lon="5.27449">
        <ele>550.97</ele>
        <time>2014-11-23T08:09:42Z</time>
      </trkpt>
      <trkpt lat="44.83244" lon="5.27436">
        <ele>552.41</ele>
        <time>2014-11-23T08:09:54Z</time>
      </trkpt>
      <trkpt lat="44.83251" lon="5.27424">
        <ele>555.3</ele>
        <time>2014-11-23T08:10:08Z</time>
      </trkpt>
      <trkpt lat="44.83255" lon="5.27409">
        <ele>557.22</ele>
        <time>2014-11-23T08:10:21Z</time>
      </trkpt>
      <trkpt lat="44.8326" lon="5.27394">
        <ele>559.62</ele>
        <time>2014-11-23T08:10:34Z</time>
      </trkpt>
      <trkpt lat="44.83265" lon="5.27385">
        <ele>561.55</ele>
        <time>2014-11-23T08:10:47Z</time>
      </trkpt>
      <trkpt lat="44.83269" lon="5.27373">
        <ele>563.47</ele>
        <time>2014-11-23T08:11:00Z</time>
      </trkpt>
      <trkpt lat="44.83272" lon="5.27359">
        <ele>565.87</ele>
        <time>2014-11-23T08:11:12Z</time>
      </trkpt>
      <trkpt lat="44.83278" lon="5.27347">
        <ele>568.28</ele>
        <time>2014-11-23T08:11:24Z</time>
      </trkpt>
      <trkpt lat="44.8328" lon="5.27347">
        <ele>568.76</ele>
        <time>2014-11-23T08:11:26Z</time>
      </trkpt>
      <trkpt lat="44.83289" lon="5.27346">
        <ele>570.68</ele>
        <time>2014-11-23T08:11:39Z</time>
      </trkpt>
      <trkpt lat="44.83298" lon="5.27339">
        <ele>573.56</ele>
        <time>2014-11-23T08:11:54Z</time>
      </trkpt>
      <trkpt lat="44.83303" lon="5.27327">
        <ele>575.97</ele>
        <time>2014-11-23T08:12:07Z</time>
      </trkpt>
      <trkpt lat="44.83305" lon="5.27321">
        <ele>576.93</ele>
        <time>2014-11-23T08:12:14Z</time>
      </trkpt>
      <trkpt lat="44.83305" lon="5.27313">
        <ele>578.85</ele>
        <time>2014-11-23T08:12:21Z</time>
      </trkpt>
      <trkpt lat="44.83306" lon="5.27303">
        <ele>580.29</ele>
        <time>2014-11-23T08:12:32Z</time>
      </trkpt>
      <trkpt lat="44.83312" lon="5.27292">
        <ele>581.73</ele>
        <time>2014-11-23T08:12:45Z</time>
      </trkpt>
      <trkpt lat="44.83321" lon="5.27288">
        <ele>583.66</ele>
        <time>2014-11-23T08:12:57Z</time>
      </trkpt>
      <trkpt lat="44.8333" lon="5.27292">
        <ele>585.1</ele>
        <time>2014-11-23T08:13:09Z</time>
      </trkpt>
      <trkpt lat="44.8334" lon="5.27293">
        <ele>587.98</ele>
        <time>2014-11-23T08:13:21Z</time>
      </trkpt>
      <trkpt lat="44.83347" lon="5.2729">
        <ele>588.95</ele>
        <time>2014-11-23T08:13:30Z</time>
      </trkpt>
      <trkpt lat="44.83354" lon="5.27287">
        <ele>590.39</ele>
        <time>2014-11-23T08:13:39Z</time>
      </trkpt>
      <trkpt lat="44.83362" lon="5.27283">
        <ele>591.35</ele>
        <time>2014-11-23T08:13:50Z</time>
      </trkpt>
      <trkpt lat="44.83371" lon="5.27275">
        <ele>593.75</ele>
        <time>2014-11-23T08:14:03Z</time>
      </trkpt>
      <trkpt lat="44.83374" lon="5.27272">
        <ele>594.23</ele>
        <time>2014-11-23T08:14:08Z</time>
      </trkpt>
      <trkpt lat="44.83383" lon="5.27265">
        <ele>596.15</ele>
        <time>2014-11-23T08:14:22Z</time>
      </trkpt>
      <trkpt lat="44.83394" lon="5.27263">
        <ele>598.56</ele>
        <time>2014-11-23T08:14:35Z</time>
      </trkpt>
      <trkpt lat="44.83405" lon="5.27258">
        <ele>600.96</ele>
        <time>2014-11-23T08:14:49Z</time>
      </trkpt>
      <trkpt lat="44.83418" lon="5.27255">
        <ele>603.36</ele>
        <time>2014-11-23T08:15:03Z</time>
      </trkpt>
      <trkpt lat="44.83424" lon="5.27244">
        <ele>605.29</ele>
        <time>2014-11-23T08:15:17Z</time>
      </trkpt>
      <trkpt lat="44.83425" lon="5.27237">
        <ele>606.73</ele>
        <time>2014-11-23T08:15:25Z</time>
      </trkpt>
      <trkpt lat="44.83417" lon="5.27233">
        <ele>608.17</ele>
        <time>2014-11-23T08:15:38Z</time>
      </trkpt>
      <trkpt lat="44.83406" lon="5.27226">
        <ele>610.09</ele>
        <time>2014-11-23T08:15:53Z</time>
      </trkpt>
      <trkpt lat="44.83396" lon="5.27218">
        <ele>612.02</ele>
        <time>2014-11-23T08:16:06Z</time>
      </trkpt>
      <trkpt lat="44.83385" lon="5.27207">
        <ele>613.46</ele>
        <time>2014-11-23T08:16:19Z</time>
      </trkpt>
      <trkpt lat="44.83384" lon="5.27206">
        <ele>613.46</ele>
        <time>2014-11-23T08:16:20Z</time>
      </trkpt>
      <trkpt lat="44.83373" lon="5.272">
        <ele>614.42</ele>
        <time>2014-11-23T08:16:32Z</time>
      </trkpt>
      <trkpt lat="44.83363" lon="5.27196">
        <ele>616.34</ele>
        <time>2014-11-23T08:16:44Z</time>
      </trkpt>
      <trkpt lat="44.83353" lon="5.27189">
        <ele>617.3</ele>
        <time>2014-11-23T08:16:56Z</time>
      </trkpt>
      <trkpt lat="44.83351" lon="5.2718">
        <ele>617.78</ele>
        <time>2014-11-23T08:17:10Z</time>
      </trkpt>
      <trkpt lat="44.8335" lon="5.27187">
        <ele>617.78</ele>
        <time>2014-11-23T08:17:23Z</time>
      </trkpt>
      <trkpt lat="44.83352" lon="5.27183">
        <ele>617.78</ele>
        <time>2014-11-23T08:17:39Z</time>
      </trkpt>
      <trkpt lat="44.83355" lon="5.27173">
        <ele>619.23</ele>
        <time>2014-11-23T08:17:59Z</time>
      </trkpt>
      <trkpt lat="44.83356" lon="5.27166">
        <ele>619.71</ele>
        <time>2014-11-23T08:18:05Z</time>
      </trkpt>
      <trkpt lat="44.83357" lon="5.27158">
        <ele>620.67</ele>
        <time>2014-11-23T08:18:10Z</time>
      </trkpt>
      <trkpt lat="44.83362" lon="5.27145">
        <ele>623.07</ele>
        <time>2014-11-23T08:18:23Z</time>
      </trkpt>
      <trkpt lat="44.83369" lon="5.27132">
        <ele>625.96</ele>
        <time>2014-11-23T08:18:37Z</time>
      </trkpt>
      <trkpt lat="44.83376" lon="5.27125">
        <ele>628.36</ele>
        <time>2014-11-23T08:18:50Z</time>
      </trkpt>
      <trkpt lat="44.83377" lon="5.27125">
        <ele>628.36</ele>
        <time>2014-11-23T08:18:51Z</time>
      </trkpt>
      <trkpt lat="44.83386" lon="5.27118">
        <ele>631.24</ele>
        <time>2014-11-23T08:19:03Z</time>
      </trkpt>
      <trkpt lat="44.83395" lon="5.27111">
        <ele>633.17</ele>
        <time>2014-11-23T08:19:16Z</time>
      </trkpt>
      <trkpt lat="44.83399" lon="5.2711">
        <ele>633.65</ele>
        <time>2014-11-23T08:19:19Z</time>
      </trkpt>
      <trkpt lat="44.8341" lon="5.27113">
        <ele>635.57</ele>
        <time>2014-11-23T08:19:30Z</time>
      </trkpt>
      <trkpt lat="44.83423" lon="5.27116">
        <ele>637.97</ele>
        <time>2014-11-23T08:19:45Z</time>
      </trkpt>
      <trkpt lat="44.83433" lon="5.27118">
        <ele>639.89</ele>
        <time>2014-11-23T08:19:58Z</time>
      </trkpt>
      <trkpt lat="44.83444" lon="5.27117">
        <ele>642.3</ele>
        <time>2014-11-23T08:20:11Z</time>
      </trkpt>
      <trkpt lat="44.83454" lon="5.27116">
        <ele>643.74</ele>
        <time>2014-11-23T08:20:25Z</time>
      </trkpt>
      <trkpt lat="44.83463" lon="5.27115">
        <ele>646.14</ele>
        <time>2014-11-23T08:20:36Z</time>
      </trkpt>
      <trkpt lat="44.83474" lon="5.27106">
        <ele>648.55</ele>
        <time>2014-11-23T08:20:50Z</time>
      </trkpt>
      <trkpt lat="44.83476" lon="5.27101">
        <ele>649.03</ele>
        <time>2014-11-23T08:20:55Z</time>
      </trkpt>
      <trkpt lat="44.83483" lon="5.27087">
        <ele>650.47</ele>
        <time>2014-11-23T08:21:09Z</time>
      </trkpt>
      <trkpt lat="44.83489" lon="5.27075">
        <ele>651.91</ele>
        <time>2014-11-23T08:21:22Z</time>
      </trkpt>
      <trkpt lat="44.83495" lon="5.27064">
        <ele>652.87</ele>
        <time>2014-11-23T08:21:33Z</time>
      </trkpt>
      <trkpt lat="44.83503" lon="5.27053">
        <ele>654.31</ele>
        <time>2014-11-23T08:21:45Z</time>
      </trkpt>
      <trkpt lat="44.83511" lon="5.2705">
        <ele>655.76</ele>
        <time>2014-11-23T08:21:54Z</time>
      </trkpt>
      <trkpt lat="44.8352" lon="5.27045">
        <ele>657.2</ele>
        <time>2014-11-23T08:22:06Z</time>
      </trkpt>
      <trkpt lat="44.83532" lon="5.2704">
        <ele>659.6</ele>
        <time>2014-11-23T08:22:21Z</time>
      </trkpt>
      <trkpt lat="44.83541" lon="5.27035">
        <ele>661.04</ele>
        <time>2014-11-23T08:22:35Z</time>
      </trkpt>
      <trkpt lat="44.83552" lon="5.27026">
        <ele>663.45</ele>
        <time>2014-11-23T08:22:51Z</time>
      </trkpt>
      <trkpt lat="44.83564" lon="5.27018">
        <ele>665.37</ele>
        <time>2014-11-23T08:23:07Z</time>
      </trkpt>
      <trkpt lat="44.83571" lon="5.27009">
        <ele>666.81</ele>
        <time>2014-11-23T08:23:19Z</time>
      </trkpt>
      <trkpt lat="44.8358" lon="5.27001">
        <ele>668.73</ele>
        <time>2014-11-23T08:23:32Z</time>
      </trkpt>
      <trkpt lat="44.8359" lon="5.26994">
        <ele>670.18</ele>
        <time>2014-11-23T08:23:45Z</time>
      </trkpt>
      <trkpt lat="44.83594" lon="5.26991">
        <ele>671.14</ele>
        <time>2014-11-23T08:24:00Z</time>
      </trkpt>
      <trkpt lat="44.83593" lon="5.26995">
        <ele>671.14</ele>
        <time>2014-11-23T08:24:22Z</time>
      </trkpt>
      <trkpt lat="44.83599" lon="5.26993">
        <ele>671.62</ele>
        <time>2014-11-23T08:24:35Z</time>
      </trkpt>
      <trkpt lat="44.83606" lon="5.26987">
        <ele>673.06</ele>
        <time>2014-11-23T08:24:45Z</time>
      </trkpt>
      <trkpt lat="44.83615" lon="5.26981">
        <ele>674.5</ele>
        <time>2014-11-23T08:24:58Z</time>
      </trkpt>
      <trkpt lat="44.83626" lon="5.26977">
        <ele>676.91</ele>
        <time>2014-11-23T08:25:10Z</time>
      </trkpt>
      <trkpt lat="44.83632" lon="5.26975">
        <ele>678.35</ele>
        <time>2014-11-23T08:25:18Z</time>
      </trkpt>
      <trkpt lat="44.83645" lon="5.26971">
        <ele>680.75</ele>
        <time>2014-11-23T08:25:32Z</time>
      </trkpt>
      <trkpt lat="44.83655" lon="5.26965">
        <ele>683.15</ele>
        <time>2014-11-23T08:25:45Z</time>
      </trkpt>
      <trkpt lat="44.83664" lon="5.26962">
        <ele>685.56</ele>
        <time>2014-11-23T08:25:58Z</time>
      </trkpt>
      <trkpt lat="44.83678" lon="5.26959">
        <ele>687.96</ele>
        <time>2014-11-23T08:26:13Z</time>
      </trkpt>
      <trkpt lat="44.83688" lon="5.26957">
        <ele>689.88</ele>
        <time>2014-11-23T08:26:27Z</time>
      </trkpt>
      <trkpt lat="44.837" lon="5.26954">
        <ele>692.29</ele>
        <time>2014-11-23T08:26:40Z</time>
      </trkpt>
      <trkpt lat="44.8371" lon="5.2695">
        <ele>695.17</ele>
        <time>2014-11-23T08:26:54Z</time>
      </trkpt>
      <trkpt lat="44.83722" lon="5.26944">
        <ele>696.61</ele>
        <time>2014-11-23T08:27:08Z</time>
      </trkpt>
      <trkpt lat="44.83734" lon="5.26938">
        <ele>699.02</ele>
        <time>2014-11-23T08:27:22Z</time>
      </trkpt>
      <trkpt lat="44.83749" lon="5.26933">
        <ele>699.98</ele>
        <time>2014-11-23T08:27:36Z</time>
      </trkpt>
      <trkpt lat="44.83753" lon="5.26932">
        <ele>700.94</ele>
        <time>2014-11-23T08:27:40Z</time>
      </trkpt>
      <trkpt lat="44.83764" lon="5.2693">
        <ele>702.86</ele>
        <time>2014-11-23T08:27:52Z</time>
      </trkpt>
      <trkpt lat="44.83775" lon="5.26927">
        <ele>705.26</ele>
        <time>2014-11-23T08:28:05Z</time>
      </trkpt>
      <trkpt lat="44.83785" lon="5.26924">
        <ele>707.67</ele>
        <time>2014-11-23T08:28:18Z</time>
      </trkpt>
      <trkpt lat="44.8379" lon="5.26913">
        <ele>709.59</ele>
        <time>2014-11-23T08:28:32Z</time>
      </trkpt>
      <trkpt lat="44.83793" lon="5.269">
        <ele>710.55</ele>
        <time>2014-11-23T08:28:42Z</time>
      </trkpt>
      <trkpt lat="44.83794" lon="5.26891">
        <ele>711.51</ele>
        <time>2014-11-23T08:28:48Z</time>
      </trkpt>
      <trkpt lat="44.83793" lon="5.26876">
        <ele>712.95</ele>
        <time>2014-11-23T08:29:00Z</time>
      </trkpt>
      <trkpt lat="44.83792" lon="5.26858">
        <ele>714.4</ele>
        <time>2014-11-23T08:29:12Z</time>
      </trkpt>
      <trkpt lat="44.83787" lon="5.26843">
        <ele>715.84</ele>
        <time>2014-11-23T08:29:24Z</time>
      </trkpt>
      <trkpt lat="44.83784" lon="5.26827">
        <ele>717.28</ele>
        <time>2014-11-23T08:29:37Z</time>
      </trkpt>
      <trkpt lat="44.83787" lon="5.26811">
        <ele>718.72</ele>
        <time>2014-11-23T08:29:48Z</time>
      </trkpt>
      <trkpt lat="44.83798" lon="5.26793">
        <ele>719.68</ele>
        <time>2014-11-23T08:30:03Z</time>
      </trkpt>
      <trkpt lat="44.83801" lon="5.26791">
        <ele>720.65</ele>
        <time>2014-11-23T08:30:06Z</time>
      </trkpt>
      <trkpt lat="44.83812" lon="5.26782">
        <ele>721.61</ele>
        <time>2014-11-23T08:30:19Z</time>
      </trkpt>
      <trkpt lat="44.83815" lon="5.26779">
        <ele>722.09</ele>
        <time>2014-11-23T08:30:24Z</time>
      </trkpt>
      <trkpt lat="44.83827" lon="5.26771">
        <ele>723.53</ele>
        <time>2014-11-23T08:30:36Z</time>
      </trkpt>
      <trkpt lat="44.8384" lon="5.26761">
        <ele>724.49</ele>
        <time>2014-11-23T08:30:48Z</time>
      </trkpt>
      <trkpt lat="44.8385" lon="5.26751">
        <ele>725.93</ele>
        <time>2014-11-23T08:31:00Z</time>
      </trkpt>
      <trkpt lat="44.83858" lon="5.26747">
        <ele>726.89</ele>
        <time>2014-11-23T08:31:08Z</time>
      </trkpt>
      <trkpt lat="44.83868" lon="5.2674">
        <ele>728.34</ele>
        <time>2014-11-23T08:31:20Z</time>
      </trkpt>
      <trkpt lat="44.83876" lon="5.26733">
        <ele>729.3</ele>
        <time>2014-11-23T08:31:31Z</time>
      </trkpt>
      <trkpt lat="44.83889" lon="5.26726">
        <ele>729.78</ele>
        <time>2014-11-23T08:31:42Z</time>
      </trkpt>
      <trkpt lat="44.83893" lon="5.26725">
        <ele>730.26</ele>
        <time>2014-11-23T08:31:45Z</time>
      </trkpt>
      <trkpt lat="44.83896" lon="5.26721">
        <ele>730.26</ele>
        <time>2014-11-23T08:31:48Z</time>
      </trkpt>
      <trkpt lat="44.83907" lon="5.26714">
        <ele>730.74</ele>
        <time>2014-11-23T08:32:01Z</time>
      </trkpt>
      <trkpt lat="44.8392" lon="5.26706">
        <ele>730.74</ele>
        <time>2014-11-23T08:32:14Z</time>
      </trkpt>
      <trkpt lat="44.83931" lon="5.26695">
        <ele>731.22</ele>
        <time>2014-11-23T08:32:27Z</time>
      </trkpt>
      <trkpt lat="44.83941" lon="5.26683">
        <ele>731.7</ele>
        <time>2014-11-23T08:32:40Z</time>
      </trkpt>
      <trkpt lat="44.83952" lon="5.26669">
        <ele>732.18</ele>
        <time>2014-11-23T08:32:53Z</time>
      </trkpt>
      <trkpt lat="44.83963" lon="5.26658">
        <ele>732.66</ele>
        <time>2014-11-23T08:33:06Z</time>
      </trkpt>
      <trkpt lat="44.83977" lon="5.26647">
        <ele>733.62</ele>
        <time>2014-11-23T08:33:19Z</time>
      </trkpt>
      <trkpt lat="44.83994" lon="5.26635">
        <ele>736.03</ele>
        <time>2014-11-23T08:33:37Z</time>
      </trkpt>
      <trkpt lat="44.84008" lon="5.26631">
        <ele>736.99</ele>
        <time>2014-11-23T08:33:49Z</time>
      </trkpt>
      <trkpt lat="44.84011" lon="5.26629">
        <ele>736.99</ele>
        <time>2014-11-23T08:33:52Z</time>
      </trkpt>
      <trkpt lat="44.84021" lon="5.26629">
        <ele>738.43</ele>
        <time>2014-11-23T08:34:00Z</time>
      </trkpt>
      <trkpt lat="44.84041" lon="5.26623">
        <ele>739.87</ele>
        <time>2014-11-23T08:34:15Z</time>
      </trkpt>
      <trkpt lat="44.84063" lon="5.26614">
        <ele>741.79</ele>
        <time>2014-11-23T08:34:29Z</time>
      </trkpt>
      <trkpt lat="44.84081" lon="5.26606">
        <ele>744.2</ele>
        <time>2014-11-23T08:34:43Z</time>
      </trkpt>
      <trkpt lat="44.84104" lon="5.2659">
        <ele>746.6</ele>
        <time>2014-11-23T08:34:58Z</time>
      </trkpt>
      <trkpt lat="44.84118" lon="5.26579">
        <ele>749.97</ele>
        <time>2014-11-23T08:35:09Z</time>
      </trkpt>
      <trkpt lat="44.84129" lon="5.26577">
        <ele>752.85</ele>
        <time>2014-11-23T08:35:17Z</time>
      </trkpt>
      <trkpt lat="44.84136" lon="5.26581">
        <ele>753.33</ele>
        <time>2014-11-23T08:35:22Z</time>
      </trkpt>
      <trkpt lat="44.84153" lon="5.26589">
        <ele>756.69</ele>
        <time>2014-11-23T08:35:35Z</time>
      </trkpt>
      <trkpt lat="44.84158" lon="5.26593">
        <ele>757.18</ele>
        <time>2014-11-23T08:35:38Z</time>
      </trkpt>
      <trkpt lat="44.84177" lon="5.26602">
        <ele>759.58</ele>
        <time>2014-11-23T08:35:52Z</time>
      </trkpt>
      <trkpt lat="44.84189" lon="5.26607">
        <ele>762.94</ele>
        <time>2014-11-23T08:36:03Z</time>
      </trkpt>
      <trkpt lat="44.84206" lon="5.26617">
        <ele>765.83</ele>
        <time>2014-11-23T08:36:16Z</time>
      </trkpt>
      <trkpt lat="44.8421" lon="5.26609">
        <ele>766.31</ele>
        <time>2014-11-23T08:36:32Z</time>
      </trkpt>
      <trkpt lat="44.84211" lon="5.26611">
        <ele>766.79</ele>
        <time>2014-11-23T08:36:38Z</time>
      </trkpt>
      <trkpt lat="44.84213" lon="5.26619">
        <ele>766.79</ele>
        <time>2014-11-23T08:36:46Z</time>
      </trkpt>
      <trkpt lat="44.84222" lon="5.26624">
        <ele>768.23</ele>
        <time>2014-11-23T08:36:58Z</time>
      </trkpt>
      <trkpt lat="44.84225" lon="5.26623">
        <ele>769.67</ele>
        <time>2014-11-23T08:37:13Z</time>
      </trkpt>
      <trkpt lat="44.84225" lon="5.26623">
        <ele>769.67</ele>
        <time>2014-11-23T08:37:26Z</time>
      </trkpt>
      <trkpt lat="44.84225" lon="5.26624">
        <ele>769.67</ele>
        <time>2014-11-23T08:37:34Z</time>
      </trkpt>
      <trkpt lat="44.84222" lon="5.26622">
        <ele>768.23</ele>
        <time>2014-11-23T08:37:37Z</time>
      </trkpt>
      <trkpt lat="44.84217" lon="5.26621">
        <ele>767.27</ele>
        <time>2014-11-23T08:37:49Z</time>
      </trkpt>
      <trkpt lat="44.84212" lon="5.26616">
        <ele>766.79</ele>
        <time>2014-11-23T08:38:04Z</time>
      </trkpt>
      <trkpt lat="44.84211" lon="5.26614">
        <ele>766.31</ele>
        <time>2014-11-23T08:38:23Z</time>
      </trkpt>
      <trkpt lat="44.8421" lon="5.26608">
        <ele>766.31</ele>
        <time>2014-11-23T08:38:31Z</time>
      </trkpt>
      <trkpt lat="44.84202" lon="5.266">
        <ele>768.23</ele>
        <time>2014-11-23T08:38:44Z</time>
      </trkpt>
      <trkpt lat="44.84192" lon="5.26588">
        <ele>770.15</ele>
        <time>2014-11-23T08:38:59Z</time>
      </trkpt>
      <trkpt lat="44.84187" lon="5.26573">
        <ele>771.6</ele>
        <time>2014-11-23T08:39:13Z</time>
      </trkpt>
      <trkpt lat="44.8419" lon="5.26561">
        <ele>773.52</ele>
        <time>2014-11-23T08:39:22Z</time>
      </trkpt>
      <trkpt lat="44.84197" lon="5.2655">
        <ele>774.96</ele>
        <time>2014-11-23T08:39:35Z</time>
      </trkpt>
      <trkpt lat="44.84206" lon="5.26541">
        <ele>777.84</ele>
        <time>2014-11-23T08:39:50Z</time>
      </trkpt>
      <trkpt lat="44.84216" lon="5.26532">
        <ele>780.25</ele>
        <time>2014-11-23T08:40:05Z</time>
      </trkpt>
      <trkpt lat="44.84226" lon="5.26527">
        <ele>782.65</ele>
        <time>2014-11-23T08:40:20Z</time>
      </trkpt>
      <trkpt lat="44.84235" lon="5.26523">
        <ele>785.05</ele>
        <time>2014-11-23T08:40:34Z</time>
      </trkpt>
      <trkpt lat="44.84244" lon="5.2652">
        <ele>787.46</ele>
        <time>2014-11-23T08:40:49Z</time>
      </trkpt>
      <trkpt lat="44.84254" lon="5.26515">
        <ele>790.34</ele>
        <time>2014-11-23T08:41:05Z</time>
      </trkpt>
      <trkpt lat="44.84262" lon="5.2651">
        <ele>792.26</ele>
        <time>2014-11-23T08:41:19Z</time>
      </trkpt>
      <trkpt lat="44.84271" lon="5.26505">
        <ele>794.19</ele>
        <time>2014-11-23T08:41:33Z</time>
      </trkpt>
      <trkpt lat="44.84278" lon="5.26504">
        <ele>796.59</ele>
        <time>2014-11-23T08:41:46Z</time>
      </trkpt>
      <trkpt lat="44.84288" lon="5.26499">
        <ele>798.99</ele>
        <time>2014-11-23T08:42:00Z</time>
      </trkpt>
      <trkpt lat="44.84297" lon="5.26495">
        <ele>800.92</ele>
        <time>2014-11-23T08:42:14Z</time>
      </trkpt>
      <trkpt lat="44.84308" lon="5.2649">
        <ele>803.32</ele>
        <time>2014-11-23T08:42:31Z</time>
      </trkpt>
      <trkpt lat="44.84318" lon="5.26487">
        <ele>806.2</ele>
        <time>2014-11-23T08:42:45Z</time>
      </trkpt>
      <trkpt lat="44.84326" lon="5.26483">
        <ele>808.13</ele>
        <time>2014-11-23T08:42:59Z</time>
      </trkpt>
      <trkpt lat="44.84337" lon="5.2648">
        <ele>810.53</ele>
        <time>2014-11-23T08:43:14Z</time>
      </trkpt>
      <trkpt lat="44.84347" lon="5.26475">
        <ele>812.93</ele>
        <time>2014-11-23T08:43:29Z</time>
      </trkpt>
      <trkpt lat="44.84356" lon="5.26469">
        <ele>814.85</ele>
        <time>2014-11-23T08:43:43Z</time>
      </trkpt>
      <trkpt lat="44.84367" lon="5.26464">
        <ele>816.78</ele>
        <time>2014-11-23T08:43:57Z</time>
      </trkpt>
      <trkpt lat="44.84376" lon="5.26459">
        <ele>819.18</ele>
        <time>2014-11-23T08:44:10Z</time>
      </trkpt>
      <trkpt lat="44.84388" lon="5.26456">
        <ele>821.1</ele>
        <time>2014-11-23T08:44:23Z</time>
      </trkpt>
      <trkpt lat="44.84401" lon="5.26452">
        <ele>823.51</ele>
        <time>2014-11-23T08:44:39Z</time>
      </trkpt>
      <trkpt lat="44.84408" lon="5.26453">
        <ele>825.91</ele>
        <time>2014-11-23T08:44:52Z</time>
      </trkpt>
      <trkpt lat="44.84417" lon="5.26451">
        <ele>828.31</ele>
        <time>2014-11-23T08:45:07Z</time>
      </trkpt>
      <trkpt lat="44.84427" lon="5.26451">
        <ele>831.2</ele>
        <time>2014-11-23T08:45:21Z</time>
      </trkpt>
      <trkpt lat="44.84436" lon="5.26449">
        <ele>833.12</ele>
        <time>2014-11-23T08:45:34Z</time>
      </trkpt>
      <trkpt lat="44.84447" lon="5.26445">
        <ele>836.48</ele>
        <time>2014-11-23T08:45:49Z</time>
      </trkpt>
      <trkpt lat="44.84448" lon="5.26445">
        <ele>836.48</ele>
        <time>2014-11-23T08:45:50Z</time>
      </trkpt>
      <trkpt lat="44.8446" lon="5.2644">
        <ele>838.41</ele>
        <time>2014-11-23T08:46:05Z</time>
      </trkpt>
      <trkpt lat="44.84467" lon="5.26433">
        <ele>839.85</ele>
        <time>2014-11-23T08:46:14Z</time>
      </trkpt>
      <trkpt lat="44.84474" lon="5.26418">
        <ele>842.25</ele>
        <time>2014-11-23T08:46:29Z</time>
      </trkpt>
      <trkpt lat="44.84476" lon="5.26414">
        <ele>842.25</ele>
        <time>2014-11-23T08:46:33Z</time>
      </trkpt>
      <trkpt lat="44.84484" lon="5.26405">
        <ele>844.66</ele>
        <time>2014-11-23T08:46:45Z</time>
      </trkpt>
      <trkpt lat="44.84491" lon="5.26397">
        <ele>846.1</ele>
        <time>2014-11-23T08:46:57Z</time>
      </trkpt>
      <trkpt lat="44.845" lon="5.26385">
        <ele>848.02</ele>
        <time>2014-11-23T08:47:10Z</time>
      </trkpt>
      <trkpt lat="44.84511" lon="5.26372">
        <ele>850.9</ele>
        <time>2014-11-23T08:47:26Z</time>
      </trkpt>
      <trkpt lat="44.84515" lon="5.26363">
        <ele>850.9</ele>
        <time>2014-11-23T08:47:34Z</time>
      </trkpt>
      <trkpt lat="44.84523" lon="5.2635">
        <ele>852.35</ele>
        <time>2014-11-23T08:47:46Z</time>
      </trkpt>
      <trkpt lat="44.84531" lon="5.26337">
        <ele>854.27</ele>
        <time>2014-11-23T08:48:00Z</time>
      </trkpt>
      <trkpt lat="44.84539" lon="5.26328">
        <ele>856.67</ele>
        <time>2014-11-23T08:48:13Z</time>
      </trkpt>
      <trkpt lat="44.84547" lon="5.26316">
        <ele>859.08</ele>
        <time>2014-11-23T08:48:26Z</time>
      </trkpt>
      <trkpt lat="44.8455" lon="5.26307">
        <ele>860.04</ele>
        <time>2014-11-23T08:48:35Z</time>
      </trkpt>
      <trkpt lat="44.84553" lon="5.26298">
        <ele>860.52</ele>
        <time>2014-11-23T08:48:42Z</time>
      </trkpt>
      <trkpt lat="44.84553" lon="5.26296">
        <ele>860.52</ele>
        <time>2014-11-23T08:48:44Z</time>
      </trkpt>
      <trkpt lat="44.84551" lon="5.26278">
        <ele>861.96</ele>
        <time>2014-11-23T08:48:58Z</time>
      </trkpt>
      <trkpt lat="44.84545" lon="5.26257">
        <ele>863.4</ele>
        <time>2014-11-23T08:49:11Z</time>
      </trkpt>
      <trkpt lat="44.84541" lon="5.2625">
        <ele>864.36</ele>
        <time>2014-11-23T08:49:17Z</time>
      </trkpt>
      <trkpt lat="44.8453" lon="5.26246">
        <ele>865.8</ele>
        <time>2014-11-23T08:49:29Z</time>
      </trkpt>
      <trkpt lat="44.84521" lon="5.2624">
        <ele>867.25</ele>
        <time>2014-11-23T08:49:40Z</time>
      </trkpt>
      <trkpt lat="44.84513" lon="5.26229">
        <ele>869.17</ele>
        <time>2014-11-23T08:49:54Z</time>
      </trkpt>
      <trkpt lat="44.84512" lon="5.26229">
        <ele>869.17</ele>
        <time>2014-11-23T08:49:55Z</time>
      </trkpt>
      <trkpt lat="44.84503" lon="5.26221">
        <ele>871.09</ele>
        <time>2014-11-23T08:50:07Z</time>
      </trkpt>
      <trkpt lat="44.84494" lon="5.2621">
        <ele>873.01</ele>
        <time>2014-11-23T08:50:21Z</time>
      </trkpt>
      <trkpt lat="44.84488" lon="5.26203">
        <ele>873.98</ele>
        <time>2014-11-23T08:50:30Z</time>
      </trkpt>
      <trkpt lat="44.84479" lon="5.26191">
        <ele>876.38</ele>
        <time>2014-11-23T08:50:45Z</time>
      </trkpt>
      <trkpt lat="44.8447" lon="5.26181">
        <ele>878.3</ele>
        <time>2014-11-23T08:51:00Z</time>
      </trkpt>
      <trkpt lat="44.84464" lon="5.26168">
        <ele>881.67</ele>
        <time>2014-11-23T08:51:14Z</time>
      </trkpt>
      <trkpt lat="44.84458" lon="5.26156">
        <ele>883.59</ele>
        <time>2014-11-23T08:51:27Z</time>
      </trkpt>
      <trkpt lat="44.84455" lon="5.26145">
        <ele>885.51</ele>
        <time>2014-11-23T08:51:40Z</time>
      </trkpt>
      <trkpt lat="44.8445" lon="5.26132">
        <ele>888.4</ele>
        <time>2014-11-23T08:51:54Z</time>
      </trkpt>
      <trkpt lat="44.84446" lon="5.26122">
        <ele>890.8</ele>
        <time>2014-11-23T08:52:07Z</time>
      </trkpt>
      <trkpt lat="44.8444" lon="5.26109">
        <ele>893.2</ele>
        <time>2014-11-23T08:52:20Z</time>
      </trkpt>
      <trkpt lat="44.84438" lon="5.26102">
        <ele>894.16</ele>
        <time>2014-11-23T08:52:26Z</time>
      </trkpt>
      <trkpt lat="44.84434" lon="5.2609">
        <ele>895.61</ele>
        <time>2014-11-23T08:52:39Z</time>
      </trkpt>
      <trkpt lat="44.84439" lon="5.26079">
        <ele>898.01</ele>
        <time>2014-11-23T08:52:52Z</time>
      </trkpt>
      <trkpt lat="44.84443" lon="5.26075">
        <ele>898.49</ele>
        <time>2014-11-23T08:53:06Z</time>
      </trkpt>
      <trkpt lat="44.84451" lon="5.26068">
        <ele>900.41</ele>
        <time>2014-11-23T08:53:22Z</time>
      </trkpt>
      <trkpt lat="44.84452" lon="5.26066">
        <ele>900.41</ele>
        <time>2014-11-23T08:53:41Z</time>
      </trkpt>
      <trkpt lat="44.84451" lon="5.26066">
        <ele>901.37</ele>
        <time>2014-11-23T08:54:03Z</time>
      </trkpt>
      <trkpt lat="44.84451" lon="5.26066">
        <ele>901.37</ele>
        <time>2014-11-23T08:54:18Z</time>
      </trkpt>
      <trkpt lat="44.84453" lon="5.26065">
        <ele>901.37</ele>
        <time>2014-11-23T08:54:33Z</time>
      </trkpt>
      <trkpt lat="44.84454" lon="5.26065">
        <ele>901.37</ele>
        <time>2014-11-23T08:55:00Z</time>
      </trkpt>
      <trkpt lat="44.84455" lon="5.26069">
        <ele>901.37</ele>
        <time>2014-11-23T08:55:21Z</time>
      </trkpt>
      <trkpt lat="44.84453" lon="5.26066">
        <ele>901.37</ele>
        <time>2014-11-23T08:55:48Z</time>
      </trkpt>
      <trkpt lat="44.84452" lon="5.26064">
        <ele>901.37</ele>
        <time>2014-11-23T08:56:17Z</time>
      </trkpt>
      <trkpt lat="44.84454" lon="5.26066">
        <ele>901.37</ele>
        <time>2014-11-23T08:56:48Z</time>
      </trkpt>
      <trkpt lat="44.84456" lon="5.26065">
        <ele>901.85</ele>
        <time>2014-11-23T08:57:22Z</time>
      </trkpt>
      <trkpt lat="44.84458" lon="5.26063">
        <ele>902.82</ele>
        <time>2014-11-23T08:57:39Z</time>
      </trkpt>
      <trkpt lat="44.8446" lon="5.26061">
        <ele>903.3</ele>
        <time>2014-11-23T08:58:02Z</time>
      </trkpt>
      <trkpt lat="44.84466" lon="5.26054">
        <ele>904.74</ele>
        <time>2014-11-23T08:58:13Z</time>
      </trkpt>
      <trkpt lat="44.84476" lon="5.26044">
        <ele>906.66</ele>
        <time>2014-11-23T08:58:27Z</time>
      </trkpt>
      <trkpt lat="44.84486" lon="5.26031">
        <ele>908.1</ele>
        <time>2014-11-23T08:58:41Z</time>
      </trkpt>
      <trkpt lat="44.84487" lon="5.26028">
        <ele>908.1</ele>
        <time>2014-11-23T08:58:43Z</time>
      </trkpt>
      <trkpt lat="44.84496" lon="5.26019">
        <ele>908.1</ele>
        <time>2014-11-23T08:58:54Z</time>
      </trkpt>
      <trkpt lat="44.84507" lon="5.26009">
        <ele>909.54</ele>
        <time>2014-11-23T08:59:08Z</time>
      </trkpt>
      <trkpt lat="44.84517" lon="5.26001">
        <ele>910.99</ele>
        <time>2014-11-23T08:59:22Z</time>
      </trkpt>
      <trkpt lat="44.84525" lon="5.25993">
        <ele>911.95</ele>
        <time>2014-11-23T08:59:36Z</time>
      </trkpt>
      <trkpt lat="44.84531" lon="5.25988">
        <ele>913.39</ele>
        <time>2014-11-23T08:59:49Z</time>
      </trkpt>
      <trkpt lat="44.8454" lon="5.2598">
        <ele>914.83</ele>
        <time>2014-11-23T09:00:03Z</time>
      </trkpt>
      <trkpt lat="44.84548" lon="5.25974">
        <ele>916.75</ele>
        <time>2014-11-23T09:00:12Z</time>
      </trkpt>
      <trkpt lat="44.84552" lon="5.2597">
        <ele>916.75</ele>
        <time>2014-11-23T09:00:16Z</time>
      </trkpt>
      <trkpt lat="44.84563" lon="5.25957">
        <ele>918.68</ele>
        <time>2014-11-23T09:00:29Z</time>
      </trkpt>
      <trkpt lat="44.84568" lon="5.25951">
        <ele>919.16</ele>
        <time>2014-11-23T09:00:35Z</time>
      </trkpt>
      <trkpt lat="44.84569" lon="5.25949">
        <ele>919.16</ele>
        <time>2014-11-23T09:00:37Z</time>
      </trkpt>
      <trkpt lat="44.8458" lon="5.25935">
        <ele>921.08</ele>
        <time>2014-11-23T09:00:50Z</time>
      </trkpt>
      <trkpt lat="44.84592" lon="5.25921">
        <ele>923</ele>
        <time>2014-11-23T09:01:05Z</time>
      </trkpt>
      <trkpt lat="44.84601" lon="5.25911">
        <ele>923.96</ele>
        <time>2014-11-23T09:01:18Z</time>
      </trkpt>
      <trkpt lat="44.84611" lon="5.25902">
        <ele>925.89</ele>
        <time>2014-11-23T09:01:32Z</time>
      </trkpt>
      <trkpt lat="44.84621" lon="5.25892">
        <ele>927.81</ele>
        <time>2014-11-23T09:01:46Z</time>
      </trkpt>
      <trkpt lat="44.8463" lon="5.25882">
        <ele>929.25</ele>
        <time>2014-11-23T09:01:58Z</time>
      </trkpt>
      <trkpt lat="44.84633" lon="5.25878">
        <ele>930.21</ele>
        <time>2014-11-23T09:02:03Z</time>
      </trkpt>
      <trkpt lat="44.84642" lon="5.25868">
        <ele>932.14</ele>
        <time>2014-11-23T09:02:17Z</time>
      </trkpt>
      <trkpt lat="44.84647" lon="5.25859">
        <ele>934.06</ele>
        <time>2014-11-23T09:02:30Z</time>
      </trkpt>
      <trkpt lat="44.84655" lon="5.2585">
        <ele>936.46</ele>
        <time>2014-11-23T09:02:42Z</time>
      </trkpt>
      <trkpt lat="44.84657" lon="5.25848">
        <ele>937.42</ele>
        <time>2014-11-23T09:02:47Z</time>
      </trkpt>
      <trkpt lat="44.84667" lon="5.25839">
        <ele>939.35</ele>
        <time>2014-11-23T09:03:01Z</time>
      </trkpt>
      <trkpt lat="44.84678" lon="5.25828">
        <ele>941.27</ele>
        <time>2014-11-23T09:03:14Z</time>
      </trkpt>
      <trkpt lat="44.84685" lon="5.25822">
        <ele>942.23</ele>
        <time>2014-11-23T09:03:23Z</time>
      </trkpt>
      <trkpt lat="44.84694" lon="5.25814">
        <ele>944.15</ele>
        <time>2014-11-23T09:03:35Z</time>
      </trkpt>
      <trkpt lat="44.84706" lon="5.25802">
        <ele>947.04</ele>
        <time>2014-11-23T09:03:50Z</time>
      </trkpt>
      <trkpt lat="44.84715" lon="5.25791">
        <ele>948.48</ele>
        <time>2014-11-23T09:04:02Z</time>
      </trkpt>
      <trkpt lat="44.84725" lon="5.25781">
        <ele>950.88</ele>
        <time>2014-11-23T09:04:14Z</time>
      </trkpt>
      <trkpt lat="44.84726" lon="5.2578">
        <ele>950.88</ele>
        <time>2014-11-23T09:04:15Z</time>
      </trkpt>
      <trkpt lat="44.84734" lon="5.2577">
        <ele>953.28</ele>
        <time>2014-11-23T09:04:27Z</time>
      </trkpt>
      <trkpt lat="44.84735" lon="5.25769">
        <ele>953.28</ele>
        <time>2014-11-23T09:04:28Z</time>
      </trkpt>
      <trkpt lat="44.8474" lon="5.25756">
        <ele>954.73</ele>
        <time>2014-11-23T09:04:40Z</time>
      </trkpt>
      <trkpt lat="44.84741" lon="5.2575">
        <ele>955.69</ele>
        <time>2014-11-23T09:04:45Z</time>
      </trkpt>
      <trkpt lat="44.84738" lon="5.25728">
        <ele>957.61</ele>
        <time>2014-11-23T09:04:57Z</time>
      </trkpt>
      <trkpt lat="44.84736" lon="5.25714">
        <ele>959.53</ele>
        <time>2014-11-23T09:05:10Z</time>
      </trkpt>
      <trkpt lat="44.84737" lon="5.25699">
        <ele>962.42</ele>
        <time>2014-11-23T09:05:25Z</time>
      </trkpt>
      <trkpt lat="44.84738" lon="5.25684">
        <ele>963.86</ele>
        <time>2014-11-23T09:05:39Z</time>
      </trkpt>
      <trkpt lat="44.84739" lon="5.25676">
        <ele>965.78</ele>
        <time>2014-11-23T09:05:47Z</time>
      </trkpt>
      <trkpt lat="44.84742" lon="5.25662">
        <ele>967.7</ele>
        <time>2014-11-23T09:06:00Z</time>
      </trkpt>
      <trkpt lat="44.84744" lon="5.2565">
        <ele>969.63</ele>
        <time>2014-11-23T09:06:13Z</time>
      </trkpt>
      <trkpt lat="44.84743" lon="5.25638">
        <ele>971.55</ele>
        <time>2014-11-23T09:06:25Z</time>
      </trkpt>
      <trkpt lat="44.84739" lon="5.25624">
        <ele>972.99</ele>
        <time>2014-11-23T09:06:39Z</time>
      </trkpt>
      <trkpt lat="44.84737" lon="5.25613">
        <ele>973.95</ele>
        <time>2014-11-23T09:06:50Z</time>
      </trkpt>
      <trkpt lat="44.84732" lon="5.25593">
        <ele>975.88</ele>
        <time>2014-11-23T09:07:07Z</time>
      </trkpt>
      <trkpt lat="44.84726" lon="5.2558">
        <ele>976.84</ele>
        <time>2014-11-23T09:07:18Z</time>
      </trkpt>
      <trkpt lat="44.84719" lon="5.25562">
        <ele>978.28</ele>
        <time>2014-11-23T09:07:31Z</time>
      </trkpt>
      <trkpt lat="44.84714" lon="5.25548">
        <ele>979.24</ele>
        <time>2014-11-23T09:07:43Z</time>
      </trkpt>
      <trkpt lat="44.84709" lon="5.25533">
        <ele>980.68</ele>
        <time>2014-11-23T09:07:54Z</time>
      </trkpt>
      <trkpt lat="44.84707" lon="5.25524">
        <ele>981.16</ele>
        <time>2014-11-23T09:08:06Z</time>
      </trkpt>
      <trkpt lat="44.8471" lon="5.25522">
        <ele>981.64</ele>
        <time>2014-11-23T09:08:19Z</time>
      </trkpt>
      <trkpt lat="44.84718" lon="5.25531">
        <ele>983.09</ele>
        <time>2014-11-23T09:08:29Z</time>
      </trkpt>
      <trkpt lat="44.84721" lon="5.2554">
        <ele>983.09</ele>
        <time>2014-11-23T09:08:36Z</time>
      </trkpt>
      <trkpt lat="44.84723" lon="5.25542">
        <ele>983.09</ele>
        <time>2014-11-23T09:08:38Z</time>
      </trkpt>
      <trkpt lat="44.84725" lon="5.25544">
        <ele>983.09</ele>
        <time>2014-11-23T09:08:40Z</time>
      </trkpt>
      <trkpt lat="44.84732" lon="5.25557">
        <ele>983.09</ele>
        <time>2014-11-23T09:08:51Z</time>
      </trkpt>
      <trkpt lat="44.84739" lon="5.2557">
        <ele>983.09</ele>
        <time>2014-11-23T09:09:03Z</time>
      </trkpt>
      <trkpt lat="44.84742" lon="5.25574">
        <ele>983.09</ele>
        <time>2014-11-23T09:09:07Z</time>
      </trkpt>
      <trkpt lat="44.84749" lon="5.25586">
        <ele>982.12</ele>
        <time>2014-11-23T09:09:19Z</time>
      </trkpt>
      <trkpt lat="44.84755" lon="5.25602">
        <ele>982.12</ele>
        <time>2014-11-23T09:09:31Z</time>
      </trkpt>
      <trkpt lat="44.84757" lon="5.2561">
        <ele>983.09</ele>
        <time>2014-11-23T09:09:37Z</time>
      </trkpt>
      <trkpt lat="44.84763" lon="5.25626">
        <ele>984.05</ele>
        <time>2014-11-23T09:09:49Z</time>
      </trkpt>
      <trkpt lat="44.84765" lon="5.25634">
        <ele>984.53</ele>
        <time>2014-11-23T09:09:55Z</time>
      </trkpt>
      <trkpt lat="44.84769" lon="5.25645">
        <ele>984.53</ele>
        <time>2014-11-23T09:10:03Z</time>
      </trkpt>
      <trkpt lat="44.84775" lon="5.25669">
        <ele>985.49</ele>
        <time>2014-11-23T09:10:17Z</time>
      </trkpt>
      <trkpt lat="44.84777" lon="5.25682">
        <ele>985.97</ele>
        <time>2014-11-23T09:10:34Z</time>
      </trkpt>
      <trkpt lat="44.84778" lon="5.25691">
        <ele>986.45</ele>
        <time>2014-11-23T09:10:41Z</time>
      </trkpt>
      <trkpt lat="44.84785" lon="5.25709">
        <ele>987.41</ele>
        <time>2014-11-23T09:10:55Z</time>
      </trkpt>
      <trkpt lat="44.8479" lon="5.25725">
        <ele>988.37</ele>
        <time>2014-11-23T09:11:06Z</time>
      </trkpt>
      <trkpt lat="44.84792" lon="5.25731">
        <ele>988.85</ele>
        <time>2014-11-23T09:11:11Z</time>
      </trkpt>
      <trkpt lat="44.84794" lon="5.25739">
        <ele>988.85</ele>
        <time>2014-11-23T09:11:16Z</time>
      </trkpt>
      <trkpt lat="44.84796" lon="5.25744">
        <ele>989.33</ele>
        <time>2014-11-23T09:11:20Z</time>
      </trkpt>
      <trkpt lat="44.84796" lon="5.2575">
        <ele>989.33</ele>
        <time>2014-11-23T09:11:23Z</time>
      </trkpt>
      <trkpt lat="44.84793" lon="5.25774">
        <ele>990.78</ele>
        <time>2014-11-23T09:11:39Z</time>
      </trkpt>
      <trkpt lat="44.84791" lon="5.25781">
        <ele>991.26</ele>
        <time>2014-11-23T09:11:44Z</time>
      </trkpt>
      <trkpt lat="44.84784" lon="5.25799">
        <ele>992.7</ele>
        <time>2014-11-23T09:11:55Z</time>
      </trkpt>
      <trkpt lat="44.84781" lon="5.25817">
        <ele>994.14</ele>
        <time>2014-11-23T09:12:06Z</time>
      </trkpt>
      <trkpt lat="44.8478" lon="5.25831">
        <ele>996.54</ele>
        <time>2014-11-23T09:12:18Z</time>
      </trkpt>
      <trkpt lat="44.84778" lon="5.25845">
        <ele>998.47</ele>
        <time>2014-11-23T09:12:31Z</time>
      </trkpt>
      <trkpt lat="44.84777" lon="5.25861">
        <ele>1000.87</ele>
        <time>2014-11-23T09:12:44Z</time>
      </trkpt>
      <trkpt lat="44.84775" lon="5.25878">
        <ele>1003.27</ele>
        <time>2014-11-23T09:12:58Z</time>
      </trkpt>
      <trkpt lat="44.84773" lon="5.25892">
        <ele>1005.68</ele>
        <time>2014-11-23T09:13:10Z</time>
      </trkpt>
      <trkpt lat="44.84771" lon="5.25907">
        <ele>1007.6</ele>
        <time>2014-11-23T09:13:23Z</time>
      </trkpt>
      <trkpt lat="44.84769" lon="5.25921">
        <ele>1010</ele>
        <time>2014-11-23T09:13:36Z</time>
      </trkpt>
      <trkpt lat="44.84765" lon="5.25932">
        <ele>1011.93</ele>
        <time>2014-11-23T09:13:48Z</time>
      </trkpt>
      <trkpt lat="44.84764" lon="5.2594">
        <ele>1012.89</ele>
        <time>2014-11-23T09:13:54Z</time>
      </trkpt>
      <trkpt lat="44.8476" lon="5.25954">
        <ele>1014.33</ele>
        <time>2014-11-23T09:14:06Z</time>
      </trkpt>
      <trkpt lat="44.84757" lon="5.25971">
        <ele>1016.73</ele>
        <time>2014-11-23T09:14:20Z</time>
      </trkpt>
      <trkpt lat="44.84754" lon="5.25991">
        <ele>1018.65</ele>
        <time>2014-11-23T09:14:35Z</time>
      </trkpt>
      <trkpt lat="44.84753" lon="5.25995">
        <ele>1019.13</ele>
        <time>2014-11-23T09:14:38Z</time>
      </trkpt>
      <trkpt lat="44.8475" lon="5.2601">
        <ele>1021.54</ele>
        <time>2014-11-23T09:14:51Z</time>
      </trkpt>
      <trkpt lat="44.84753" lon="5.26023">
        <ele>1023.94</ele>
        <time>2014-11-23T09:15:04Z</time>
      </trkpt>
      <trkpt lat="44.84762" lon="5.26034">
        <ele>1025.38</ele>
        <time>2014-11-23T09:15:16Z</time>
      </trkpt>
      <trkpt lat="44.84774" lon="5.26044">
        <ele>1027.31</ele>
        <time>2014-11-23T09:15:30Z</time>
      </trkpt>
      <trkpt lat="44.84782" lon="5.26053">
        <ele>1028.75</ele>
        <time>2014-11-23T09:15:41Z</time>
      </trkpt>
      <trkpt lat="44.84792" lon="5.26062">
        <ele>1030.67</ele>
        <time>2014-11-23T09:15:53Z</time>
      </trkpt>
      <trkpt lat="44.84802" lon="5.26072">
        <ele>1031.63</ele>
        <time>2014-11-23T09:16:07Z</time>
      </trkpt>
      <trkpt lat="44.84804" lon="5.26074">
        <ele>1032.11</ele>
        <time>2014-11-23T09:16:10Z</time>
      </trkpt>
      <trkpt lat="44.84807" lon="5.26076">
        <ele>1032.59</ele>
        <time>2014-11-23T09:16:13Z</time>
      </trkpt>
      <trkpt lat="44.84817" lon="5.26088">
        <ele>1033.07</ele>
        <time>2014-11-23T09:16:27Z</time>
      </trkpt>
      <trkpt lat="44.84826" lon="5.26103">
        <ele>1033.55</ele>
        <time>2014-11-23T09:16:39Z</time>
      </trkpt>
      <trkpt lat="44.84828" lon="5.26106">
        <ele>1033.55</ele>
        <time>2014-11-23T09:16:42Z</time>
      </trkpt>
      <trkpt lat="44.84829" lon="5.26111">
        <ele>1033.55</ele>
        <time>2014-11-23T09:16:46Z</time>
      </trkpt>
      <trkpt lat="44.84837" lon="5.26127">
        <ele>1033.55</ele>
        <time>2014-11-23T09:16:59Z</time>
      </trkpt>
      <trkpt lat="44.84842" lon="5.26138">
        <ele>1033.55</ele>
        <time>2014-11-23T09:17:10Z</time>
      </trkpt>
      <trkpt lat="44.84844" lon="5.26155">
        <ele>1033.55</ele>
        <time>2014-11-23T09:17:22Z</time>
      </trkpt>
      <trkpt lat="44.84844" lon="5.26165">
        <ele>1033.55</ele>
        <time>2014-11-23T09:17:28Z</time>
      </trkpt>
      <trkpt lat="44.84841" lon="5.26186">
        <ele>1034.52</ele>
        <time>2014-11-23T09:17:41Z</time>
      </trkpt>
      <trkpt lat="44.84837" lon="5.26202">
        <ele>1035.48</ele>
        <time>2014-11-23T09:17:55Z</time>
      </trkpt>
      <trkpt lat="44.84836" lon="5.26218">
        <ele>1036.92</ele>
        <time>2014-11-23T09:18:08Z</time>
      </trkpt>
      <trkpt lat="44.84836" lon="5.26239">
        <ele>1037.88</ele>
        <time>2014-11-23T09:18:24Z</time>
      </trkpt>
      <trkpt lat="44.84837" lon="5.26244">
        <ele>1038.84</ele>
        <time>2014-11-23T09:18:29Z</time>
      </trkpt>
      <trkpt lat="44.84838" lon="5.26264">
        <ele>1039.8</ele>
        <time>2014-11-23T09:18:43Z</time>
      </trkpt>
      <trkpt lat="44.84836" lon="5.26283">
        <ele>1040.76</ele>
        <time>2014-11-23T09:18:56Z</time>
      </trkpt>
      <trkpt lat="44.84835" lon="5.26302">
        <ele>1042.21</ele>
        <time>2014-11-23T09:19:09Z</time>
      </trkpt>
      <trkpt lat="44.84838" lon="5.26319">
        <ele>1044.13</ele>
        <time>2014-11-23T09:19:23Z</time>
      </trkpt>
      <trkpt lat="44.8484" lon="5.26336">
        <ele>1045.57</ele>
        <time>2014-11-23T09:19:36Z</time>
      </trkpt>
      <trkpt lat="44.84842" lon="5.2635">
        <ele>1047.01</ele>
        <time>2014-11-23T09:19:47Z</time>
      </trkpt>
      <trkpt lat="44.84845" lon="5.26364">
        <ele>1048.45</ele>
        <time>2014-11-23T09:20:00Z</time>
      </trkpt>
      <trkpt lat="44.84847" lon="5.26382">
        <ele>1050.38</ele>
        <time>2014-11-23T09:20:14Z</time>
      </trkpt>
      <trkpt lat="44.84848" lon="5.26395">
        <ele>1052.78</ele>
        <time>2014-11-23T09:20:27Z</time>
      </trkpt>
      <trkpt lat="44.84849" lon="5.2641">
        <ele>1054.7</ele>
        <time>2014-11-23T09:20:41Z</time>
      </trkpt>
      <trkpt lat="44.84853" lon="5.26421">
        <ele>1056.63</ele>
        <time>2014-11-23T09:20:51Z</time>
      </trkpt>
      <trkpt lat="44.84862" lon="5.26426">
        <ele>1057.59</ele>
        <time>2014-11-23T09:21:04Z</time>
      </trkpt>
      <trkpt lat="44.84863" lon="5.26426">
        <ele>1057.59</ele>
        <time>2014-11-23T09:21:05Z</time>
      </trkpt>
      <trkpt lat="44.84876" lon="5.26424">
        <ele>1059.99</ele>
        <time>2014-11-23T09:21:19Z</time>
      </trkpt>
      <trkpt lat="44.84889" lon="5.26419">
        <ele>1060.95</ele>
        <time>2014-11-23T09:21:32Z</time>
      </trkpt>
      <trkpt lat="44.84902" lon="5.26414">
        <ele>1062.87</ele>
        <time>2014-11-23T09:21:47Z</time>
      </trkpt>
      <trkpt lat="44.84915" lon="5.2641">
        <ele>1063.84</ele>
        <time>2014-11-23T09:22:01Z</time>
      </trkpt>
      <trkpt lat="44.84921" lon="5.26407">
        <ele>1064.32</ele>
        <time>2014-11-23T09:22:14Z</time>
      </trkpt>
      <trkpt lat="44.84924" lon="5.26404">
        <ele>1064.8</ele>
        <time>2014-11-23T09:22:39Z</time>
      </trkpt>
      <trkpt lat="44.84925" lon="5.26405">
        <ele>1064.8</ele>
        <time>2014-11-23T09:23:02Z</time>
      </trkpt>
      <trkpt lat="44.84923" lon="5.26404">
        <ele>1064.8</ele>
        <time>2014-11-23T09:23:15Z</time>
      </trkpt>
      <trkpt lat="44.84924" lon="5.26398">
        <ele>1064.8</ele>
        <time>2014-11-23T09:23:41Z</time>
      </trkpt>
      <trkpt lat="44.84925" lon="5.26398">
        <ele>1065.28</ele>
        <time>2014-11-23T09:24:02Z</time>
      </trkpt>
      <trkpt lat="44.84928" lon="5.26398">
        <ele>1065.28</ele>
        <time>2014-11-23T09:24:29Z</time>
      </trkpt>
      <trkpt lat="44.84926" lon="5.26396">
        <ele>1065.76</ele>
        <time>2014-11-23T09:24:50Z</time>
      </trkpt>
      <trkpt lat="44.84925" lon="5.26397">
        <ele>1065.76</ele>
        <time>2014-11-23T09:25:18Z</time>
      </trkpt>
      <trkpt lat="44.84931" lon="5.26397">
        <ele>1066.24</ele>
        <time>2014-11-23T09:25:33Z</time>
      </trkpt>
      <trkpt lat="44.8494" lon="5.26397">
        <ele>1067.2</ele>
        <time>2014-11-23T09:25:44Z</time>
      </trkpt>
      <trkpt lat="44.84948" lon="5.26394">
        <ele>1068.64</ele>
        <time>2014-11-23T09:25:55Z</time>
      </trkpt>
      <trkpt lat="44.84959" lon="5.26392">
        <ele>1070.57</ele>
        <time>2014-11-23T09:26:08Z</time>
      </trkpt>
      <trkpt lat="44.84971" lon="5.26388">
        <ele>1072.01</ele>
        <time>2014-11-23T09:26:21Z</time>
      </trkpt>
      <trkpt lat="44.84981" lon="5.26384">
        <ele>1074.89</ele>
        <time>2014-11-23T09:26:35Z</time>
      </trkpt>
      <trkpt lat="44.84991" lon="5.26382">
        <ele>1077.29</ele>
        <time>2014-11-23T09:26:49Z</time>
      </trkpt>
      <trkpt lat="44.84998" lon="5.26378">
        <ele>1079.7</ele>
        <time>2014-11-23T09:27:02Z</time>
      </trkpt>
      <trkpt lat="44.85006" lon="5.26374">
        <ele>1082.58</ele>
        <time>2014-11-23T09:27:15Z</time>
      </trkpt>
      <trkpt lat="44.85013" lon="5.26373">
        <ele>1084.5</ele>
        <time>2014-11-23T09:27:27Z</time>
      </trkpt>
      <trkpt lat="44.85021" lon="5.26369">
        <ele>1087.39</ele>
        <time>2014-11-23T09:27:40Z</time>
      </trkpt>
      <trkpt lat="44.85028" lon="5.26367">
        <ele>1089.31</ele>
        <time>2014-11-23T09:27:52Z</time>
      </trkpt>
      <trkpt lat="44.8504" lon="5.26361">
        <ele>1092.2</ele>
        <time>2014-11-23T09:28:07Z</time>
      </trkpt>
      <trkpt lat="44.85049" lon="5.26359">
        <ele>1094.6</ele>
        <time>2014-11-23T09:28:22Z</time>
      </trkpt>
      <trkpt lat="44.85058" lon="5.26357">
        <ele>1096.52</ele>
        <time>2014-11-23T09:28:34Z</time>
      </trkpt>
      <trkpt lat="44.85072" lon="5.26354">
        <ele>1099.4</ele>
        <time>2014-11-23T09:28:50Z</time>
      </trkpt>
      <trkpt lat="44.85081" lon="5.26356">
        <ele>1101.33</ele>
        <time>2014-11-23T09:29:04Z</time>
      </trkpt>
      <trkpt lat="44.85089" lon="5.26356">
        <ele>1103.25</ele>
        <time>2014-11-23T09:29:16Z</time>
      </trkpt>
      <trkpt lat="44.85095" lon="5.26355">
        <ele>1104.69</ele>
        <time>2014-11-23T09:29:27Z</time>
      </trkpt>
      <trkpt lat="44.85103" lon="5.26351">
        <ele>1107.1</ele>
        <time>2014-11-23T09:29:39Z</time>
      </trkpt>
      <trkpt lat="44.85111" lon="5.26351">
        <ele>1109.02</ele>
        <time>2014-11-23T09:29:51Z</time>
      </trkpt>
      <trkpt lat="44.85121" lon="5.26348">
        <ele>1112.38</ele>
        <time>2014-11-23T09:30:09Z</time>
      </trkpt>
      <trkpt lat="44.85127" lon="5.26344">
        <ele>1114.31</ele>
        <time>2014-11-23T09:30:20Z</time>
      </trkpt>
      <trkpt lat="44.85136" lon="5.26339">
        <ele>1117.19</ele>
        <time>2014-11-23T09:30:36Z</time>
      </trkpt>
      <trkpt lat="44.85144" lon="5.26335">
        <ele>1119.59</ele>
        <time>2014-11-23T09:30:50Z</time>
      </trkpt>
      <trkpt lat="44.85153" lon="5.2633">
        <ele>1121.52</ele>
        <time>2014-11-23T09:31:03Z</time>
      </trkpt>
      <trkpt lat="44.8516" lon="5.26327">
        <ele>1124.88</ele>
        <time>2014-11-23T09:31:20Z</time>
      </trkpt>
      <trkpt lat="44.85168" lon="5.26324">
        <ele>1126.8</ele>
        <time>2014-11-23T09:31:33Z</time>
      </trkpt>
      <trkpt lat="44.85175" lon="5.2632">
        <ele>1128.73</ele>
        <time>2014-11-23T09:31:45Z</time>
      </trkpt>
      <trkpt lat="44.85182" lon="5.26317">
        <ele>1131.13</ele>
        <time>2014-11-23T09:31:58Z</time>
      </trkpt>
      <trkpt lat="44.85188" lon="5.26314">
        <ele>1133.05</ele>
        <time>2014-11-23T09:32:09Z</time>
      </trkpt>
      <trkpt lat="44.85196" lon="5.26311">
        <ele>1134.01</ele>
        <time>2014-11-23T09:32:20Z</time>
      </trkpt>
      <trkpt lat="44.85193" lon="5.26307">
        <ele>1135.94</ele>
        <time>2014-11-23T09:32:34Z</time>
      </trkpt>
      <trkpt lat="44.85186" lon="5.26307">
        <ele>1136.9</ele>
        <time>2014-11-23T09:32:48Z</time>
      </trkpt>
      <trkpt lat="44.85178" lon="5.26305">
        <ele>1138.34</ele>
        <time>2014-11-23T09:32:59Z</time>
      </trkpt>
      <trkpt lat="44.85169" lon="5.26302">
        <ele>1139.3</ele>
        <time>2014-11-23T09:33:11Z</time>
      </trkpt>
      <trkpt lat="44.8516" lon="5.26299">
        <ele>1141.22</ele>
        <time>2014-11-23T09:33:23Z</time>
      </trkpt>
      <trkpt lat="44.8515" lon="5.26294">
        <ele>1142.66</ele>
        <time>2014-11-23T09:33:37Z</time>
      </trkpt>
      <trkpt lat="44.8514" lon="5.26291">
        <ele>1145.55</ele>
        <time>2014-11-23T09:33:49Z</time>
      </trkpt>
      <trkpt lat="44.85133" lon="5.26285">
        <ele>1147.47</ele>
        <time>2014-11-23T09:34:03Z</time>
      </trkpt>
      <trkpt lat="44.85122" lon="5.26278">
        <ele>1149.87</ele>
        <time>2014-11-23T09:34:17Z</time>
      </trkpt>
      <trkpt lat="44.85115" lon="5.26274">
        <ele>1152.28</ele>
        <time>2014-11-23T09:34:30Z</time>
      </trkpt>
      <trkpt lat="44.85107" lon="5.26268">
        <ele>1154.2</ele>
        <time>2014-11-23T09:34:42Z</time>
      </trkpt>
      <trkpt lat="44.85098" lon="5.26261">
        <ele>1157.08</ele>
        <time>2014-11-23T09:34:56Z</time>
      </trkpt>
      <trkpt lat="44.85089" lon="5.26256">
        <ele>1159.01</ele>
        <time>2014-11-23T09:35:09Z</time>
      </trkpt>
      <trkpt lat="44.85081" lon="5.26251">
        <ele>1160.45</ele>
        <time>2014-11-23T09:35:20Z</time>
      </trkpt>
      <trkpt lat="44.85072" lon="5.26247">
        <ele>1162.37</ele>
        <time>2014-11-23T09:35:32Z</time>
      </trkpt>
      <trkpt lat="44.85062" lon="5.26244">
        <ele>1163.81</ele>
        <time>2014-11-23T09:35:44Z</time>
      </trkpt>
      <trkpt lat="44.85052" lon="5.26242">
        <ele>1164.77</ele>
        <time>2014-11-23T09:35:56Z</time>
      </trkpt>
      <trkpt lat="44.8504" lon="5.2624">
        <ele>1166.22</ele>
        <time>2014-11-23T09:36:09Z</time>
      </trkpt>
      <trkpt lat="44.85029" lon="5.26238">
        <ele>1167.66</ele>
        <time>2014-11-23T09:36:21Z</time>
      </trkpt>
      <trkpt lat="44.85018" lon="5.26236">
        <ele>1168.62</ele>
        <time>2014-11-23T09:36:33Z</time>
      </trkpt>
      <trkpt lat="44.8501" lon="5.2623">
        <ele>1169.1</ele>
        <time>2014-11-23T09:36:43Z</time>
      </trkpt>
      <trkpt lat="44.85009" lon="5.26227">
        <ele>1170.06</ele>
        <time>2014-11-23T09:36:46Z</time>
      </trkpt>
      <trkpt lat="44.85016" lon="5.26223">
        <ele>1171.98</ele>
        <time>2014-11-23T09:36:59Z</time>
      </trkpt>
      <trkpt lat="44.85027" lon="5.26225">
        <ele>1173.91</ele>
        <time>2014-11-23T09:37:12Z</time>
      </trkpt>
      <trkpt lat="44.85039" lon="5.26222">
        <ele>1175.83</ele>
        <time>2014-11-23T09:37:26Z</time>
      </trkpt>
      <trkpt lat="44.85051" lon="5.26221">
        <ele>1176.79</ele>
        <time>2014-11-23T09:37:38Z</time>
      </trkpt>
      <trkpt lat="44.85063" lon="5.26218">
        <ele>1178.23</ele>
        <time>2014-11-23T09:37:52Z</time>
      </trkpt>
      <trkpt lat="44.85074" lon="5.26217">
        <ele>1178.71</ele>
        <time>2014-11-23T09:38:06Z</time>
      </trkpt>
      <trkpt lat="44.85081" lon="5.26218">
        <ele>1179.19</ele>
        <time>2014-11-23T09:38:25Z</time>
      </trkpt>
      <trkpt lat="44.8509" lon="5.26217">
        <ele>1179.67</ele>
        <time>2014-11-23T09:38:35Z</time>
      </trkpt>
      <trkpt lat="44.85094" lon="5.26217">
        <ele>1179.67</ele>
        <time>2014-11-23T09:38:49Z</time>
      </trkpt>
      <trkpt lat="44.85103" lon="5.26215">
        <ele>1179.67</ele>
        <time>2014-11-23T09:39:12Z</time>
      </trkpt>
      <trkpt lat="44.85115" lon="5.26217">
        <ele>1180.16</ele>
        <time>2014-11-23T09:39:25Z</time>
      </trkpt>
      <trkpt lat="44.85126" lon="5.26218">
        <ele>1182.56</ele>
        <time>2014-11-23T09:39:38Z</time>
      </trkpt>
      <trkpt lat="44.85139" lon="5.26219">
        <ele>1184</ele>
        <time>2014-11-23T09:39:51Z</time>
      </trkpt>
      <trkpt lat="44.85152" lon="5.26217">
        <ele>1185.92</ele>
        <time>2014-11-23T09:40:07Z</time>
      </trkpt>
      <trkpt lat="44.85157" lon="5.26214">
        <ele>1185.92</ele>
        <time>2014-11-23T09:40:25Z</time>
      </trkpt>
      <trkpt lat="44.85169" lon="5.26214">
        <ele>1187.85</ele>
        <time>2014-11-23T09:40:38Z</time>
      </trkpt>
      <trkpt lat="44.8518" lon="5.26213">
        <ele>1188.81</ele>
        <time>2014-11-23T09:40:51Z</time>
      </trkpt>
      <trkpt lat="44.85192" lon="5.26211">
        <ele>1189.77</ele>
        <time>2014-11-23T09:41:05Z</time>
      </trkpt>
      <trkpt lat="44.85199" lon="5.2621">
        <ele>1190.73</ele>
        <time>2014-11-23T09:41:12Z</time>
      </trkpt>
      <trkpt lat="44.85202" lon="5.2621">
        <ele>1190.73</ele>
        <time>2014-11-23T09:41:15Z</time>
      </trkpt>
      <trkpt lat="44.85215" lon="5.26207">
        <ele>1192.17</ele>
        <time>2014-11-23T09:41:28Z</time>
      </trkpt>
      <trkpt lat="44.8523" lon="5.26205">
        <ele>1193.61</ele>
        <time>2014-11-23T09:41:43Z</time>
      </trkpt>
      <trkpt lat="44.85242" lon="5.26202">
        <ele>1195.54</ele>
        <time>2014-11-23T09:41:57Z</time>
      </trkpt>
      <trkpt lat="44.85254" lon="5.26199">
        <ele>1197.46</ele>
        <time>2014-11-23T09:42:12Z</time>
      </trkpt>
      <trkpt lat="44.85263" lon="5.26202">
        <ele>1199.86</ele>
        <time>2014-11-23T09:42:27Z</time>
      </trkpt>
      <trkpt lat="44.85275" lon="5.26206">
        <ele>1201.79</ele>
        <time>2014-11-23T09:42:41Z</time>
      </trkpt>
      <trkpt lat="44.85283" lon="5.26212">
        <ele>1203.71</ele>
        <time>2014-11-23T09:42:54Z</time>
      </trkpt>
      <trkpt lat="44.85288" lon="5.26218">
        <ele>1205.63</ele>
        <time>2014-11-23T09:43:04Z</time>
      </trkpt>
      <trkpt lat="44.85291" lon="5.26229">
        <ele>1206.59</ele>
        <time>2014-11-23T09:43:20Z</time>
      </trkpt>
      <trkpt lat="44.85299" lon="5.26237">
        <ele>1209</ele>
        <time>2014-11-23T09:43:35Z</time>
      </trkpt>
      <trkpt lat="44.85305" lon="5.26242">
        <ele>1211.4</ele>
        <time>2014-11-23T09:43:46Z</time>
      </trkpt>
      <trkpt lat="44.85312" lon="5.26246">
        <ele>1212.84</ele>
        <time>2014-11-23T09:43:59Z</time>
      </trkpt>
      <trkpt lat="44.85322" lon="5.26248">
        <ele>1214.76</ele>
        <time>2014-11-23T09:44:16Z</time>
      </trkpt>
      <trkpt lat="44.85329" lon="5.26248">
        <ele>1217.17</ele>
        <time>2014-11-23T09:44:31Z</time>
      </trkpt>
      <trkpt lat="44.85335" lon="5.26249">
        <ele>1219.57</ele>
        <time>2014-11-23T09:44:45Z</time>
      </trkpt>
      <trkpt lat="44.85344" lon="5.26252">
        <ele>1221.01</ele>
        <time>2014-11-23T09:44:58Z</time>
      </trkpt>
      <trkpt lat="44.85352" lon="5.26253">
        <ele>1222.93</ele>
        <time>2014-11-23T09:45:10Z</time>
      </trkpt>
      <trkpt lat="44.85351" lon="5.26246">
        <ele>1224.86</ele>
        <time>2014-11-23T09:45:20Z</time>
      </trkpt>
      <trkpt lat="44.85344" lon="5.26241">
        <ele>1225.82</ele>
        <time>2014-11-23T09:45:33Z</time>
      </trkpt>
      <trkpt lat="44.85336" lon="5.26237">
        <ele>1227.26</ele>
        <time>2014-11-23T09:45:45Z</time>
      </trkpt>
      <trkpt lat="44.85328" lon="5.2623">
        <ele>1229.18</ele>
        <time>2014-11-23T09:45:58Z</time>
      </trkpt>
      <trkpt lat="44.85322" lon="5.26217">
        <ele>1231.59</ele>
        <time>2014-11-23T09:46:12Z</time>
      </trkpt>
      <trkpt lat="44.85318" lon="5.26201">
        <ele>1233.51</ele>
        <time>2014-11-23T09:46:26Z</time>
      </trkpt>
      <trkpt lat="44.85319" lon="5.26193">
        <ele>1235.43</ele>
        <time>2014-11-23T09:46:36Z</time>
      </trkpt>
      <trkpt lat="44.85318" lon="5.26183">
        <ele>1237.35</ele>
        <time>2014-11-23T09:46:47Z</time>
      </trkpt>
      <trkpt lat="44.8532" lon="5.26174">
        <ele>1239.28</ele>
        <time>2014-11-23T09:47:00Z</time>
      </trkpt>
      <trkpt lat="44.85321" lon="5.26166">
        <ele>1241.2</ele>
        <time>2014-11-23T09:47:12Z</time>
      </trkpt>
      <trkpt lat="44.85321" lon="5.26156">
        <ele>1243.12</ele>
        <time>2014-11-23T09:47:23Z</time>
      </trkpt>
      <trkpt lat="44.85319" lon="5.26147">
        <ele>1245.04</ele>
        <time>2014-11-23T09:47:36Z</time>
      </trkpt>
      <trkpt lat="44.85316" lon="5.26139">
        <ele>1246.97</ele>
        <time>2014-11-23T09:47:47Z</time>
      </trkpt>
      <trkpt lat="44.85312" lon="5.26133">
        <ele>1247.93</ele>
        <time>2014-11-23T09:47:57Z</time>
      </trkpt>
      <trkpt lat="44.85308" lon="5.26127">
        <ele>1249.85</ele>
        <time>2014-11-23T09:48:09Z</time>
      </trkpt>
      <trkpt lat="44.85303" lon="5.26123">
        <ele>1251.77</ele>
        <time>2014-11-23T09:48:21Z</time>
      </trkpt>
      <trkpt lat="44.85298" lon="5.26118">
        <ele>1253.22</ele>
        <time>2014-11-23T09:48:32Z</time>
      </trkpt>
      <trkpt lat="44.85291" lon="5.26111">
        <ele>1255.14</ele>
        <time>2014-11-23T09:48:44Z</time>
      </trkpt>
      <trkpt lat="44.85285" lon="5.26103">
        <ele>1257.54</ele>
        <time>2014-11-23T09:48:57Z</time>
      </trkpt>
      <trkpt lat="44.85279" lon="5.26095">
        <ele>1258.98</ele>
        <time>2014-11-23T09:49:10Z</time>
      </trkpt>
      <trkpt lat="44.85273" lon="5.26088">
        <ele>1261.39</ele>
        <time>2014-11-23T09:49:23Z</time>
      </trkpt>
      <trkpt lat="44.85264" lon="5.26083">
        <ele>1263.31</ele>
        <time>2014-11-23T09:49:36Z</time>
      </trkpt>
      <trkpt lat="44.85256" lon="5.26075">
        <ele>1265.23</ele>
        <time>2014-11-23T09:49:51Z</time>
      </trkpt>
      <trkpt lat="44.8525" lon="5.26071">
        <ele>1266.67</ele>
        <time>2014-11-23T09:50:02Z</time>
      </trkpt>
      <trkpt lat="44.85241" lon="5.26067">
        <ele>1268.12</ele>
        <time>2014-11-23T09:50:14Z</time>
      </trkpt>
      <trkpt lat="44.85231" lon="5.26069">
        <ele>1268.6</ele>
        <time>2014-11-23T09:50:27Z</time>
      </trkpt>
      <trkpt lat="44.8522" lon="5.2607">
        <ele>1270.52</ele>
        <time>2014-11-23T09:50:41Z</time>
      </trkpt>
      <trkpt lat="44.8521" lon="5.2607">
        <ele>1271.48</ele>
        <time>2014-11-23T09:50:53Z</time>
      </trkpt>
      <trkpt lat="44.852" lon="5.26067">
        <ele>1272.92</ele>
        <time>2014-11-23T09:51:05Z</time>
      </trkpt>
      <trkpt lat="44.85202" lon="5.2606">
        <ele>1274.36</ele>
        <time>2014-11-23T09:51:14Z</time>
      </trkpt>
      <trkpt lat="44.85212" lon="5.26058">
        <ele>1276.29</ele>
        <time>2014-11-23T09:51:27Z</time>
      </trkpt>
      <trkpt lat="44.85223" lon="5.26052">
        <ele>1278.21</ele>
        <time>2014-11-23T09:51:41Z</time>
      </trkpt>
      <trkpt lat="44.8523" lon="5.26046">
        <ele>1279.65</ele>
        <time>2014-11-23T09:51:53Z</time>
      </trkpt>
      <trkpt lat="44.85238" lon="5.26038">
        <ele>1282.06</ele>
        <time>2014-11-23T09:52:04Z</time>
      </trkpt>
      <trkpt lat="44.85248" lon="5.26036">
        <ele>1284.46</ele>
        <time>2014-11-23T09:52:17Z</time>
      </trkpt>
      <trkpt lat="44.85258" lon="5.26036">
        <ele>1286.38</ele>
        <time>2014-11-23T09:52:30Z</time>
      </trkpt>
      <trkpt lat="44.85267" lon="5.26036">
        <ele>1289.75</ele>
        <time>2014-11-23T09:52:47Z</time>
      </trkpt>
      <trkpt lat="44.85273" lon="5.26036">
        <ele>1292.15</ele>
        <time>2014-11-23T09:52:59Z</time>
      </trkpt>
      <trkpt lat="44.85282" lon="5.26036">
        <ele>1294.07</ele>
        <time>2014-11-23T09:53:12Z</time>
      </trkpt>
      <trkpt lat="44.8529" lon="5.26037">
        <ele>1295.51</ele>
        <time>2014-11-23T09:53:24Z</time>
      </trkpt>
      <trkpt lat="44.85299" lon="5.26039">
        <ele>1297.44</ele>
        <time>2014-11-23T09:53:38Z</time>
      </trkpt>
      <trkpt lat="44.85312" lon="5.26042">
        <ele>1299.36</ele>
        <time>2014-11-23T09:53:52Z</time>
      </trkpt>
      <trkpt lat="44.85322" lon="5.26047">
        <ele>1300.8</ele>
        <time>2014-11-23T09:54:04Z</time>
      </trkpt>
      <trkpt lat="44.85332" lon="5.26048">
        <ele>1301.76</ele>
        <time>2014-11-23T09:54:16Z</time>
      </trkpt>
      <trkpt lat="44.85342" lon="5.26047">
        <ele>1304.65</ele>
        <time>2014-11-23T09:54:30Z</time>
      </trkpt>
      <trkpt lat="44.85347" lon="5.26041">
        <ele>1307.05</ele>
        <time>2014-11-23T09:54:43Z</time>
      </trkpt>
      <trkpt lat="44.85346" lon="5.2604">
        <ele>1307.05</ele>
        <time>2014-11-23T09:54:45Z</time>
      </trkpt>
      <trkpt lat="44.85342" lon="5.2604">
        <ele>1307.05</ele>
        <time>2014-11-23T09:54:50Z</time>
      </trkpt>
      <trkpt lat="44.8533" lon="5.26034">
        <ele>1308.97</ele>
        <time>2014-11-23T09:55:05Z</time>
      </trkpt>
      <trkpt lat="44.85329" lon="5.26033">
        <ele>1309.45</ele>
        <time>2014-11-23T09:55:06Z</time>
      </trkpt>
      <trkpt lat="44.8532" lon="5.26024">
        <ele>1309.93</ele>
        <time>2014-11-23T09:55:18Z</time>
      </trkpt>
      <trkpt lat="44.85311" lon="5.26017">
        <ele>1312.34</ele>
        <time>2014-11-23T09:55:31Z</time>
      </trkpt>
      <trkpt lat="44.85303" lon="5.26008">
        <ele>1314.26</ele>
        <time>2014-11-23T09:55:46Z</time>
      </trkpt>
      <trkpt lat="44.85292" lon="5.26001">
        <ele>1316.18</ele>
        <time>2014-11-23T09:55:59Z</time>
      </trkpt>
      <trkpt lat="44.85283" lon="5.2599">
        <ele>1318.59</ele>
        <time>2014-11-23T09:56:14Z</time>
      </trkpt>
      <trkpt lat="44.85276" lon="5.25983">
        <ele>1319.55</ele>
        <time>2014-11-23T09:56:22Z</time>
      </trkpt>
      <trkpt lat="44.8527" lon="5.25978">
        <ele>1321.47</ele>
        <time>2014-11-23T09:56:30Z</time>
      </trkpt>
      <trkpt lat="44.85262" lon="5.25968">
        <ele>1323.87</ele>
        <time>2014-11-23T09:56:43Z</time>
      </trkpt>
      <trkpt lat="44.85253" lon="5.25959">
        <ele>1325.8</ele>
        <time>2014-11-23T09:56:57Z</time>
      </trkpt>
      <trkpt lat="44.85243" lon="5.25947">
        <ele>1327.72</ele>
        <time>2014-11-23T09:57:12Z</time>
      </trkpt>
      <trkpt lat="44.85235" lon="5.25936">
        <ele>1329.64</ele>
        <time>2014-11-23T09:57:25Z</time>
      </trkpt>
      <trkpt lat="44.85241" lon="5.2593">
        <ele>1331.56</ele>
        <time>2014-11-23T09:57:36Z</time>
      </trkpt>
      <trkpt lat="44.85249" lon="5.25934">
        <ele>1333.49</ele>
        <time>2014-11-23T09:57:49Z</time>
      </trkpt>
      <trkpt lat="44.85259" lon="5.25937">
        <ele>1334.93</ele>
        <time>2014-11-23T09:58:01Z</time>
      </trkpt>
      <trkpt lat="44.85268" lon="5.25938">
        <ele>1337.33</ele>
        <time>2014-11-23T09:58:15Z</time>
      </trkpt>
      <trkpt lat="44.85277" lon="5.25939">
        <ele>1340.22</ele>
        <time>2014-11-23T09:58:30Z</time>
      </trkpt>
      <trkpt lat="44.85285" lon="5.25941">
        <ele>1342.14</ele>
        <time>2014-11-23T09:58:45Z</time>
      </trkpt>
      <trkpt lat="44.85294" lon="5.25941">
        <ele>1344.06</ele>
        <time>2014-11-23T09:59:00Z</time>
      </trkpt>
      <trkpt lat="44.85304" lon="5.25941">
        <ele>1347.43</ele>
        <time>2014-11-23T09:59:15Z</time>
      </trkpt>
      <trkpt lat="44.85316" lon="5.25939">
        <ele>1350.31</ele>
        <time>2014-11-23T09:59:33Z</time>
      </trkpt>
      <trkpt lat="44.85325" lon="5.25941">
        <ele>1353.67</ele>
        <time>2014-11-23T09:59:50Z</time>
      </trkpt>
      <trkpt lat="44.85329" lon="5.25941">
        <ele>1354.63</ele>
        <time>2014-11-23T09:59:57Z</time>
      </trkpt>
      <trkpt lat="44.85339" lon="5.25941">
        <ele>1357.04</ele>
        <time>2014-11-23T10:00:10Z</time>
      </trkpt>
      <trkpt lat="44.85351" lon="5.25947">
        <ele>1357.04</ele>
        <time>2014-11-23T10:00:23Z</time>
      </trkpt>
      <trkpt lat="44.85354" lon="5.2595">
        <ele>1357.52</ele>
        <time>2014-11-23T10:00:27Z</time>
      </trkpt>
      <trkpt lat="44.85365" lon="5.25957">
        <ele>1357.52</ele>
        <time>2014-11-23T10:00:39Z</time>
      </trkpt>
      <trkpt lat="44.85377" lon="5.25966">
        <ele>1358.96</ele>
        <time>2014-11-23T10:00:53Z</time>
      </trkpt>
      <trkpt lat="44.85386" lon="5.25968">
        <ele>1361.36</ele>
        <time>2014-11-23T10:01:06Z</time>
      </trkpt>
      <trkpt lat="44.85397" lon="5.25969">
        <ele>1364.25</ele>
        <time>2014-11-23T10:01:22Z</time>
      </trkpt>
      <trkpt lat="44.85407" lon="5.25969">
        <ele>1367.61</ele>
        <time>2014-11-23T10:01:39Z</time>
      </trkpt>
      <trkpt lat="44.85422" lon="5.25973">
        <ele>1370.02</ele>
        <time>2014-11-23T10:01:54Z</time>
      </trkpt>
      <trkpt lat="44.85431" lon="5.25978">
        <ele>1372.42</ele>
        <time>2014-11-23T10:02:07Z</time>
      </trkpt>
      <trkpt lat="44.85441" lon="5.25984">
        <ele>1374.34</ele>
        <time>2014-11-23T10:02:21Z</time>
      </trkpt>
      <trkpt lat="44.85449" lon="5.2599">
        <ele>1376.26</ele>
        <time>2014-11-23T10:02:34Z</time>
      </trkpt>
      <trkpt lat="44.85457" lon="5.25997">
        <ele>1378.67</ele>
        <time>2014-11-23T10:02:48Z</time>
      </trkpt>
      <trkpt lat="44.85464" lon="5.26002">
        <ele>1381.07</ele>
        <time>2014-11-23T10:03:01Z</time>
      </trkpt>
      <trkpt lat="44.85475" lon="5.26006">
        <ele>1384.44</ele>
        <time>2014-11-23T10:03:18Z</time>
      </trkpt>
      <trkpt lat="44.85485" lon="5.26008">
        <ele>1386.36</ele>
        <time>2014-11-23T10:03:32Z</time>
      </trkpt>
      <trkpt lat="44.85497" lon="5.26008">
        <ele>1388.76</ele>
        <time>2014-11-23T10:03:48Z</time>
      </trkpt>
      <trkpt lat="44.85508" lon="5.26007">
        <ele>1391.17</ele>
        <time>2014-11-23T10:04:03Z</time>
      </trkpt>
      <trkpt lat="44.85518" lon="5.26006">
        <ele>1393.09</ele>
        <time>2014-11-23T10:04:17Z</time>
      </trkpt>
      <trkpt lat="44.85521" lon="5.26005">
        <ele>1393.57</ele>
        <time>2014-11-23T10:04:21Z</time>
      </trkpt>
      <trkpt lat="44.85533" lon="5.25998">
        <ele>1395.97</ele>
        <time>2014-11-23T10:04:36Z</time>
      </trkpt>
      <trkpt lat="44.85542" lon="5.25991">
        <ele>1397.89</ele>
        <time>2014-11-23T10:04:52Z</time>
      </trkpt>
      <trkpt lat="44.85543" lon="5.25989">
        <ele>1398.37</ele>
        <time>2014-11-23T10:05:11Z</time>
      </trkpt>
      <trkpt lat="44.85542" lon="5.25992">
        <ele>1398.86</ele>
        <time>2014-11-23T10:05:34Z</time>
      </trkpt>
      <trkpt lat="44.85549" lon="5.25994">
        <ele>1399.82</ele>
        <time>2014-11-23T10:05:40Z</time>
      </trkpt>
      <trkpt lat="44.85551" lon="5.25996">
        <ele>1400.3</ele>
        <time>2014-11-23T10:05:42Z</time>
      </trkpt>
      <trkpt lat="44.85555" lon="5.2601">
        <ele>1401.74</ele>
        <time>2014-11-23T10:05:54Z</time>
      </trkpt>
      <trkpt lat="44.85553" lon="5.26011">
        <ele>1400.3</ele>
        <time>2014-11-23T10:06:25Z</time>
      </trkpt>
      <trkpt lat="44.85553" lon="5.26009">
        <ele>1401.74</ele>
        <time>2014-11-23T10:06:45Z</time>
      </trkpt>
      <trkpt lat="44.85549" lon="5.25996">
        <ele>1400.3</ele>
        <time>2014-11-23T10:07:00Z</time>
      </trkpt>
      <trkpt lat="44.8555" lon="5.25996">
        <ele>1399.82</ele>
        <time>2014-11-23T10:07:24Z</time>
      </trkpt>
      <trkpt lat="44.85547" lon="5.25994">
        <ele>1399.82</ele>
        <time>2014-11-23T10:07:49Z</time>
      </trkpt>
      <trkpt lat="44.85545" lon="5.25992">
        <ele>1400.3</ele>
        <time>2014-11-23T10:07:56Z</time>
      </trkpt>
      <trkpt lat="44.85545" lon="5.25992">
        <ele>1398.86</ele>
        <time>2014-11-23T10:08:20Z</time>
      </trkpt>
      <trkpt lat="44.85546" lon="5.25994">
        <ele>1398.86</ele>
        <time>2014-11-23T10:08:34Z</time>
      </trkpt>
      <trkpt lat="44.85548" lon="5.25996">
        <ele>1400.3</ele>
        <time>2014-11-23T10:08:38Z</time>
      </trkpt>
      <trkpt lat="44.85547" lon="5.25993">
        <ele>1400.3</ele>
        <time>2014-11-23T10:08:56Z</time>
      </trkpt>
      <trkpt lat="44.85547" lon="5.25992">
        <ele>1400.3</ele>
        <time>2014-11-23T10:09:23Z</time>
      </trkpt>
      <trkpt lat="44.85547" lon="5.25992">
        <ele>1400.3</ele>
        <time>2014-11-23T10:09:54Z</time>
      </trkpt>
      <trkpt lat="44.85547" lon="5.25993">
        <ele>1400.3</ele>
        <time>2014-11-23T10:10:20Z</time>
      </trkpt>
      <trkpt lat="44.85545" lon="5.25991">
        <ele>1400.3</ele>
        <time>2014-11-23T10:10:37Z</time>
      </trkpt>
      <trkpt lat="44.85543" lon="5.25988">
        <ele>1400.3</ele>
        <time>2014-11-23T10:11:17Z</time>
      </trkpt>
      <trkpt lat="44.85543" lon="5.25988">
        <ele>1400.78</ele>
        <time>2014-11-23T10:11:31Z</time>
      </trkpt>
      <trkpt lat="44.85541" lon="5.25987">
        <ele>1399.34</ele>
        <time>2014-11-23T10:11:38Z</time>
      </trkpt>
      <trkpt lat="44.85532" lon="5.2598">
        <ele>1399.34</ele>
        <time>2014-11-23T10:11:52Z</time>
      </trkpt>
      <trkpt lat="44.85527" lon="5.25975">
        <ele>1399.34</ele>
        <time>2014-11-23T10:12:03Z</time>
      </trkpt>
      <trkpt lat="44.85516" lon="5.25967">
        <ele>1400.3</ele>
        <time>2014-11-23T10:12:16Z</time>
      </trkpt>
      <trkpt lat="44.85509" lon="5.25964">
        <ele>1400.78</ele>
        <time>2014-11-23T10:12:25Z</time>
      </trkpt>
      <trkpt lat="44.85499" lon="5.25955">
        <ele>1401.26</ele>
        <time>2014-11-23T10:12:37Z</time>
      </trkpt>
      <trkpt lat="44.85487" lon="5.25946">
        <ele>1401.74</ele>
        <time>2014-11-23T10:12:51Z</time>
      </trkpt>
      <trkpt lat="44.85476" lon="5.25938">
        <ele>1402.22</ele>
        <time>2014-11-23T10:13:04Z</time>
      </trkpt>
      <trkpt lat="44.85464" lon="5.25929">
        <ele>1402.7</ele>
        <time>2014-11-23T10:13:17Z</time>
      </trkpt>
      <trkpt lat="44.85456" lon="5.25922">
        <ele>1403.18</ele>
        <time>2014-11-23T10:13:29Z</time>
      </trkpt>
      <trkpt lat="44.85449" lon="5.25916">
        <ele>1404.14</ele>
        <time>2014-11-23T10:13:38Z</time>
      </trkpt>
      <trkpt lat="44.85439" lon="5.25907">
        <ele>1404.62</ele>
        <time>2014-11-23T10:13:51Z</time>
      </trkpt>
      <trkpt lat="44.85425" lon="5.25896">
        <ele>1406.07</ele>
        <time>2014-11-23T10:14:08Z</time>
      </trkpt>
      <trkpt lat="44.85414" lon="5.25887">
        <ele>1406.55</ele>
        <time>2014-11-23T10:14:21Z</time>
      </trkpt>
      <trkpt lat="44.85405" lon="5.25879">
        <ele>1407.51</ele>
        <time>2014-11-23T10:14:32Z</time>
      </trkpt>
      <trkpt lat="44.85395" lon="5.25867">
        <ele>1408.95</ele>
        <time>2014-11-23T10:14:47Z</time>
      </trkpt>
      <trkpt lat="44.85386" lon="5.2585">
        <ele>1410.87</ele>
        <time>2014-11-23T10:15:05Z</time>
      </trkpt>
      <trkpt lat="44.8538" lon="5.25836">
        <ele>1412.31</ele>
        <time>2014-11-23T10:15:19Z</time>
      </trkpt>
      <trkpt lat="44.85374" lon="5.25823">
        <ele>1414.24</ele>
        <time>2014-11-23T10:15:33Z</time>
      </trkpt>
      <trkpt lat="44.85368" lon="5.25811">
        <ele>1417.12</ele>
        <time>2014-11-23T10:15:50Z</time>
      </trkpt>
      <trkpt lat="44.85365" lon="5.25806">
        <ele>1418.08</ele>
        <time>2014-11-23T10:15:56Z</time>
      </trkpt>
      <trkpt lat="44.85362" lon="5.25799">
        <ele>1419.52</ele>
        <time>2014-11-23T10:16:05Z</time>
      </trkpt>
      <trkpt lat="44.85357" lon="5.25788">
        <ele>1421.93</ele>
        <time>2014-11-23T10:16:18Z</time>
      </trkpt>
      <trkpt lat="44.85351" lon="5.25777">
        <ele>1423.37</ele>
        <time>2014-11-23T10:16:31Z</time>
      </trkpt>
      <trkpt lat="44.85349" lon="5.25769">
        <ele>1426.25</ele>
        <time>2014-11-23T10:16:42Z</time>
      </trkpt>
      <trkpt lat="44.85343" lon="5.25757">
        <ele>1428.18</ele>
        <time>2014-11-23T10:16:56Z</time>
      </trkpt>
      <trkpt lat="44.8534" lon="5.25748">
        <ele>1430.1</ele>
        <time>2014-11-23T10:17:08Z</time>
      </trkpt>
      <trkpt lat="44.85344" lon="5.25744">
        <ele>1431.06</ele>
        <time>2014-11-23T10:17:14Z</time>
      </trkpt>
      <trkpt lat="44.85347" lon="5.2574">
        <ele>1430.58</ele>
        <time>2014-11-23T10:17:18Z</time>
      </trkpt>
      <trkpt lat="44.85355" lon="5.25727">
        <ele>1431.54</ele>
        <time>2014-11-23T10:17:31Z</time>
      </trkpt>
      <trkpt lat="44.85358" lon="5.25724">
        <ele>1431.54</ele>
        <time>2014-11-23T10:17:34Z</time>
      </trkpt>
      <trkpt lat="44.85368" lon="5.25712">
        <ele>1430.58</ele>
        <time>2014-11-23T10:17:49Z</time>
      </trkpt>
      <trkpt lat="44.8537" lon="5.2571">
        <ele>1430.58</ele>
        <time>2014-11-23T10:17:52Z</time>
      </trkpt>
      <trkpt lat="44.85379" lon="5.25698">
        <ele>1432.02</ele>
        <time>2014-11-23T10:18:05Z</time>
      </trkpt>
      <trkpt lat="44.85387" lon="5.25687">
        <ele>1432.02</ele>
        <time>2014-11-23T10:18:17Z</time>
      </trkpt>
      <trkpt lat="44.85395" lon="5.25677">
        <ele>1433.46</ele>
        <time>2014-11-23T10:18:29Z</time>
      </trkpt>
      <trkpt lat="44.85403" lon="5.25665">
        <ele>1433.94</ele>
        <time>2014-11-23T10:18:42Z</time>
      </trkpt>
      <trkpt lat="44.85407" lon="5.25655">
        <ele>1434.42</ele>
        <time>2014-11-23T10:18:56Z</time>
      </trkpt>
      <trkpt lat="44.85417" lon="5.25644">
        <ele>1435.87</ele>
        <time>2014-11-23T10:19:12Z</time>
      </trkpt>
      <trkpt lat="44.85428" lon="5.25634">
        <ele>1436.35</ele>
        <time>2014-11-23T10:19:26Z</time>
      </trkpt>
      <trkpt lat="44.85435" lon="5.25624">
        <ele>1438.27</ele>
        <time>2014-11-23T10:19:39Z</time>
      </trkpt>
      <trkpt lat="44.85445" lon="5.25612">
        <ele>1439.71</ele>
        <time>2014-11-23T10:19:53Z</time>
      </trkpt>
      <trkpt lat="44.85455" lon="5.25603">
        <ele>1442.11</ele>
        <time>2014-11-23T10:20:08Z</time>
      </trkpt>
      <trkpt lat="44.85464" lon="5.25596">
        <ele>1444.52</ele>
        <time>2014-11-23T10:20:20Z</time>
      </trkpt>
      <trkpt lat="44.85471" lon="5.25588">
        <ele>1445.48</ele>
        <time>2014-11-23T10:20:34Z</time>
      </trkpt>
      <trkpt lat="44.85479" lon="5.25585">
        <ele>1447.4</ele>
        <time>2014-11-23T10:20:46Z</time>
      </trkpt>
      <trkpt lat="44.8549" lon="5.25581">
        <ele>1450.29</ele>
        <time>2014-11-23T10:21:02Z</time>
      </trkpt>
      <trkpt lat="44.85498" lon="5.25578">
        <ele>1452.21</ele>
        <time>2014-11-23T10:21:15Z</time>
      </trkpt>
      <trkpt lat="44.85507" lon="5.25572">
        <ele>1455.57</ele>
        <time>2014-11-23T10:21:28Z</time>
      </trkpt>
      <trkpt lat="44.85515" lon="5.25563">
        <ele>1457.98</ele>
        <time>2014-11-23T10:21:42Z</time>
      </trkpt>
      <trkpt lat="44.85522" lon="5.25558">
        <ele>1461.34</ele>
        <time>2014-11-23T10:21:55Z</time>
      </trkpt>
      <trkpt lat="44.85529" lon="5.25549">
        <ele>1463.74</ele>
        <time>2014-11-23T10:22:08Z</time>
      </trkpt>
      <trkpt lat="44.85536" lon="5.2554">
        <ele>1466.15</ele>
        <time>2014-11-23T10:22:22Z</time>
      </trkpt>
      <trkpt lat="44.85542" lon="5.25532">
        <ele>1469.03</ele>
        <time>2014-11-23T10:22:35Z</time>
      </trkpt>
      <trkpt lat="44.8555" lon="5.25521">
        <ele>1471.44</ele>
        <time>2014-11-23T10:22:50Z</time>
      </trkpt>
      <trkpt lat="44.85557" lon="5.25512">
        <ele>1472.88</ele>
        <time>2014-11-23T10:23:03Z</time>
      </trkpt>
      <trkpt lat="44.85562" lon="5.255">
        <ele>1474.8</ele>
        <time>2014-11-23T10:23:17Z</time>
      </trkpt>
      <trkpt lat="44.85569" lon="5.25486">
        <ele>1478.16</ele>
        <time>2014-11-23T10:23:33Z</time>
      </trkpt>
      <trkpt lat="44.85576" lon="5.25476">
        <ele>1479.61</ele>
        <time>2014-11-23T10:23:46Z</time>
      </trkpt>
      <trkpt lat="44.85579" lon="5.25472">
        <ele>1480.09</ele>
        <time>2014-11-23T10:23:50Z</time>
      </trkpt>
      <trkpt lat="44.85584" lon="5.25465">
        <ele>1480.09</ele>
        <time>2014-11-23T10:23:58Z</time>
      </trkpt>
      <trkpt lat="44.85593" lon="5.2545">
        <ele>1482.49</ele>
        <time>2014-11-23T10:24:14Z</time>
      </trkpt>
      <trkpt lat="44.85601" lon="5.25436">
        <ele>1485.37</ele>
        <time>2014-11-23T10:24:28Z</time>
      </trkpt>
      <trkpt lat="44.8561" lon="5.25422">
        <ele>1487.78</ele>
        <time>2014-11-23T10:24:44Z</time>
      </trkpt>
      <trkpt lat="44.85619" lon="5.25413">
        <ele>1488.74</ele>
        <time>2014-11-23T10:24:57Z</time>
      </trkpt>
      <trkpt lat="44.85621" lon="5.2541">
        <ele>1489.7</ele>
        <time>2014-11-23T10:25:00Z</time>
      </trkpt>
      <trkpt lat="44.85632" lon="5.254">
        <ele>1490.66</ele>
        <time>2014-11-23T10:25:14Z</time>
      </trkpt>
      <trkpt lat="44.85642" lon="5.2539">
        <ele>1492.58</ele>
        <time>2014-11-23T10:25:28Z</time>
      </trkpt>
      <trkpt lat="44.85652" lon="5.25377">
        <ele>1493.55</ele>
        <time>2014-11-23T10:25:42Z</time>
      </trkpt>
      <trkpt lat="44.85658" lon="5.25367">
        <ele>1493.55</ele>
        <time>2014-11-23T10:25:51Z</time>
      </trkpt>
      <trkpt lat="44.85668" lon="5.25357">
        <ele>1494.51</ele>
        <time>2014-11-23T10:26:05Z</time>
      </trkpt>
      <trkpt lat="44.85679" lon="5.25348">
        <ele>1496.43</ele>
        <time>2014-11-23T10:26:19Z</time>
      </trkpt>
      <trkpt lat="44.85689" lon="5.25337">
        <ele>1495.95</ele>
        <time>2014-11-23T10:26:33Z</time>
      </trkpt>
      <trkpt lat="44.85697" lon="5.25331">
        <ele>1498.35</ele>
        <time>2014-11-23T10:26:43Z</time>
      </trkpt>
      <trkpt lat="44.857" lon="5.2533">
        <ele>1498.83</ele>
        <time>2014-11-23T10:26:46Z</time>
      </trkpt>
      <trkpt lat="44.8571" lon="5.25322">
        <ele>1500.27</ele>
        <time>2014-11-23T10:26:59Z</time>
      </trkpt>
      <trkpt lat="44.85722" lon="5.2532">
        <ele>1501.24</ele>
        <time>2014-11-23T10:27:13Z</time>
      </trkpt>
      <trkpt lat="44.85734" lon="5.2532">
        <ele>1502.68</ele>
        <time>2014-11-23T10:27:28Z</time>
      </trkpt>
      <trkpt lat="44.85736" lon="5.25319">
        <ele>1503.16</ele>
        <time>2014-11-23T10:27:30Z</time>
      </trkpt>
      <trkpt lat="44.85745" lon="5.25317">
        <ele>1503.16</ele>
        <time>2014-11-23T10:27:42Z</time>
      </trkpt>
      <trkpt lat="44.85756" lon="5.25315">
        <ele>1500.76</ele>
        <time>2014-11-23T10:27:55Z</time>
      </trkpt>
      <trkpt lat="44.85758" lon="5.25315">
        <ele>1499.79</ele>
        <time>2014-11-23T10:27:57Z</time>
      </trkpt>
      <trkpt lat="44.85762" lon="5.25312">
        <ele>1501.24</ele>
        <time>2014-11-23T10:28:09Z</time>
      </trkpt>
      <trkpt lat="44.85777" lon="5.25308">
        <ele>1500.27</ele>
        <time>2014-11-23T10:28:23Z</time>
      </trkpt>
      <trkpt lat="44.85783" lon="5.25306">
        <ele>1498.35</ele>
        <time>2014-11-23T10:28:36Z</time>
      </trkpt>
      <trkpt lat="44.85784" lon="5.25306">
        <ele>1499.79</ele>
        <time>2014-11-23T10:28:40Z</time>
      </trkpt>
      <trkpt lat="44.85784" lon="5.25307">
        <ele>1497.39</ele>
        <time>2014-11-23T10:29:05Z</time>
      </trkpt>
      <trkpt lat="44.85784" lon="5.25305">
        <ele>1498.35</ele>
        <time>2014-11-23T10:29:20Z</time>
      </trkpt>
      <trkpt lat="44.85784" lon="5.25305">
        <ele>1498.35</ele>
        <time>2014-11-23T10:29:45Z</time>
      </trkpt>
      <trkpt lat="44.85785" lon="5.25305">
        <ele>1499.31</ele>
        <time>2014-11-23T10:30:07Z</time>
      </trkpt>
      <trkpt lat="44.85785" lon="5.25305">
        <ele>1499.31</ele>
        <time>2014-11-23T10:30:32Z</time>
      </trkpt>
      <trkpt lat="44.85785" lon="5.25305">
        <ele>1499.79</ele>
        <time>2014-11-23T10:30:42Z</time>
      </trkpt>
      <trkpt lat="44.85786" lon="5.25306">
        <ele>1499.79</ele>
        <time>2014-11-23T10:30:52Z</time>
      </trkpt>
      <trkpt lat="44.85785" lon="5.25306">
        <ele>1500.76</ele>
        <time>2014-11-23T10:31:13Z</time>
      </trkpt>
      <trkpt lat="44.85786" lon="5.25306">
        <ele>1499.31</ele>
        <time>2014-11-23T10:31:25Z</time>
      </trkpt>
      <trkpt lat="44.85785" lon="5.25307">
        <ele>1498.83</ele>
        <time>2014-11-23T10:31:52Z</time>
      </trkpt>
      <trkpt lat="44.85775" lon="5.2531">
        <ele>1497.87</ele>
        <time>2014-11-23T10:32:05Z</time>
      </trkpt>
      <trkpt lat="44.85773" lon="5.2531">
        <ele>1497.87</ele>
        <time>2014-11-23T10:32:07Z</time>
      </trkpt>
      <trkpt lat="44.85765" lon="5.25312">
        <ele>1499.79</ele>
        <time>2014-11-23T10:32:17Z</time>
      </trkpt>
      <trkpt lat="44.85754" lon="5.25315">
        <ele>1501.24</ele>
        <time>2014-11-23T10:32:28Z</time>
      </trkpt>
      <trkpt lat="44.85741" lon="5.25318">
        <ele>1502.2</ele>
        <time>2014-11-23T10:32:41Z</time>
      </trkpt>
      <trkpt lat="44.85732" lon="5.25319">
        <ele>1501.24</ele>
        <time>2014-11-23T10:32:50Z</time>
      </trkpt>
      <trkpt lat="44.85719" lon="5.25319">
        <ele>1500.27</ele>
        <time>2014-11-23T10:33:02Z</time>
      </trkpt>
      <trkpt lat="44.85707" lon="5.25321">
        <ele>1500.76</ele>
        <time>2014-11-23T10:33:12Z</time>
      </trkpt>
      <trkpt lat="44.85704" lon="5.2532">
        <ele>1500.76</ele>
        <time>2014-11-23T10:33:15Z</time>
      </trkpt>
      <trkpt lat="44.85688" lon="5.25324">
        <ele>1498.35</ele>
        <time>2014-11-23T10:33:28Z</time>
      </trkpt>
      <trkpt lat="44.85684" lon="5.25325">
        <ele>1498.35</ele>
        <time>2014-11-23T10:33:32Z</time>
      </trkpt>
      <trkpt lat="44.85677" lon="5.25321">
        <ele>1494.99</ele>
        <time>2014-11-23T10:33:45Z</time>
      </trkpt>
      <trkpt lat="44.85674" lon="5.2532">
        <ele>1494.03</ele>
        <time>2014-11-23T10:33:51Z</time>
      </trkpt>
      <trkpt lat="44.85668" lon="5.2532">
        <ele>1491.62</ele>
        <time>2014-11-23T10:34:02Z</time>
      </trkpt>
      <trkpt lat="44.8566" lon="5.25323">
        <ele>1490.18</ele>
        <time>2014-11-23T10:34:14Z</time>
      </trkpt>
      <trkpt lat="44.85651" lon="5.25324">
        <ele>1487.3</ele>
        <time>2014-11-23T10:34:28Z</time>
      </trkpt>
      <trkpt lat="44.85649" lon="5.25325">
        <ele>1486.34</ele>
        <time>2014-11-23T10:34:30Z</time>
      </trkpt>
      <trkpt lat="44.85646" lon="5.25324">
        <ele>1486.34</ele>
        <time>2014-11-23T10:34:34Z</time>
      </trkpt>
      <trkpt lat="44.85644" lon="5.25324">
        <ele>1485.37</ele>
        <time>2014-11-23T10:34:36Z</time>
      </trkpt>
      <trkpt lat="44.85642" lon="5.25324">
        <ele>1484.89</ele>
        <time>2014-11-23T10:34:38Z</time>
      </trkpt>
      <trkpt lat="44.85633" lon="5.25326">
        <ele>1482.49</ele>
        <time>2014-11-23T10:34:53Z</time>
      </trkpt>
      <trkpt lat="44.85624" lon="5.25327">
        <ele>1481.05</ele>
        <time>2014-11-23T10:35:08Z</time>
      </trkpt>
      <trkpt lat="44.85613" lon="5.25327">
        <ele>1478.65</ele>
        <time>2014-11-23T10:35:20Z</time>
      </trkpt>
      <trkpt lat="44.85605" lon="5.25326">
        <ele>1476.24</ele>
        <time>2014-11-23T10:35:29Z</time>
      </trkpt>
      <trkpt lat="44.85602" lon="5.25325">
        <ele>1474.8</ele>
        <time>2014-11-23T10:35:32Z</time>
      </trkpt>
      <trkpt lat="44.85593" lon="5.25326">
        <ele>1471.92</ele>
        <time>2014-11-23T10:35:43Z</time>
      </trkpt>
      <trkpt lat="44.85587" lon="5.25326">
        <ele>1471.44</ele>
        <time>2014-11-23T10:35:55Z</time>
      </trkpt>
      <trkpt lat="44.85583" lon="5.25326">
        <ele>1469.99</ele>
        <time>2014-11-23T10:36:01Z</time>
      </trkpt>
      <trkpt lat="44.85574" lon="5.25327">
        <ele>1468.07</ele>
        <time>2014-11-23T10:36:14Z</time>
      </trkpt>
      <trkpt lat="44.8557" lon="5.25323">
        <ele>1466.15</ele>
        <time>2014-11-23T10:36:25Z</time>
      </trkpt>
      <trkpt lat="44.85569" lon="5.25317">
        <ele>1464.23</ele>
        <time>2014-11-23T10:36:38Z</time>
      </trkpt>
      <trkpt lat="44.85568" lon="5.25316">
        <ele>1463.26</ele>
        <time>2014-11-23T10:36:40Z</time>
      </trkpt>
      <trkpt lat="44.85572" lon="5.25308">
        <ele>1461.82</ele>
        <time>2014-11-23T10:36:53Z</time>
      </trkpt>
      <trkpt lat="44.85574" lon="5.25303">
        <ele>1458.94</ele>
        <time>2014-11-23T10:36:59Z</time>
      </trkpt>
      <trkpt lat="44.85575" lon="5.25302">
        <ele>1458.94</ele>
        <time>2014-11-23T10:37:00Z</time>
      </trkpt>
      <trkpt lat="44.85578" lon="5.25297">
        <ele>1457.5</ele>
        <time>2014-11-23T10:37:11Z</time>
      </trkpt>
      <trkpt lat="44.85579" lon="5.25292">
        <ele>1455.57</ele>
        <time>2014-11-23T10:37:26Z</time>
      </trkpt>
      <trkpt lat="44.85578" lon="5.25289">
        <ele>1455.09</ele>
        <time>2014-11-23T10:37:40Z</time>
      </trkpt>
      <trkpt lat="44.85577" lon="5.25285">
        <ele>1451.25</ele>
        <time>2014-11-23T10:37:53Z</time>
      </trkpt>
      <trkpt lat="44.85572" lon="5.25284">
        <ele>1448.84</ele>
        <time>2014-11-23T10:38:07Z</time>
      </trkpt>
      <trkpt lat="44.8557" lon="5.25281">
        <ele>1447.88</ele>
        <time>2014-11-23T10:38:24Z</time>
      </trkpt>
      <trkpt lat="44.85568" lon="5.25279">
        <ele>1445</ele>
        <time>2014-11-23T10:38:33Z</time>
      </trkpt>
      <trkpt lat="44.85567" lon="5.25276">
        <ele>1445.96</ele>
        <time>2014-11-23T10:38:36Z</time>
      </trkpt>
      <trkpt lat="44.85565" lon="5.25276">
        <ele>1444.04</ele>
        <time>2014-11-23T10:38:40Z</time>
      </trkpt>
      <trkpt lat="44.85559" lon="5.25275">
        <ele>1441.63</ele>
        <time>2014-11-23T10:38:53Z</time>
      </trkpt>
      <trkpt lat="44.85558" lon="5.25275">
        <ele>1441.63</ele>
        <time>2014-11-23T10:38:59Z</time>
      </trkpt>
      <trkpt lat="44.85551" lon="5.25273">
        <ele>1438.75</ele>
        <time>2014-11-23T10:39:15Z</time>
      </trkpt>
      <trkpt lat="44.85545" lon="5.25272">
        <ele>1436.83</ele>
        <time>2014-11-23T10:39:28Z</time>
      </trkpt>
      <trkpt lat="44.85538" lon="5.2527">
        <ele>1434.42</ele>
        <time>2014-11-23T10:39:40Z</time>
      </trkpt>
      <trkpt lat="44.85529" lon="5.25267">
        <ele>1431.54</ele>
        <time>2014-11-23T10:39:53Z</time>
      </trkpt>
      <trkpt lat="44.85521" lon="5.25264">
        <ele>1428.18</ele>
        <time>2014-11-23T10:40:06Z</time>
      </trkpt>
      <trkpt lat="44.85514" lon="5.2526">
        <ele>1425.77</ele>
        <time>2014-11-23T10:40:18Z</time>
      </trkpt>
      <trkpt lat="44.85511" lon="5.25252">
        <ele>1422.41</ele>
        <time>2014-11-23T10:40:29Z</time>
      </trkpt>
      <trkpt lat="44.85508" lon="5.25241">
        <ele>1418.56</ele>
        <time>2014-11-23T10:40:42Z</time>
      </trkpt>
      <trkpt lat="44.85508" lon="5.2523">
        <ele>1415.2</ele>
        <time>2014-11-23T10:40:54Z</time>
      </trkpt>
      <trkpt lat="44.8551" lon="5.2522">
        <ele>1411.83</ele>
        <time>2014-11-23T10:41:06Z</time>
      </trkpt>
      <trkpt lat="44.85512" lon="5.25211">
        <ele>1408.95</ele>
        <time>2014-11-23T10:41:16Z</time>
      </trkpt>
      <trkpt lat="44.85518" lon="5.25207">
        <ele>1407.51</ele>
        <time>2014-11-23T10:41:28Z</time>
      </trkpt>
      <trkpt lat="44.85522" lon="5.25199">
        <ele>1406.55</ele>
        <time>2014-11-23T10:41:41Z</time>
      </trkpt>
      <trkpt lat="44.85527" lon="5.25197">
        <ele>1407.03</ele>
        <time>2014-11-23T10:41:58Z</time>
      </trkpt>
      <trkpt lat="44.85528" lon="5.25204">
        <ele>1408.47</ele>
        <time>2014-11-23T10:42:13Z</time>
      </trkpt>
      <trkpt lat="44.85529" lon="5.25202">
        <ele>1408.95</ele>
        <time>2014-11-23T10:42:30Z</time>
      </trkpt>
      <trkpt lat="44.85527" lon="5.25201">
        <ele>1408.95</ele>
        <time>2014-11-23T10:43:01Z</time>
      </trkpt>
      <trkpt lat="44.85526" lon="5.25202">
        <ele>1408.95</ele>
        <time>2014-11-23T10:43:23Z</time>
      </trkpt>
      <trkpt lat="44.85526" lon="5.25199">
        <ele>1407.51</ele>
        <time>2014-11-23T10:43:54Z</time>
      </trkpt>
      <trkpt lat="44.85526" lon="5.252">
        <ele>1407.99</ele>
        <time>2014-11-23T10:44:18Z</time>
      </trkpt>
      <trkpt lat="44.85527" lon="5.252">
        <ele>1407.99</ele>
        <time>2014-11-23T10:44:41Z</time>
      </trkpt>
      <trkpt lat="44.85527" lon="5.25199">
        <ele>1407.99</ele>
        <time>2014-11-23T10:45:12Z</time>
      </trkpt>
      <trkpt lat="44.85524" lon="5.25197">
        <ele>1408.95</ele>
        <time>2014-11-23T10:45:41Z</time>
      </trkpt>
      <trkpt lat="44.85522" lon="5.25199">
        <ele>1409.43</ele>
        <time>2014-11-23T10:46:15Z</time>
      </trkpt>
      <trkpt lat="44.85523" lon="5.25201">
        <ele>1409.43</ele>
        <time>2014-11-23T10:46:46Z</time>
      </trkpt>
      <trkpt lat="44.85526" lon="5.25204">
        <ele>1409.91</ele>
        <time>2014-11-23T10:47:17Z</time>
      </trkpt>
      <trkpt lat="44.85527" lon="5.252">
        <ele>1409.91</ele>
        <time>2014-11-23T10:47:47Z</time>
      </trkpt>
      <trkpt lat="44.85528" lon="5.25198">
        <ele>1408.47</ele>
        <time>2014-11-23T10:48:16Z</time>
      </trkpt>
      <trkpt lat="44.85527" lon="5.252">
        <ele>1408.95</ele>
        <time>2014-11-23T10:48:46Z</time>
      </trkpt>
      <trkpt lat="44.85529" lon="5.252">
        <ele>1408.95</ele>
        <time>2014-11-23T10:49:12Z</time>
      </trkpt>
      <trkpt lat="44.85527" lon="5.25199">
        <ele>1408.95</ele>
        <time>2014-11-23T10:49:39Z</time>
      </trkpt>
      <trkpt lat="44.8553" lon="5.25199">
        <ele>1408.47</ele>
        <time>2014-11-23T10:50:12Z</time>
      </trkpt>
      <trkpt lat="44.85528" lon="5.25197">
        <ele>1408.95</ele>
        <time>2014-11-23T10:50:42Z</time>
      </trkpt>
      <trkpt lat="44.85528" lon="5.25196">
        <ele>1408.95</ele>
        <time>2014-11-23T10:51:14Z</time>
      </trkpt>
      <trkpt lat="44.85527" lon="5.25197">
        <ele>1408.95</ele>
        <time>2014-11-23T10:51:47Z</time>
      </trkpt>
      <trkpt lat="44.85525" lon="5.25197">
        <ele>1409.91</ele>
        <time>2014-11-23T10:52:19Z</time>
      </trkpt>
      <trkpt lat="44.85528" lon="5.25198">
        <ele>1409.91</ele>
        <time>2014-11-23T10:52:47Z</time>
      </trkpt>
      <trkpt lat="44.85528" lon="5.25198">
        <ele>1410.39</ele>
        <time>2014-11-23T10:53:18Z</time>
      </trkpt>
      <trkpt lat="44.85529" lon="5.25199">
        <ele>1408.95</ele>
        <time>2014-11-23T10:53:46Z</time>
      </trkpt>
      <trkpt lat="44.85526" lon="5.252">
        <ele>1409.43</ele>
        <time>2014-11-23T10:54:13Z</time>
      </trkpt>
      <trkpt lat="44.85526" lon="5.25202">
        <ele>1409.43</ele>
        <time>2014-11-23T10:54:42Z</time>
      </trkpt>
      <trkpt lat="44.85526" lon="5.25203">
        <ele>1409.43</ele>
        <time>2014-11-23T10:55:05Z</time>
      </trkpt>
      <trkpt lat="44.85525" lon="5.25199">
        <ele>1408.95</ele>
        <time>2014-11-23T10:55:28Z</time>
      </trkpt>
      <trkpt lat="44.85524" lon="5.25199">
        <ele>1408.95</ele>
        <time>2014-11-23T10:55:58Z</time>
      </trkpt>
      <trkpt lat="44.85525" lon="5.25199">
        <ele>1408.95</ele>
        <time>2014-11-23T10:56:25Z</time>
      </trkpt>
      <trkpt lat="44.85523" lon="5.252">
        <ele>1409.43</ele>
        <time>2014-11-23T10:56:50Z</time>
      </trkpt>
      <trkpt lat="44.85522" lon="5.25203">
        <ele>1409.43</ele>
        <time>2014-11-23T10:57:13Z</time>
      </trkpt>
      <trkpt lat="44.85524" lon="5.252">
        <ele>1409.43</ele>
        <time>2014-11-23T10:57:42Z</time>
      </trkpt>
      <trkpt lat="44.85524" lon="5.25201">
        <ele>1410.87</ele>
        <time>2014-11-23T10:58:04Z</time>
      </trkpt>
      <trkpt lat="44.85527" lon="5.25201">
        <ele>1410.87</ele>
        <time>2014-11-23T10:58:39Z</time>
      </trkpt>
      <trkpt lat="44.85525" lon="5.25202">
        <ele>1410.87</ele>
        <time>2014-11-23T10:59:09Z</time>
      </trkpt>
      <trkpt lat="44.85527" lon="5.25201">
        <ele>1409.91</ele>
        <time>2014-11-23T10:59:39Z</time>
      </trkpt>
      <trkpt lat="44.85527" lon="5.252">
        <ele>1409.91</ele>
        <time>2014-11-23T11:00:05Z</time>
      </trkpt>
      <trkpt lat="44.85526" lon="5.25202">
        <ele>1409.91</ele>
        <time>2014-11-23T11:00:32Z</time>
      </trkpt>
      <trkpt lat="44.85525" lon="5.25202">
        <ele>1409.91</ele>
        <time>2014-11-23T11:01:03Z</time>
      </trkpt>
      <trkpt lat="44.85528" lon="5.25202">
        <ele>1409.91</ele>
        <time>2014-11-23T11:01:31Z</time>
      </trkpt>
      <trkpt lat="44.85527" lon="5.25204">
        <ele>1409.91</ele>
        <time>2014-11-23T11:02:01Z</time>
      </trkpt>
      <trkpt lat="44.85525" lon="5.25198">
        <ele>1409.91</ele>
        <time>2014-11-23T11:02:34Z</time>
      </trkpt>
      <trkpt lat="44.85528" lon="5.25197">
        <ele>1409.91</ele>
        <time>2014-11-23T11:03:04Z</time>
      </trkpt>
      <trkpt lat="44.85527" lon="5.252">
        <ele>1411.35</ele>
        <time>2014-11-23T11:03:24Z</time>
      </trkpt>
      <trkpt lat="44.85527" lon="5.25197">
        <ele>1411.35</ele>
        <time>2014-11-23T11:03:59Z</time>
      </trkpt>
      <trkpt lat="44.85528" lon="5.25198">
        <ele>1411.35</ele>
        <time>2014-11-23T11:04:28Z</time>
      </trkpt>
      <trkpt lat="44.85526" lon="5.25199">
        <ele>1411.35</ele>
        <time>2014-11-23T11:04:58Z</time>
      </trkpt>
      <trkpt lat="44.85525" lon="5.25203">
        <ele>1411.83</ele>
        <time>2014-11-23T11:05:28Z</time>
      </trkpt>
      <trkpt lat="44.85526" lon="5.25201">
        <ele>1411.83</ele>
        <time>2014-11-23T11:05:58Z</time>
      </trkpt>
      <trkpt lat="44.85524" lon="5.252">
        <ele>1412.31</ele>
        <time>2014-11-23T11:06:26Z</time>
      </trkpt>
      <trkpt lat="44.85525" lon="5.25201">
        <ele>1412.31</ele>
        <time>2014-11-23T11:06:49Z</time>
      </trkpt>
      <trkpt lat="44.85526" lon="5.25201">
        <ele>1412.31</ele>
        <time>2014-11-23T11:07:16Z</time>
      </trkpt>
      <trkpt lat="44.85526" lon="5.252">
        <ele>1412.31</ele>
        <time>2014-11-23T11:07:40Z</time>
      </trkpt>
      <trkpt lat="44.85527" lon="5.25202">
        <ele>1411.35</ele>
        <time>2014-11-23T11:08:05Z</time>
      </trkpt>
      <trkpt lat="44.85526" lon="5.252">
        <ele>1411.35</ele>
        <time>2014-11-23T11:08:32Z</time>
      </trkpt>
      <trkpt lat="44.85524" lon="5.25198">
        <ele>1411.35</ele>
        <time>2014-11-23T11:09:05Z</time>
      </trkpt>
      <trkpt lat="44.85526" lon="5.25198">
        <ele>1411.35</ele>
        <time>2014-11-23T11:09:36Z</time>
      </trkpt>
      <trkpt lat="44.85526" lon="5.252">
        <ele>1411.35</ele>
        <time>2014-11-23T11:10:10Z</time>
      </trkpt>
      <trkpt lat="44.85525" lon="5.25201">
        <ele>1411.35</ele>
        <time>2014-11-23T11:10:25Z</time>
      </trkpt>
      <trkpt lat="44.85521" lon="5.252">
        <ele>1412.31</ele>
        <time>2014-11-23T11:11:00Z</time>
      </trkpt>
      <trkpt lat="44.85523" lon="5.252">
        <ele>1412.31</ele>
        <time>2014-11-23T11:11:21Z</time>
      </trkpt>
      <trkpt lat="44.85524" lon="5.252">
        <ele>1412.79</ele>
        <time>2014-11-23T11:11:48Z</time>
      </trkpt>
      <trkpt lat="44.85525" lon="5.252">
        <ele>1412.79</ele>
        <time>2014-11-23T11:12:14Z</time>
      </trkpt>
      <trkpt lat="44.85524" lon="5.25201">
        <ele>1412.79</ele>
        <time>2014-11-23T11:12:41Z</time>
      </trkpt>
      <trkpt lat="44.85524" lon="5.25201">
        <ele>1412.79</ele>
        <time>2014-11-23T11:13:00Z</time>
      </trkpt>
      <trkpt lat="44.85524" lon="5.25202">
        <ele>1411.83</ele>
        <time>2014-11-23T11:13:20Z</time>
      </trkpt>
      <trkpt lat="44.85523" lon="5.25205">
        <ele>1411.83</ele>
        <time>2014-11-23T11:13:37Z</time>
      </trkpt>
      <trkpt lat="44.85524" lon="5.25204">
        <ele>1412.79</ele>
        <time>2014-11-23T11:14:00Z</time>
      </trkpt>
      <trkpt lat="44.85523" lon="5.25208">
        <ele>1413.76</ele>
        <time>2014-11-23T11:14:16Z</time>
      </trkpt>
      <trkpt lat="44.85528" lon="5.25206">
        <ele>1413.76</ele>
        <time>2014-11-23T11:14:33Z</time>
      </trkpt>
      <trkpt lat="44.85529" lon="5.25203">
        <ele>1412.31</ele>
        <time>2014-11-23T11:14:52Z</time>
      </trkpt>
      <trkpt lat="44.85529" lon="5.25204">
        <ele>1412.31</ele>
        <time>2014-11-23T11:15:15Z</time>
      </trkpt>
      <trkpt lat="44.85528" lon="5.252">
        <ele>1411.83</ele>
        <time>2014-11-23T11:15:42Z</time>
      </trkpt>
      <trkpt lat="44.85529" lon="5.25199">
        <ele>1411.83</ele>
        <time>2014-11-23T11:16:13Z</time>
      </trkpt>
      <trkpt lat="44.85527" lon="5.252">
        <ele>1411.83</ele>
        <time>2014-11-23T11:16:38Z</time>
      </trkpt>
      <trkpt lat="44.85527" lon="5.25202">
        <ele>1411.35</ele>
        <time>2014-11-23T11:17:03Z</time>
      </trkpt>
      <trkpt lat="44.85529" lon="5.25201">
        <ele>1411.35</ele>
        <time>2014-11-23T11:17:24Z</time>
      </trkpt>
      <trkpt lat="44.85528" lon="5.25201">
        <ele>1411.35</ele>
        <time>2014-11-23T11:17:46Z</time>
      </trkpt>
      <trkpt lat="44.85526" lon="5.25202">
        <ele>1410.87</ele>
        <time>2014-11-23T11:18:13Z</time>
      </trkpt>
      <trkpt lat="44.85526" lon="5.25204">
        <ele>1410.87</ele>
        <time>2014-11-23T11:18:47Z</time>
      </trkpt>
      <trkpt lat="44.85526" lon="5.25201">
        <ele>1410.87</ele>
        <time>2014-11-23T11:19:15Z</time>
      </trkpt>
      <trkpt lat="44.85526" lon="5.25201">
        <ele>1412.31</ele>
        <time>2014-11-23T11:19:44Z</time>
      </trkpt>
      <trkpt lat="44.85524" lon="5.252">
        <ele>1412.31</ele>
        <time>2014-11-23T11:20:08Z</time>
      </trkpt>
      <trkpt lat="44.85528" lon="5.252">
        <ele>1412.31</ele>
        <time>2014-11-23T11:20:35Z</time>
      </trkpt>
      <trkpt lat="44.85528" lon="5.252">
        <ele>1412.31</ele>
        <time>2014-11-23T11:21:02Z</time>
      </trkpt>
      <trkpt lat="44.85529" lon="5.25201">
        <ele>1412.31</ele>
        <time>2014-11-23T11:21:26Z</time>
      </trkpt>
      <trkpt lat="44.85526" lon="5.252">
        <ele>1413.28</ele>
        <time>2014-11-23T11:21:49Z</time>
      </trkpt>
      <trkpt lat="44.85526" lon="5.25201">
        <ele>1413.28</ele>
        <time>2014-11-23T11:22:12Z</time>
      </trkpt>
      <trkpt lat="44.85529" lon="5.25201">
        <ele>1413.28</ele>
        <time>2014-11-23T11:22:37Z</time>
      </trkpt>
      <trkpt lat="44.85528" lon="5.252">
        <ele>1413.28</ele>
        <time>2014-11-23T11:23:09Z</time>
      </trkpt>
      <trkpt lat="44.85528" lon="5.25197">
        <ele>1413.28</ele>
        <time>2014-11-23T11:23:41Z</time>
      </trkpt>
      <trkpt lat="44.85531" lon="5.25198">
        <ele>1413.28</ele>
        <time>2014-11-23T11:24:13Z</time>
      </trkpt>
      <trkpt lat="44.85527" lon="5.252">
        <ele>1413.28</ele>
        <time>2014-11-23T11:24:48Z</time>
      </trkpt>
      <trkpt lat="44.85529" lon="5.25198">
        <ele>1413.28</ele>
        <time>2014-11-23T11:25:21Z</time>
      </trkpt>
      <trkpt lat="44.85528" lon="5.252">
        <ele>1411.83</ele>
        <time>2014-11-23T11:25:58Z</time>
      </trkpt>
      <trkpt lat="44.85527" lon="5.25203">
        <ele>1411.83</ele>
        <time>2014-11-23T11:26:38Z</time>
      </trkpt>
      <trkpt lat="44.85524" lon="5.25202">
        <ele>1411.83</ele>
        <time>2014-11-23T11:27:15Z</time>
      </trkpt>
      <trkpt lat="44.85526" lon="5.25203">
        <ele>1411.35</ele>
        <time>2014-11-23T11:27:47Z</time>
      </trkpt>
      <trkpt lat="44.85527" lon="5.25205">
        <ele>1411.35</ele>
        <time>2014-11-23T11:28:16Z</time>
      </trkpt>
      <trkpt lat="44.85529" lon="5.25207">
        <ele>1411.35</ele>
        <time>2014-11-23T11:29:00Z</time>
      </trkpt>
      <trkpt lat="44.85527" lon="5.25209">
        <ele>1411.35</ele>
        <time>2014-11-23T11:29:40Z</time>
      </trkpt>
      <trkpt lat="44.85525" lon="5.25205">
        <ele>1411.35</ele>
        <time>2014-11-23T11:30:11Z</time>
      </trkpt>
      <trkpt lat="44.85524" lon="5.25203">
        <ele>1411.35</ele>
        <time>2014-11-23T11:30:46Z</time>
      </trkpt>
      <trkpt lat="44.85527" lon="5.25197">
        <ele>1410.87</ele>
        <time>2014-11-23T11:31:18Z</time>
      </trkpt>
      <trkpt lat="44.85529" lon="5.252">
        <ele>1410.87</ele>
        <time>2014-11-23T11:31:48Z</time>
      </trkpt>
      <trkpt lat="44.85522" lon="5.25201">
        <ele>1410.87</ele>
        <time>2014-11-23T11:32:24Z</time>
      </trkpt>
      <trkpt lat="44.85524" lon="5.25205">
        <ele>1411.35</ele>
        <time>2014-11-23T11:33:01Z</time>
      </trkpt>
      <trkpt lat="44.85525" lon="5.25204">
        <ele>1411.35</ele>
        <time>2014-11-23T11:33:36Z</time>
      </trkpt>
      <trkpt lat="44.85526" lon="5.25201">
        <ele>1410.87</ele>
        <time>2014-11-23T11:34:08Z</time>
      </trkpt>
      <trkpt lat="44.85526" lon="5.25204">
        <ele>1410.87</ele>
        <time>2014-11-23T11:34:37Z</time>
      </trkpt>
      <trkpt lat="44.85522" lon="5.25202">
        <ele>1410.87</ele>
        <time>2014-11-23T11:35:14Z</time>
      </trkpt>
      <trkpt lat="44.85521" lon="5.25197">
        <ele>1410.87</ele>
        <time>2014-11-23T11:35:45Z</time>
      </trkpt>
      <trkpt lat="44.85523" lon="5.252">
        <ele>1410.87</ele>
        <time>2014-11-23T11:36:19Z</time>
      </trkpt>
      <trkpt lat="44.85526" lon="5.25201">
        <ele>1410.87</ele>
        <time>2014-11-23T11:36:52Z</time>
      </trkpt>
      <trkpt lat="44.85525" lon="5.25202">
        <ele>1410.87</ele>
        <time>2014-11-23T11:37:27Z</time>
      </trkpt>
      <trkpt lat="44.85523" lon="5.25198">
        <ele>1411.35</ele>
        <time>2014-11-23T11:38:05Z</time>
      </trkpt>
      <trkpt lat="44.85527" lon="5.25198">
        <ele>1411.35</ele>
        <time>2014-11-23T11:38:36Z</time>
      </trkpt>
      <trkpt lat="44.85527" lon="5.25199">
        <ele>1410.87</ele>
        <time>2014-11-23T11:39:14Z</time>
      </trkpt>
      <trkpt lat="44.85527" lon="5.252">
        <ele>1410.87</ele>
        <time>2014-11-23T11:39:50Z</time>
      </trkpt>
      <trkpt lat="44.85526" lon="5.25199">
        <ele>1410.87</ele>
        <time>2014-11-23T11:40:28Z</time>
      </trkpt>
      <trkpt lat="44.85529" lon="5.252">
        <ele>1410.87</ele>
        <time>2014-11-23T11:41:01Z</time>
      </trkpt>
      <trkpt lat="44.85529" lon="5.25198">
        <ele>1410.87</ele>
        <time>2014-11-23T11:41:42Z</time>
      </trkpt>
      <trkpt lat="44.85529" lon="5.252">
        <ele>1410.87</ele>
        <time>2014-11-23T11:42:20Z</time>
      </trkpt>
      <trkpt lat="44.85528" lon="5.252">
        <ele>1411.83</ele>
        <time>2014-11-23T11:42:44Z</time>
      </trkpt>
      <trkpt lat="44.85527" lon="5.25197">
        <ele>1411.83</ele>
        <time>2014-11-23T11:43:19Z</time>
      </trkpt>
      <trkpt lat="44.85529" lon="5.25197">
        <ele>1411.83</ele>
        <time>2014-11-23T11:43:46Z</time>
      </trkpt>
      <trkpt lat="44.85532" lon="5.25198">
        <ele>1411.83</ele>
        <time>2014-11-23T11:44:21Z</time>
      </trkpt>
      <trkpt lat="44.85529" lon="5.252">
        <ele>1411.83</ele>
        <time>2014-11-23T11:44:56Z</time>
      </trkpt>
      <trkpt lat="44.85529" lon="5.25202">
        <ele>1411.83</ele>
        <time>2014-11-23T11:45:26Z</time>
      </trkpt>
      <trkpt lat="44.85525" lon="5.25199">
        <ele>1411.83</ele>
        <time>2014-11-23T11:45:48Z</time>
      </trkpt>
      <trkpt lat="44.85524" lon="5.252">
        <ele>1411.35</ele>
        <time>2014-11-23T11:46:12Z</time>
      </trkpt>
      <trkpt lat="44.85524" lon="5.25204">
        <ele>1411.35</ele>
        <time>2014-11-23T11:46:31Z</time>
      </trkpt>
      <trkpt lat="44.85522" lon="5.25203">
        <ele>1411.83</ele>
        <time>2014-11-23T11:46:52Z</time>
      </trkpt>
      <trkpt lat="44.85518" lon="5.25205">
        <ele>1410.39</ele>
        <time>2014-11-23T11:47:13Z</time>
      </trkpt>
      <trkpt lat="44.8551" lon="5.25208">
        <ele>1409.43</ele>
        <time>2014-11-23T11:47:27Z</time>
      </trkpt>
      <trkpt lat="44.85504" lon="5.25211">
        <ele>1410.87</ele>
        <time>2014-11-23T11:47:36Z</time>
      </trkpt>
      <trkpt lat="44.85499" lon="5.25216">
        <ele>1412.31</ele>
        <time>2014-11-23T11:47:49Z</time>
      </trkpt>
      <trkpt lat="44.85488" lon="5.25222">
        <ele>1413.76</ele>
        <time>2014-11-23T11:48:02Z</time>
      </trkpt>
      <trkpt lat="44.85483" lon="5.25222">
        <ele>1412.31</ele>
        <time>2014-11-23T11:48:10Z</time>
      </trkpt>
      <trkpt lat="44.85481" lon="5.25221">
        <ele>1413.76</ele>
        <time>2014-11-23T11:48:20Z</time>
      </trkpt>
      <trkpt lat="44.85482" lon="5.25222">
        <ele>1413.76</ele>
        <time>2014-11-23T11:48:36Z</time>
      </trkpt>
      <trkpt lat="44.85476" lon="5.2522">
        <ele>1411.35</ele>
        <time>2014-11-23T11:48:43Z</time>
      </trkpt>
      <trkpt lat="44.85474" lon="5.25219">
        <ele>1411.35</ele>
        <time>2014-11-23T11:48:45Z</time>
      </trkpt>
      <trkpt lat="44.85471" lon="5.25217">
        <ele>1410.87</ele>
        <time>2014-11-23T11:48:50Z</time>
      </trkpt>
      <trkpt lat="44.85469" lon="5.25215">
        <ele>1409.43</ele>
        <time>2014-11-23T11:48:53Z</time>
      </trkpt>
      <trkpt lat="44.85461" lon="5.25209">
        <ele>1408.95</ele>
        <time>2014-11-23T11:49:03Z</time>
      </trkpt>
      <trkpt lat="44.85459" lon="5.25207">
        <ele>1407.99</ele>
        <time>2014-11-23T11:49:06Z</time>
      </trkpt>
      <trkpt lat="44.85455" lon="5.25204">
        <ele>1407.99</ele>
        <time>2014-11-23T11:49:11Z</time>
      </trkpt>
      <trkpt lat="44.85445" lon="5.25189">
        <ele>1405.58</ele>
        <time>2014-11-23T11:49:26Z</time>
      </trkpt>
      <trkpt lat="44.85442" lon="5.25186">
        <ele>1405.1</ele>
        <time>2014-11-23T11:49:31Z</time>
      </trkpt>
      <trkpt lat="44.85441" lon="5.25184">
        <ele>1405.1</ele>
        <time>2014-11-23T11:49:33Z</time>
      </trkpt>
      <trkpt lat="44.85439" lon="5.25182">
        <ele>1404.14</ele>
        <time>2014-11-23T11:49:36Z</time>
      </trkpt>
      <trkpt lat="44.85431" lon="5.2517">
        <ele>1401.74</ele>
        <time>2014-11-23T11:49:49Z</time>
      </trkpt>
      <trkpt lat="44.85428" lon="5.25163">
        <ele>1400.3</ele>
        <time>2014-11-23T11:49:56Z</time>
      </trkpt>
      <trkpt lat="44.85427" lon="5.2516">
        <ele>1399.34</ele>
        <time>2014-11-23T11:49:59Z</time>
      </trkpt>
      <trkpt lat="44.85425" lon="5.25155">
        <ele>1397.89</ele>
        <time>2014-11-23T11:50:04Z</time>
      </trkpt>
      <trkpt lat="44.8542" lon="5.25143">
        <ele>1395.49</ele>
        <time>2014-11-23T11:50:17Z</time>
      </trkpt>
      <trkpt lat="44.85417" lon="5.25135">
        <ele>1394.05</ele>
        <time>2014-11-23T11:50:29Z</time>
      </trkpt>
      <trkpt lat="44.85414" lon="5.25125">
        <ele>1390.2</ele>
        <time>2014-11-23T11:50:39Z</time>
      </trkpt>
      <trkpt lat="44.85414" lon="5.25124">
        <ele>1389.72</ele>
        <time>2014-11-23T11:50:41Z</time>
      </trkpt>
      <trkpt lat="44.85413" lon="5.25116">
        <ele>1386.36</ele>
        <time>2014-11-23T11:50:52Z</time>
      </trkpt>
      <trkpt lat="44.85413" lon="5.25116">
        <ele>1385.88</ele>
        <time>2014-11-23T11:50:54Z</time>
      </trkpt>
      <trkpt lat="44.85413" lon="5.25105">
        <ele>1382.99</ele>
        <time>2014-11-23T11:51:08Z</time>
      </trkpt>
      <trkpt lat="44.85413" lon="5.25104">
        <ele>1382.03</ele>
        <time>2014-11-23T11:51:11Z</time>
      </trkpt>
      <trkpt lat="44.85412" lon="5.25095">
        <ele>1379.15</ele>
        <time>2014-11-23T11:51:22Z</time>
      </trkpt>
      <trkpt lat="44.85412" lon="5.25094">
        <ele>1378.67</ele>
        <time>2014-11-23T11:51:23Z</time>
      </trkpt>
      <trkpt lat="44.85413" lon="5.25091">
        <ele>1377.71</ele>
        <time>2014-11-23T11:51:25Z</time>
      </trkpt>
      <trkpt lat="44.85414" lon="5.25089">
        <ele>1373.86</ele>
        <time>2014-11-23T11:51:28Z</time>
      </trkpt>
      <trkpt lat="44.85419" lon="5.25078">
        <ele>1370.98</ele>
        <time>2014-11-23T11:51:40Z</time>
      </trkpt>
      <trkpt lat="44.85425" lon="5.25067">
        <ele>1368.57</ele>
        <time>2014-11-23T11:51:52Z</time>
      </trkpt>
      <trkpt lat="44.85428" lon="5.25055">
        <ele>1364.73</ele>
        <time>2014-11-23T11:52:05Z</time>
      </trkpt>
      <trkpt lat="44.85429" lon="5.25047">
        <ele>1361.36</ele>
        <time>2014-11-23T11:52:16Z</time>
      </trkpt>
      <trkpt lat="44.85431" lon="5.25038">
        <ele>1358.48</ele>
        <time>2014-11-23T11:52:24Z</time>
      </trkpt>
      <trkpt lat="44.85431" lon="5.25037">
        <ele>1357.52</ele>
        <time>2014-11-23T11:52:26Z</time>
      </trkpt>
      <trkpt lat="44.85431" lon="5.25029">
        <ele>1354.63</ele>
        <time>2014-11-23T11:52:37Z</time>
      </trkpt>
      <trkpt lat="44.85432" lon="5.25021">
        <ele>1351.75</ele>
        <time>2014-11-23T11:52:47Z</time>
      </trkpt>
      <trkpt lat="44.85433" lon="5.25014">
        <ele>1348.87</ele>
        <time>2014-11-23T11:52:58Z</time>
      </trkpt>
      <trkpt lat="44.85435" lon="5.25006">
        <ele>1345.02</ele>
        <time>2014-11-23T11:53:08Z</time>
      </trkpt>
      <trkpt lat="44.85435" lon="5.25004">
        <ele>1344.06</ele>
        <time>2014-11-23T11:53:10Z</time>
      </trkpt>
      <trkpt lat="44.85435" lon="5.25002">
        <ele>1343.58</ele>
        <time>2014-11-23T11:53:12Z</time>
      </trkpt>
      <trkpt lat="44.85435" lon="5.24995">
        <ele>1341.66</ele>
        <time>2014-11-23T11:53:16Z</time>
      </trkpt>
      <trkpt lat="44.85428" lon="5.24977">
        <ele>1340.22</ele>
        <time>2014-11-23T11:53:29Z</time>
      </trkpt>
      <trkpt lat="44.85425" lon="5.24972">
        <ele>1340.7</ele>
        <time>2014-11-23T11:53:34Z</time>
      </trkpt>
      <trkpt lat="44.8542" lon="5.24961">
        <ele>1342.62</ele>
        <time>2014-11-23T11:53:46Z</time>
      </trkpt>
      <trkpt lat="44.85419" lon="5.24959">
        <ele>1342.62</ele>
        <time>2014-11-23T11:53:59Z</time>
      </trkpt>
      <trkpt lat="44.85419" lon="5.24958">
        <ele>1344.54</ele>
        <time>2014-11-23T11:54:11Z</time>
      </trkpt>
      <trkpt lat="44.85418" lon="5.24959">
        <ele>1342.62</ele>
        <time>2014-11-23T11:54:19Z</time>
      </trkpt>
      <trkpt lat="44.85418" lon="5.24959">
        <ele>1342.14</ele>
        <time>2014-11-23T11:54:20Z</time>
      </trkpt>
      <trkpt lat="44.85416" lon="5.24958">
        <ele>1341.66</ele>
        <time>2014-11-23T11:54:22Z</time>
      </trkpt>
      <trkpt lat="44.85414" lon="5.24958">
        <ele>1340.7</ele>
        <time>2014-11-23T11:54:24Z</time>
      </trkpt>
      <trkpt lat="44.85413" lon="5.24957">
        <ele>1340.7</ele>
        <time>2014-11-23T11:54:25Z</time>
      </trkpt>
      <trkpt lat="44.85409" lon="5.24954">
        <ele>1338.77</ele>
        <time>2014-11-23T11:54:30Z</time>
      </trkpt>
      <trkpt lat="44.85407" lon="5.24953">
        <ele>1338.29</ele>
        <time>2014-11-23T11:54:32Z</time>
      </trkpt>
      <trkpt lat="44.85404" lon="5.24952">
        <ele>1338.29</ele>
        <time>2014-11-23T11:54:37Z</time>
      </trkpt>
      <trkpt lat="44.85401" lon="5.2495">
        <ele>1336.85</ele>
        <time>2014-11-23T11:54:40Z</time>
      </trkpt>
      <trkpt lat="44.85397" lon="5.24949">
        <ele>1335.89</ele>
        <time>2014-11-23T11:54:45Z</time>
      </trkpt>
      <trkpt lat="44.85391" lon="5.24947">
        <ele>1334.45</ele>
        <time>2014-11-23T11:54:51Z</time>
      </trkpt>
      <trkpt lat="44.85385" lon="5.24943">
        <ele>1331.08</ele>
        <time>2014-11-23T11:54:58Z</time>
      </trkpt>
      <trkpt lat="44.85384" lon="5.24942">
        <ele>1330.12</ele>
        <time>2014-11-23T11:55:00Z</time>
      </trkpt>
      <trkpt lat="44.85377" lon="5.24937">
        <ele>1327.24</ele>
        <time>2014-11-23T11:55:10Z</time>
      </trkpt>
      <trkpt lat="44.85376" lon="5.24935">
        <ele>1326.28</ele>
        <time>2014-11-23T11:55:12Z</time>
      </trkpt>
      <trkpt lat="44.85372" lon="5.24927">
        <ele>1324.35</ele>
        <time>2014-11-23T11:55:18Z</time>
      </trkpt>
      <trkpt lat="44.85362" lon="5.24913">
        <ele>1321.95</ele>
        <time>2014-11-23T11:55:31Z</time>
      </trkpt>
      <trkpt lat="44.85356" lon="5.24907">
        <ele>1319.07</ele>
        <time>2014-11-23T11:55:42Z</time>
      </trkpt>
      <trkpt lat="44.85349" lon="5.24902">
        <ele>1316.18</ele>
        <time>2014-11-23T11:55:53Z</time>
      </trkpt>
      <trkpt lat="44.85343" lon="5.24898">
        <ele>1313.3</ele>
        <time>2014-11-23T11:56:05Z</time>
      </trkpt>
      <trkpt lat="44.85338" lon="5.24895">
        <ele>1310.41</ele>
        <time>2014-11-23T11:56:20Z</time>
      </trkpt>
      <trkpt lat="44.85335" lon="5.2489">
        <ele>1307.53</ele>
        <time>2014-11-23T11:56:32Z</time>
      </trkpt>
      <trkpt lat="44.85332" lon="5.24889">
        <ele>1306.09</ele>
        <time>2014-11-23T11:56:37Z</time>
      </trkpt>
      <trkpt lat="44.8532" lon="5.2488">
        <ele>1303.69</ele>
        <time>2014-11-23T11:56:50Z</time>
      </trkpt>
      <trkpt lat="44.85314" lon="5.24874">
        <ele>1301.28</ele>
        <time>2014-11-23T11:57:01Z</time>
      </trkpt>
      <trkpt lat="44.85308" lon="5.24871">
        <ele>1299.36</ele>
        <time>2014-11-23T11:57:12Z</time>
      </trkpt>
      <trkpt lat="44.85306" lon="5.24865">
        <ele>1295.51</ele>
        <time>2014-11-23T11:57:25Z</time>
      </trkpt>
      <trkpt lat="44.85301" lon="5.24862">
        <ele>1293.11</ele>
        <time>2014-11-23T11:57:39Z</time>
      </trkpt>
      <trkpt lat="44.85299" lon="5.24856">
        <ele>1290.71</ele>
        <time>2014-11-23T11:57:51Z</time>
      </trkpt>
      <trkpt lat="44.85298" lon="5.24851">
        <ele>1287.34</ele>
        <time>2014-11-23T11:58:02Z</time>
      </trkpt>
      <trkpt lat="44.85295" lon="5.24847">
        <ele>1284.94</ele>
        <time>2014-11-23T11:58:15Z</time>
      </trkpt>
      <trkpt lat="44.85292" lon="5.24843">
        <ele>1282.54</ele>
        <time>2014-11-23T11:58:30Z</time>
      </trkpt>
      <trkpt lat="44.8529" lon="5.24837">
        <ele>1279.65</ele>
        <time>2014-11-23T11:58:43Z</time>
      </trkpt>
      <trkpt lat="44.8529" lon="5.24832">
        <ele>1276.77</ele>
        <time>2014-11-23T11:58:57Z</time>
      </trkpt>
      <trkpt lat="44.85287" lon="5.24828">
        <ele>1273.4</ele>
        <time>2014-11-23T11:59:10Z</time>
      </trkpt>
      <trkpt lat="44.85286" lon="5.24823">
        <ele>1271.48</ele>
        <time>2014-11-23T11:59:23Z</time>
      </trkpt>
      <trkpt lat="44.85285" lon="5.24823">
        <ele>1270.04</ele>
        <time>2014-11-23T11:59:37Z</time>
      </trkpt>
      <trkpt lat="44.8528" lon="5.24821">
        <ele>1267.64</ele>
        <time>2014-11-23T11:59:51Z</time>
      </trkpt>
      <trkpt lat="44.85278" lon="5.24816">
        <ele>1265.23</ele>
        <time>2014-11-23T12:00:02Z</time>
      </trkpt>
      <trkpt lat="44.85275" lon="5.24813">
        <ele>1261.87</ele>
        <time>2014-11-23T12:00:18Z</time>
      </trkpt>
      <trkpt lat="44.85272" lon="5.24809">
        <ele>1259.46</ele>
        <time>2014-11-23T12:00:32Z</time>
      </trkpt>
      <trkpt lat="44.85271" lon="5.24804">
        <ele>1257.54</ele>
        <time>2014-11-23T12:00:44Z</time>
      </trkpt>
      <trkpt lat="44.85271" lon="5.24798">
        <ele>1254.18</ele>
        <time>2014-11-23T12:00:56Z</time>
      </trkpt>
      <trkpt lat="44.85273" lon="5.24798">
        <ele>1252.74</ele>
        <time>2014-11-23T12:01:09Z</time>
      </trkpt>
      <trkpt lat="44.85272" lon="5.24797">
        <ele>1252.74</ele>
        <time>2014-11-23T12:01:23Z</time>
      </trkpt>
      <trkpt lat="44.85271" lon="5.24792">
        <ele>1252.74</ele>
        <time>2014-11-23T12:01:48Z</time>
      </trkpt>
      <trkpt lat="44.8527" lon="5.2479">
        <ele>1249.85</ele>
        <time>2014-11-23T12:02:00Z</time>
      </trkpt>
      <trkpt lat="44.85267" lon="5.2479">
        <ele>1246.49</ele>
        <time>2014-11-23T12:02:14Z</time>
      </trkpt>
      <trkpt lat="44.85267" lon="5.24789">
        <ele>1246.49</ele>
        <time>2014-11-23T12:02:15Z</time>
      </trkpt>
      <trkpt lat="44.85265" lon="5.24788">
        <ele>1243.6</ele>
        <time>2014-11-23T12:02:30Z</time>
      </trkpt>
      <trkpt lat="44.85259" lon="5.24783">
        <ele>1240.72</ele>
        <time>2014-11-23T12:02:40Z</time>
      </trkpt>
      <trkpt lat="44.8525" lon="5.2478">
        <ele>1237.35</ele>
        <time>2014-11-23T12:02:53Z</time>
      </trkpt>
      <trkpt lat="44.85244" lon="5.24781">
        <ele>1237.83</ele>
        <time>2014-11-23T12:03:07Z</time>
      </trkpt>
      <trkpt lat="44.85234" lon="5.2478">
        <ele>1236.39</ele>
        <time>2014-11-23T12:03:20Z</time>
      </trkpt>
      <trkpt lat="44.85226" lon="5.24777">
        <ele>1234.95</ele>
        <time>2014-11-23T12:03:33Z</time>
      </trkpt>
      <trkpt lat="44.85221" lon="5.24775">
        <ele>1234.47</ele>
        <time>2014-11-23T12:03:47Z</time>
      </trkpt>
      <trkpt lat="44.8522" lon="5.24774">
        <ele>1234.47</ele>
        <time>2014-11-23T12:04:07Z</time>
      </trkpt>
      <trkpt lat="44.85223" lon="5.24776">
        <ele>1235.43</ele>
        <time>2014-11-23T12:04:25Z</time>
      </trkpt>
      <trkpt lat="44.85219" lon="5.24772">
        <ele>1235.43</ele>
        <time>2014-11-23T12:04:49Z</time>
      </trkpt>
      <trkpt lat="44.85216" lon="5.24769">
        <ele>1233.99</ele>
        <time>2014-11-23T12:05:04Z</time>
      </trkpt>
      <trkpt lat="44.85215" lon="5.24768">
        <ele>1233.99</ele>
        <time>2014-11-23T12:05:06Z</time>
      </trkpt>
      <trkpt lat="44.85212" lon="5.24766">
        <ele>1233.51</ele>
        <time>2014-11-23T12:05:09Z</time>
      </trkpt>
      <trkpt lat="44.85199" lon="5.24758">
        <ele>1231.11</ele>
        <time>2014-11-23T12:05:24Z</time>
      </trkpt>
      <trkpt lat="44.85192" lon="5.24758">
        <ele>1231.11</ele>
        <time>2014-11-23T12:05:35Z</time>
      </trkpt>
      <trkpt lat="44.85188" lon="5.24756">
        <ele>1231.11</ele>
        <time>2014-11-23T12:05:39Z</time>
      </trkpt>
      <trkpt lat="44.85181" lon="5.24751">
        <ele>1230.62</ele>
        <time>2014-11-23T12:05:52Z</time>
      </trkpt>
      <trkpt lat="44.85181" lon="5.24749">
        <ele>1230.14</ele>
        <time>2014-11-23T12:06:03Z</time>
      </trkpt>
      <trkpt lat="44.85179" lon="5.24748">
        <ele>1230.14</ele>
        <time>2014-11-23T12:06:05Z</time>
      </trkpt>
      <trkpt lat="44.85167" lon="5.24739">
        <ele>1229.18</ele>
        <time>2014-11-23T12:06:19Z</time>
      </trkpt>
      <trkpt lat="44.85167" lon="5.24739">
        <ele>1229.18</ele>
        <time>2014-11-23T12:06:30Z</time>
      </trkpt>
      <trkpt lat="44.8516" lon="5.24735">
        <ele>1229.18</ele>
        <time>2014-11-23T12:06:46Z</time>
      </trkpt>
      <trkpt lat="44.85149" lon="5.24726">
        <ele>1229.18</ele>
        <time>2014-11-23T12:06:58Z</time>
      </trkpt>
      <trkpt lat="44.85142" lon="5.24722">
        <ele>1229.18</ele>
        <time>2014-11-23T12:07:08Z</time>
      </trkpt>
      <trkpt lat="44.85131" lon="5.24714">
        <ele>1228.7</ele>
        <time>2014-11-23T12:07:22Z</time>
      </trkpt>
      <trkpt lat="44.85128" lon="5.24711">
        <ele>1228.22</ele>
        <time>2014-11-23T12:07:39Z</time>
      </trkpt>
      <trkpt lat="44.85121" lon="5.24711">
        <ele>1229.66</ele>
        <time>2014-11-23T12:07:50Z</time>
      </trkpt>
      <trkpt lat="44.85112" lon="5.24707">
        <ele>1230.62</ele>
        <time>2014-11-23T12:08:06Z</time>
      </trkpt>
      <trkpt lat="44.85111" lon="5.24704">
        <ele>1229.66</ele>
        <time>2014-11-23T12:08:09Z</time>
      </trkpt>
      <trkpt lat="44.85103" lon="5.24695">
        <ele>1226.78</ele>
        <time>2014-11-23T12:08:23Z</time>
      </trkpt>
      <trkpt lat="44.85094" lon="5.24687">
        <ele>1226.78</ele>
        <time>2014-11-23T12:08:35Z</time>
      </trkpt>
      <trkpt lat="44.8509" lon="5.24684">
        <ele>1226.78</ele>
        <time>2014-11-23T12:08:40Z</time>
      </trkpt>
      <trkpt lat="44.85088" lon="5.24682">
        <ele>1226.78</ele>
        <time>2014-11-23T12:08:42Z</time>
      </trkpt>
      <trkpt lat="44.85078" lon="5.24672">
        <ele>1225.34</ele>
        <time>2014-11-23T12:08:55Z</time>
      </trkpt>
      <trkpt lat="44.85072" lon="5.24667">
        <ele>1224.38</ele>
        <time>2014-11-23T12:09:07Z</time>
      </trkpt>
      <trkpt lat="44.85069" lon="5.24658">
        <ele>1221.97</ele>
        <time>2014-11-23T12:09:22Z</time>
      </trkpt>
      <trkpt lat="44.85066" lon="5.24655">
        <ele>1221.01</ele>
        <time>2014-11-23T12:09:28Z</time>
      </trkpt>
      <trkpt lat="44.85059" lon="5.24644">
        <ele>1219.57</ele>
        <time>2014-11-23T12:09:42Z</time>
      </trkpt>
      <trkpt lat="44.85054" lon="5.24638">
        <ele>1218.13</ele>
        <time>2014-11-23T12:09:53Z</time>
      </trkpt>
      <trkpt lat="44.85053" lon="5.24631">
        <ele>1215.72</ele>
        <time>2014-11-23T12:10:06Z</time>
      </trkpt>
      <trkpt lat="44.85048" lon="5.24627">
        <ele>1214.28</ele>
        <time>2014-11-23T12:10:21Z</time>
      </trkpt>
      <trkpt lat="44.85045" lon="5.24618">
        <ele>1211.4</ele>
        <time>2014-11-23T12:10:31Z</time>
      </trkpt>
      <trkpt lat="44.85043" lon="5.2461">
        <ele>1209</ele>
        <time>2014-11-23T12:10:43Z</time>
      </trkpt>
      <trkpt lat="44.85042" lon="5.24603">
        <ele>1206.59</ele>
        <time>2014-11-23T12:10:54Z</time>
      </trkpt>
      <trkpt lat="44.85036" lon="5.24595">
        <ele>1204.67</ele>
        <time>2014-11-23T12:11:03Z</time>
      </trkpt>
      <trkpt lat="44.85031" lon="5.24587">
        <ele>1203.23</ele>
        <time>2014-11-23T12:11:16Z</time>
      </trkpt>
      <trkpt lat="44.85026" lon="5.24578">
        <ele>1200.34</ele>
        <time>2014-11-23T12:11:28Z</time>
      </trkpt>
      <trkpt lat="44.85022" lon="5.24573">
        <ele>1198.9</ele>
        <time>2014-11-23T12:11:41Z</time>
      </trkpt>
      <trkpt lat="44.85016" lon="5.24568">
        <ele>1198.42</ele>
        <time>2014-11-23T12:11:54Z</time>
      </trkpt>
      <trkpt lat="44.85011" lon="5.24566">
        <ele>1198.42</ele>
        <time>2014-11-23T12:12:01Z</time>
      </trkpt>
      <trkpt lat="44.85" lon="5.2456">
        <ele>1198.42</ele>
        <time>2014-11-23T12:12:15Z</time>
      </trkpt>
      <trkpt lat="44.84995" lon="5.24556">
        <ele>1198.42</ele>
        <time>2014-11-23T12:12:29Z</time>
      </trkpt>
      <trkpt lat="44.84988" lon="5.24546">
        <ele>1196.98</ele>
        <time>2014-11-23T12:12:41Z</time>
      </trkpt>
      <trkpt lat="44.84976" lon="5.24536">
        <ele>1196.02</ele>
        <time>2014-11-23T12:12:56Z</time>
      </trkpt>
      <trkpt lat="44.84975" lon="5.24533">
        <ele>1195.54</ele>
        <time>2014-11-23T12:12:59Z</time>
      </trkpt>
      <trkpt lat="44.84973" lon="5.24527">
        <ele>1194.09</ele>
        <time>2014-11-23T12:13:04Z</time>
      </trkpt>
      <trkpt lat="44.84971" lon="5.24522">
        <ele>1192.65</ele>
        <time>2014-11-23T12:13:08Z</time>
      </trkpt>
      <trkpt lat="44.84969" lon="5.24521">
        <ele>1192.17</ele>
        <time>2014-11-23T12:13:10Z</time>
      </trkpt>
      <trkpt lat="44.84958" lon="5.24509">
        <ele>1191.69</ele>
        <time>2014-11-23T12:13:24Z</time>
      </trkpt>
      <trkpt lat="44.84953" lon="5.24505">
        <ele>1191.69</ele>
        <time>2014-11-23T12:13:30Z</time>
      </trkpt>
      <trkpt lat="44.84948" lon="5.24501">
        <ele>1191.69</ele>
        <time>2014-11-23T12:13:34Z</time>
      </trkpt>
      <trkpt lat="44.84936" lon="5.24493">
        <ele>1191.21</ele>
        <time>2014-11-23T12:13:50Z</time>
      </trkpt>
      <trkpt lat="44.84935" lon="5.24491">
        <ele>1191.21</ele>
        <time>2014-11-23T12:13:52Z</time>
      </trkpt>
      <trkpt lat="44.84926" lon="5.24484">
        <ele>1191.21</ele>
        <time>2014-11-23T12:14:05Z</time>
      </trkpt>
      <trkpt lat="44.84921" lon="5.24478">
        <ele>1191.21</ele>
        <time>2014-11-23T12:14:18Z</time>
      </trkpt>
      <trkpt lat="44.84919" lon="5.24475">
        <ele>1191.21</ele>
        <time>2014-11-23T12:14:21Z</time>
      </trkpt>
      <trkpt lat="44.84912" lon="5.24468">
        <ele>1190.73</ele>
        <time>2014-11-23T12:14:36Z</time>
      </trkpt>
      <trkpt lat="44.84909" lon="5.24462">
        <ele>1189.77</ele>
        <time>2014-11-23T12:14:49Z</time>
      </trkpt>
      <trkpt lat="44.84901" lon="5.24454">
        <ele>1188.33</ele>
        <time>2014-11-23T12:15:02Z</time>
      </trkpt>
      <trkpt lat="44.849" lon="5.24453">
        <ele>1188.33</ele>
        <time>2014-11-23T12:15:04Z</time>
      </trkpt>
      <trkpt lat="44.84891" lon="5.24448">
        <ele>1188.33</ele>
        <time>2014-11-23T12:15:17Z</time>
      </trkpt>
      <trkpt lat="44.84889" lon="5.24448">
        <ele>1190.25</ele>
        <time>2014-11-23T12:15:20Z</time>
      </trkpt>
      <trkpt lat="44.84881" lon="5.24443">
        <ele>1190.25</ele>
        <time>2014-11-23T12:15:35Z</time>
      </trkpt>
      <trkpt lat="44.84876" lon="5.2444">
        <ele>1190.73</ele>
        <time>2014-11-23T12:15:53Z</time>
      </trkpt>
      <trkpt lat="44.84872" lon="5.24439">
        <ele>1190.73</ele>
        <time>2014-11-23T12:16:10Z</time>
      </trkpt>
      <trkpt lat="44.84869" lon="5.24433">
        <ele>1189.29</ele>
        <time>2014-11-23T12:16:22Z</time>
      </trkpt>
      <trkpt lat="44.84865" lon="5.24429">
        <ele>1190.25</ele>
        <time>2014-11-23T12:16:37Z</time>
      </trkpt>
      <trkpt lat="44.8486" lon="5.24425">
        <ele>1191.21</ele>
        <time>2014-11-23T12:16:54Z</time>
      </trkpt>
      <trkpt lat="44.84858" lon="5.24418">
        <ele>1189.77</ele>
        <time>2014-11-23T12:17:09Z</time>
      </trkpt>
      <trkpt lat="44.84857" lon="5.24415">
        <ele>1188.81</ele>
        <time>2014-11-23T12:17:21Z</time>
      </trkpt>
      <trkpt lat="44.84857" lon="5.24411">
        <ele>1186.4</ele>
        <time>2014-11-23T12:17:37Z</time>
      </trkpt>
      <trkpt lat="44.84861" lon="5.24407">
        <ele>1184</ele>
        <time>2014-11-23T12:17:52Z</time>
      </trkpt>
      <trkpt lat="44.84862" lon="5.24402">
        <ele>1182.08</ele>
        <time>2014-11-23T12:18:05Z</time>
      </trkpt>
      <trkpt lat="44.84854" lon="5.24396">
        <ele>1182.08</ele>
        <time>2014-11-23T12:18:18Z</time>
      </trkpt>
      <trkpt lat="44.84853" lon="5.24388">
        <ele>1182.08</ele>
        <time>2014-11-23T12:18:31Z</time>
      </trkpt>
      <trkpt lat="44.84843" lon="5.2438">
        <ele>1181.12</ele>
        <time>2014-11-23T12:18:47Z</time>
      </trkpt>
      <trkpt lat="44.8483" lon="5.24368">
        <ele>1182.56</ele>
        <time>2014-11-23T12:19:02Z</time>
      </trkpt>
      <trkpt lat="44.84818" lon="5.24355">
        <ele>1182.56</ele>
        <time>2014-11-23T12:19:14Z</time>
      </trkpt>
      <trkpt lat="44.84806" lon="5.24343">
        <ele>1184.48</ele>
        <time>2014-11-23T12:19:27Z</time>
      </trkpt>
      <trkpt lat="44.84796" lon="5.24336">
        <ele>1186.88</ele>
        <time>2014-11-23T12:19:39Z</time>
      </trkpt>
      <trkpt lat="44.84782" lon="5.24328">
        <ele>1189.29</ele>
        <time>2014-11-23T12:19:55Z</time>
      </trkpt>
      <trkpt lat="44.84771" lon="5.2432">
        <ele>1191.21</ele>
        <time>2014-11-23T12:20:09Z</time>
      </trkpt>
      <trkpt lat="44.84763" lon="5.24314">
        <ele>1192.17</ele>
        <time>2014-11-23T12:20:19Z</time>
      </trkpt>
      <trkpt lat="44.84752" lon="5.24296">
        <ele>1192.65</ele>
        <time>2014-11-23T12:20:35Z</time>
      </trkpt>
      <trkpt lat="44.84742" lon="5.2429">
        <ele>1193.13</ele>
        <time>2014-11-23T12:20:47Z</time>
      </trkpt>
      <trkpt lat="44.84729" lon="5.2428">
        <ele>1194.09</ele>
        <time>2014-11-23T12:21:00Z</time>
      </trkpt>
      <trkpt lat="44.84717" lon="5.24272">
        <ele>1196.5</ele>
        <time>2014-11-23T12:21:12Z</time>
      </trkpt>
      <trkpt lat="44.84705" lon="5.24262">
        <ele>1197.94</ele>
        <time>2014-11-23T12:21:25Z</time>
      </trkpt>
      <trkpt lat="44.84694" lon="5.24251">
        <ele>1199.86</ele>
        <time>2014-11-23T12:21:39Z</time>
      </trkpt>
      <trkpt lat="44.8469" lon="5.24247">
        <ele>1200.82</ele>
        <time>2014-11-23T12:21:45Z</time>
      </trkpt>
      <trkpt lat="44.84689" lon="5.24245">
        <ele>1201.3</ele>
        <time>2014-11-23T12:21:47Z</time>
      </trkpt>
      <trkpt lat="44.8468" lon="5.24236">
        <ele>1202.75</ele>
        <time>2014-11-23T12:22:01Z</time>
      </trkpt>
      <trkpt lat="44.84678" lon="5.24231">
        <ele>1203.23</ele>
        <time>2014-11-23T12:22:20Z</time>
      </trkpt>
      <trkpt lat="44.84681" lon="5.24228">
        <ele>1200.34</ele>
        <time>2014-11-23T12:22:27Z</time>
      </trkpt>
      <trkpt lat="44.84681" lon="5.24225">
        <ele>1198.42</ele>
        <time>2014-11-23T12:22:42Z</time>
      </trkpt>
      <trkpt lat="44.84681" lon="5.24223">
        <ele>1197.94</ele>
        <time>2014-11-23T12:23:13Z</time>
      </trkpt>
      <trkpt lat="44.84682" lon="5.24223">
        <ele>1197.94</ele>
        <time>2014-11-23T12:23:43Z</time>
      </trkpt>
      <trkpt lat="44.84681" lon="5.24223">
        <ele>1197.94</ele>
        <time>2014-11-23T12:24:14Z</time>
      </trkpt>
      <trkpt lat="44.84682" lon="5.24226">
        <ele>1198.9</ele>
        <time>2014-11-23T12:24:29Z</time>
      </trkpt>
      <trkpt lat="44.84681" lon="5.24232">
        <ele>1202.27</ele>
        <time>2014-11-23T12:24:40Z</time>
      </trkpt>
      <trkpt lat="44.84682" lon="5.24235">
        <ele>1202.27</ele>
        <time>2014-11-23T12:25:03Z</time>
      </trkpt>
      <trkpt lat="44.84681" lon="5.24234">
        <ele>1202.27</ele>
        <time>2014-11-23T12:25:28Z</time>
      </trkpt>
      <trkpt lat="44.84681" lon="5.24231">
        <ele>1202.27</ele>
        <time>2014-11-23T12:25:51Z</time>
      </trkpt>
      <trkpt lat="44.84681" lon="5.24231">
        <ele>1202.75</ele>
        <time>2014-11-23T12:26:18Z</time>
      </trkpt>
      <trkpt lat="44.84682" lon="5.24231">
        <ele>1202.75</ele>
        <time>2014-11-23T12:26:51Z</time>
      </trkpt>
      <trkpt lat="44.84679" lon="5.24232">
        <ele>1202.75</ele>
        <time>2014-11-23T12:27:07Z</time>
      </trkpt>
      <trkpt lat="44.84678" lon="5.24232">
        <ele>1202.75</ele>
        <time>2014-11-23T12:27:26Z</time>
      </trkpt>
      <trkpt lat="44.84677" lon="5.24229">
        <ele>1203.23</ele>
        <time>2014-11-23T12:27:31Z</time>
      </trkpt>
      <trkpt lat="44.84674" lon="5.24224">
        <ele>1203.23</ele>
        <time>2014-11-23T12:27:35Z</time>
      </trkpt>
      <trkpt lat="44.84667" lon="5.24214">
        <ele>1200.82</ele>
        <time>2014-11-23T12:27:47Z</time>
      </trkpt>
      <trkpt lat="44.84663" lon="5.24208">
        <ele>1199.86</ele>
        <time>2014-11-23T12:27:55Z</time>
      </trkpt>
      <trkpt lat="44.84653" lon="5.24196">
        <ele>1196.5</ele>
        <time>2014-11-23T12:28:07Z</time>
      </trkpt>
      <trkpt lat="44.84643" lon="5.24186">
        <ele>1195.06</ele>
        <time>2014-11-23T12:28:19Z</time>
      </trkpt>
      <trkpt lat="44.84636" lon="5.24176">
        <ele>1192.65</ele>
        <time>2014-11-23T12:28:30Z</time>
      </trkpt>
      <trkpt lat="44.84634" lon="5.24175">
        <ele>1191.69</ele>
        <time>2014-11-23T12:28:33Z</time>
      </trkpt>
      <trkpt lat="44.84626" lon="5.24166">
        <ele>1189.29</ele>
        <time>2014-11-23T12:28:44Z</time>
      </trkpt>
      <trkpt lat="44.84617" lon="5.2416">
        <ele>1187.37</ele>
        <time>2014-11-23T12:28:56Z</time>
      </trkpt>
      <trkpt lat="44.84606" lon="5.24151">
        <ele>1184.96</ele>
        <time>2014-11-23T12:29:09Z</time>
      </trkpt>
      <trkpt lat="44.84605" lon="5.2415">
        <ele>1184.48</ele>
        <time>2014-11-23T12:29:10Z</time>
      </trkpt>
      <trkpt lat="44.84603" lon="5.24149">
        <ele>1184.48</ele>
        <time>2014-11-23T12:29:13Z</time>
      </trkpt>
      <trkpt lat="44.84586" lon="5.24138">
        <ele>1182.08</ele>
        <time>2014-11-23T12:29:29Z</time>
      </trkpt>
      <trkpt lat="44.8458" lon="5.24136">
        <ele>1181.12</ele>
        <time>2014-11-23T12:29:35Z</time>
      </trkpt>
      <trkpt lat="44.84574" lon="5.24135">
        <ele>1181.12</ele>
        <time>2014-11-23T12:29:40Z</time>
      </trkpt>
      <trkpt lat="44.84565" lon="5.24132">
        <ele>1179.19</ele>
        <time>2014-11-23T12:29:53Z</time>
      </trkpt>
      <trkpt lat="44.84558" lon="5.24132">
        <ele>1177.75</ele>
        <time>2014-11-23T12:30:06Z</time>
      </trkpt>
      <trkpt lat="44.84551" lon="5.2413">
        <ele>1175.83</ele>
        <time>2014-11-23T12:30:16Z</time>
      </trkpt>
      <trkpt lat="44.8454" lon="5.24128">
        <ele>1173.43</ele>
        <time>2014-11-23T12:30:30Z</time>
      </trkpt>
      <trkpt lat="44.84531" lon="5.24126">
        <ele>1171.02</ele>
        <time>2014-11-23T12:30:43Z</time>
      </trkpt>
      <trkpt lat="44.84521" lon="5.24119">
        <ele>1168.62</ele>
        <time>2014-11-23T12:30:57Z</time>
      </trkpt>
      <trkpt lat="44.84508" lon="5.24114">
        <ele>1166.7</ele>
        <time>2014-11-23T12:31:12Z</time>
      </trkpt>
      <trkpt lat="44.84493" lon="5.24107">
        <ele>1166.22</ele>
        <time>2014-11-23T12:31:27Z</time>
      </trkpt>
      <trkpt lat="44.8449" lon="5.24105">
        <ele>1167.66</ele>
        <time>2014-11-23T12:31:30Z</time>
      </trkpt>
      <trkpt lat="44.84483" lon="5.24099">
        <ele>1168.14</ele>
        <time>2014-11-23T12:31:43Z</time>
      </trkpt>
      <trkpt lat="44.84478" lon="5.24096">
        <ele>1168.14</ele>
        <time>2014-11-23T12:31:51Z</time>
      </trkpt>
      <trkpt lat="44.84465" lon="5.24089">
        <ele>1168.62</ele>
        <time>2014-11-23T12:32:04Z</time>
      </trkpt>
      <trkpt lat="44.84461" lon="5.24087">
        <ele>1170.06</ele>
        <time>2014-11-23T12:32:09Z</time>
      </trkpt>
      <trkpt lat="44.84459" lon="5.24086">
        <ele>1170.06</ele>
        <time>2014-11-23T12:32:15Z</time>
      </trkpt>
      <trkpt lat="44.84456" lon="5.24083">
        <ele>1170.54</ele>
        <time>2014-11-23T12:32:20Z</time>
      </trkpt>
      <trkpt lat="44.84444" lon="5.24079">
        <ele>1170.54</ele>
        <time>2014-11-23T12:32:33Z</time>
      </trkpt>
      <trkpt lat="44.84432" lon="5.24076">
        <ele>1172.95</ele>
        <time>2014-11-23T12:32:47Z</time>
      </trkpt>
      <trkpt lat="44.84423" lon="5.24072">
        <ele>1175.35</ele>
        <time>2014-11-23T12:33:01Z</time>
      </trkpt>
      <trkpt lat="44.84412" lon="5.24067">
        <ele>1175.83</ele>
        <time>2014-11-23T12:33:13Z</time>
      </trkpt>
      <trkpt lat="44.84402" lon="5.24065">
        <ele>1176.79</ele>
        <time>2014-11-23T12:33:25Z</time>
      </trkpt>
      <trkpt lat="44.84396" lon="5.24061">
        <ele>1175.35</ele>
        <time>2014-11-23T12:33:35Z</time>
      </trkpt>
      <trkpt lat="44.84395" lon="5.24061">
        <ele>1174.87</ele>
        <time>2014-11-23T12:33:36Z</time>
      </trkpt>
      <trkpt lat="44.84388" lon="5.24058">
        <ele>1173.91</ele>
        <time>2014-11-23T12:33:42Z</time>
      </trkpt>
      <trkpt lat="44.8438" lon="5.24054">
        <ele>1173.43</ele>
        <time>2014-11-23T12:33:51Z</time>
      </trkpt>
      <trkpt lat="44.84369" lon="5.2405">
        <ele>1171.98</ele>
        <time>2014-11-23T12:34:04Z</time>
      </trkpt>
      <trkpt lat="44.8436" lon="5.24048">
        <ele>1171.5</ele>
        <time>2014-11-23T12:34:15Z</time>
      </trkpt>
      <trkpt lat="44.84349" lon="5.24047">
        <ele>1171.5</ele>
        <time>2014-11-23T12:34:27Z</time>
      </trkpt>
      <trkpt lat="44.84337" lon="5.24045">
        <ele>1170.54</ele>
        <time>2014-11-23T12:34:41Z</time>
      </trkpt>
      <trkpt lat="44.84325" lon="5.24042">
        <ele>1170.06</ele>
        <time>2014-11-23T12:34:52Z</time>
      </trkpt>
      <trkpt lat="44.84312" lon="5.24038">
        <ele>1169.58</ele>
        <time>2014-11-23T12:35:03Z</time>
      </trkpt>
      <trkpt lat="44.843" lon="5.24039">
        <ele>1169.58</ele>
        <time>2014-11-23T12:35:16Z</time>
      </trkpt>
      <trkpt lat="44.84298" lon="5.2404">
        <ele>1171.02</ele>
        <time>2014-11-23T12:35:21Z</time>
      </trkpt>
      <trkpt lat="44.84296" lon="5.24041">
        <ele>1171.02</ele>
        <time>2014-11-23T12:35:38Z</time>
      </trkpt>
      <trkpt lat="44.84296" lon="5.24042">
        <ele>1171.02</ele>
        <time>2014-11-23T12:36:09Z</time>
      </trkpt>
      <trkpt lat="44.84295" lon="5.2404">
        <ele>1171.02</ele>
        <time>2014-11-23T12:36:37Z</time>
      </trkpt>
      <trkpt lat="44.84292" lon="5.2404">
        <ele>1170.54</ele>
        <time>2014-11-23T12:37:01Z</time>
      </trkpt>
      <trkpt lat="44.84292" lon="5.24037">
        <ele>1170.54</ele>
        <time>2014-11-23T12:37:28Z</time>
      </trkpt>
      <trkpt lat="44.84295" lon="5.2404">
        <ele>1170.54</ele>
        <time>2014-11-23T12:37:53Z</time>
      </trkpt>
      <trkpt lat="44.84293" lon="5.24039">
        <ele>1171.02</ele>
        <time>2014-11-23T12:38:18Z</time>
      </trkpt>
      <trkpt lat="44.84293" lon="5.2404">
        <ele>1171.02</ele>
        <time>2014-11-23T12:38:55Z</time>
      </trkpt>
      <trkpt lat="44.84289" lon="5.24035">
        <ele>1171.02</ele>
        <time>2014-11-23T12:39:12Z</time>
      </trkpt>
      <trkpt lat="44.84284" lon="5.24032">
        <ele>1171.02</ele>
        <time>2014-11-23T12:39:22Z</time>
      </trkpt>
      <trkpt lat="44.84272" lon="5.24033">
        <ele>1170.54</ele>
        <time>2014-11-23T12:39:34Z</time>
      </trkpt>
      <trkpt lat="44.84267" lon="5.24033">
        <ele>1169.58</ele>
        <time>2014-11-23T12:39:40Z</time>
      </trkpt>
      <trkpt lat="44.84261" lon="5.24033">
        <ele>1169.58</ele>
        <time>2014-11-23T12:39:47Z</time>
      </trkpt>
      <trkpt lat="44.84257" lon="5.24034">
        <ele>1169.58</ele>
        <time>2014-11-23T12:39:50Z</time>
      </trkpt>
      <trkpt lat="44.84254" lon="5.24033">
        <ele>1169.1</ele>
        <time>2014-11-23T12:39:53Z</time>
      </trkpt>
      <trkpt lat="44.84248" lon="5.24033">
        <ele>1170.54</ele>
        <time>2014-11-23T12:39:58Z</time>
      </trkpt>
      <trkpt lat="44.84236" lon="5.24035">
        <ele>1171.02</ele>
        <time>2014-11-23T12:40:10Z</time>
      </trkpt>
      <trkpt lat="44.84234" lon="5.24035">
        <ele>1171.02</ele>
        <time>2014-11-23T12:40:12Z</time>
      </trkpt>
      <trkpt lat="44.8423" lon="5.24034">
        <ele>1171.02</ele>
        <time>2014-11-23T12:40:15Z</time>
      </trkpt>
      <trkpt lat="44.84215" lon="5.24033">
        <ele>1171.02</ele>
        <time>2014-11-23T12:40:29Z</time>
      </trkpt>
      <trkpt lat="44.84213" lon="5.24032">
        <ele>1171.02</ele>
        <time>2014-11-23T12:40:31Z</time>
      </trkpt>
      <trkpt lat="44.8421" lon="5.2403">
        <ele>1171.02</ele>
        <time>2014-11-23T12:40:35Z</time>
      </trkpt>
      <trkpt lat="44.84192" lon="5.24028">
        <ele>1171.5</ele>
        <time>2014-11-23T12:40:50Z</time>
      </trkpt>
      <trkpt lat="44.84177" lon="5.24021">
        <ele>1172.47</ele>
        <time>2014-11-23T12:41:04Z</time>
      </trkpt>
      <trkpt lat="44.84164" lon="5.24014">
        <ele>1172.47</ele>
        <time>2014-11-23T12:41:16Z</time>
      </trkpt>
      <trkpt lat="44.84161" lon="5.24013">
        <ele>1171.02</ele>
        <time>2014-11-23T12:41:18Z</time>
      </trkpt>
      <trkpt lat="44.84144" lon="5.24001">
        <ele>1169.58</ele>
        <time>2014-11-23T12:41:32Z</time>
      </trkpt>
      <trkpt lat="44.84136" lon="5.23997">
        <ele>1168.62</ele>
        <time>2014-11-23T12:41:39Z</time>
      </trkpt>
      <trkpt lat="44.84131" lon="5.23995">
        <ele>1168.62</ele>
        <time>2014-11-23T12:41:43Z</time>
      </trkpt>
      <trkpt lat="44.8412" lon="5.23988">
        <ele>1168.14</ele>
        <time>2014-11-23T12:41:56Z</time>
      </trkpt>
      <trkpt lat="44.84119" lon="5.2399">
        <ele>1167.66</ele>
        <time>2014-11-23T12:42:09Z</time>
      </trkpt>
      <trkpt lat="44.84118" lon="5.23988">
        <ele>1167.18</ele>
        <time>2014-11-23T12:42:40Z</time>
      </trkpt>
      <trkpt lat="44.84119" lon="5.23989">
        <ele>1167.18</ele>
        <time>2014-11-23T12:43:07Z</time>
      </trkpt>
      <trkpt lat="44.84118" lon="5.23989">
        <ele>1167.18</ele>
        <time>2014-11-23T12:43:30Z</time>
      </trkpt>
      <trkpt lat="44.84117" lon="5.23992">
        <ele>1168.62</ele>
        <time>2014-11-23T12:43:55Z</time>
      </trkpt>
      <trkpt lat="44.84115" lon="5.23991">
        <ele>1168.14</ele>
        <time>2014-11-23T12:44:16Z</time>
      </trkpt>
      <trkpt lat="44.84114" lon="5.23991">
        <ele>1168.14</ele>
        <time>2014-11-23T12:44:41Z</time>
      </trkpt>
      <trkpt lat="44.84116" lon="5.23989">
        <ele>1168.14</ele>
        <time>2014-11-23T12:45:04Z</time>
      </trkpt>
      <trkpt lat="44.84116" lon="5.23986">
        <ele>1168.14</ele>
        <time>2014-11-23T12:45:23Z</time>
      </trkpt>
      <trkpt lat="44.84114" lon="5.23986">
        <ele>1168.14</ele>
        <time>2014-11-23T12:45:46Z</time>
      </trkpt>
      <trkpt lat="44.84114" lon="5.23987">
        <ele>1168.14</ele>
        <time>2014-11-23T12:46:11Z</time>
      </trkpt>
      <trkpt lat="44.84116" lon="5.23991">
        <ele>1168.14</ele>
        <time>2014-11-23T12:46:33Z</time>
      </trkpt>
      <trkpt lat="44.84118" lon="5.23993">
        <ele>1166.7</ele>
        <time>2014-11-23T12:46:56Z</time>
      </trkpt>
      <trkpt lat="44.84122" lon="5.23999">
        <ele>1165.26</ele>
        <time>2014-11-23T12:47:10Z</time>
      </trkpt>
      <trkpt lat="44.84125" lon="5.24003">
        <ele>1164.29</ele>
        <time>2014-11-23T12:47:16Z</time>
      </trkpt>
      <trkpt lat="44.84125" lon="5.24005">
        <ele>1163.33</ele>
        <time>2014-11-23T12:47:18Z</time>
      </trkpt>
      <trkpt lat="44.84124" lon="5.24011">
        <ele>1159.97</ele>
        <time>2014-11-23T12:47:31Z</time>
      </trkpt>
      <trkpt lat="44.84123" lon="5.24014">
        <ele>1157.08</ele>
        <time>2014-11-23T12:47:42Z</time>
      </trkpt>
      <trkpt lat="44.84113" lon="5.24014">
        <ele>1155.16</ele>
        <time>2014-11-23T12:47:53Z</time>
      </trkpt>
      <trkpt lat="44.84109" lon="5.24014">
        <ele>1154.68</ele>
        <time>2014-11-23T12:47:58Z</time>
      </trkpt>
      <trkpt lat="44.84098" lon="5.24015">
        <ele>1151.8</ele>
        <time>2014-11-23T12:48:11Z</time>
      </trkpt>
      <trkpt lat="44.8409" lon="5.24018">
        <ele>1149.39</ele>
        <time>2014-11-23T12:48:25Z</time>
      </trkpt>
      <trkpt lat="44.84083" lon="5.2402">
        <ele>1146.03</ele>
        <time>2014-11-23T12:48:36Z</time>
      </trkpt>
      <trkpt lat="44.84076" lon="5.24024">
        <ele>1142.66</ele>
        <time>2014-11-23T12:48:47Z</time>
      </trkpt>
      <trkpt lat="44.84073" lon="5.24027">
        <ele>1142.18</ele>
        <time>2014-11-23T12:48:50Z</time>
      </trkpt>
      <trkpt lat="44.84064" lon="5.24032">
        <ele>1138.34</ele>
        <time>2014-11-23T12:49:02Z</time>
      </trkpt>
      <trkpt lat="44.84056" lon="5.24036">
        <ele>1135.45</ele>
        <time>2014-11-23T12:49:13Z</time>
      </trkpt>
      <trkpt lat="44.84047" lon="5.2405">
        <ele>1132.57</ele>
        <time>2014-11-23T12:49:25Z</time>
      </trkpt>
      <trkpt lat="44.84046" lon="5.24052">
        <ele>1132.09</ele>
        <time>2014-11-23T12:49:27Z</time>
      </trkpt>
      <trkpt lat="44.84044" lon="5.24052">
        <ele>1131.61</ele>
        <time>2014-11-23T12:49:29Z</time>
      </trkpt>
      <trkpt lat="44.84033" lon="5.2405">
        <ele>1129.21</ele>
        <time>2014-11-23T12:49:42Z</time>
      </trkpt>
      <trkpt lat="44.84024" lon="5.24049">
        <ele>1125.84</ele>
        <time>2014-11-23T12:49:53Z</time>
      </trkpt>
      <trkpt lat="44.84014" lon="5.24052">
        <ele>1122.48</ele>
        <time>2014-11-23T12:50:06Z</time>
      </trkpt>
      <trkpt lat="44.84016" lon="5.24061">
        <ele>1120.07</ele>
        <time>2014-11-23T12:50:19Z</time>
      </trkpt>
      <trkpt lat="44.84023" lon="5.24073">
        <ele>1117.19</ele>
        <time>2014-11-23T12:50:34Z</time>
      </trkpt>
      <trkpt lat="44.84027" lon="5.2408">
        <ele>1113.82</ele>
        <time>2014-11-23T12:50:45Z</time>
      </trkpt>
      <trkpt lat="44.84034" lon="5.24088">
        <ele>1110.94</ele>
        <time>2014-11-23T12:50:57Z</time>
      </trkpt>
      <trkpt lat="44.84034" lon="5.24094">
        <ele>1108.06</ele>
        <time>2014-11-23T12:51:10Z</time>
      </trkpt>
      <trkpt lat="44.84035" lon="5.24101">
        <ele>1105.65</ele>
        <time>2014-11-23T12:51:23Z</time>
      </trkpt>
      <trkpt lat="44.8403" lon="5.24104">
        <ele>1102.29</ele>
        <time>2014-11-23T12:51:34Z</time>
      </trkpt>
      <trkpt lat="44.84022" lon="5.24102">
        <ele>1099.4</ele>
        <time>2014-11-23T12:51:46Z</time>
      </trkpt>
      <trkpt lat="44.84012" lon="5.24098">
        <ele>1096.52</ele>
        <time>2014-11-23T12:52:01Z</time>
      </trkpt>
      <trkpt lat="44.84003" lon="5.24097">
        <ele>1093.16</ele>
        <time>2014-11-23T12:52:13Z</time>
      </trkpt>
      <trkpt lat="44.84" lon="5.24103">
        <ele>1089.79</ele>
        <time>2014-11-23T12:52:28Z</time>
      </trkpt>
      <trkpt lat="44.84006" lon="5.24109">
        <ele>1087.39</ele>
        <time>2014-11-23T12:52:43Z</time>
      </trkpt>
      <trkpt lat="44.84005" lon="5.24115">
        <ele>1084.5</ele>
        <time>2014-11-23T12:52:56Z</time>
      </trkpt>
      <trkpt lat="44.84006" lon="5.24122">
        <ele>1082.1</ele>
        <time>2014-11-23T12:53:08Z</time>
      </trkpt>
      <trkpt lat="44.84002" lon="5.24124">
        <ele>1078.74</ele>
        <time>2014-11-23T12:53:21Z</time>
      </trkpt>
      <trkpt lat="44.84002" lon="5.2413">
        <ele>1076.81</ele>
        <time>2014-11-23T12:53:34Z</time>
      </trkpt>
      <trkpt lat="44.84003" lon="5.24138">
        <ele>1073.93</ele>
        <time>2014-11-23T12:53:49Z</time>
      </trkpt>
      <trkpt lat="44.84005" lon="5.24145">
        <ele>1072.01</ele>
        <time>2014-11-23T12:54:03Z</time>
      </trkpt>
      <trkpt lat="44.8401" lon="5.24152">
        <ele>1068.64</ele>
        <time>2014-11-23T12:54:16Z</time>
      </trkpt>
      <trkpt lat="44.84015" lon="5.24158">
        <ele>1066.24</ele>
        <time>2014-11-23T12:54:33Z</time>
      </trkpt>
      <trkpt lat="44.84011" lon="5.2416">
        <ele>1062.87</ele>
        <time>2014-11-23T12:54:44Z</time>
      </trkpt>
      <trkpt lat="44.84009" lon="5.24168">
        <ele>1060.95</ele>
        <time>2014-11-23T12:54:55Z</time>
      </trkpt>
      <trkpt lat="44.84012" lon="5.24175">
        <ele>1058.07</ele>
        <time>2014-11-23T12:55:09Z</time>
      </trkpt>
      <trkpt lat="44.84014" lon="5.2418">
        <ele>1054.7</ele>
        <time>2014-11-23T12:55:20Z</time>
      </trkpt>
      <trkpt lat="44.8401" lon="5.24185">
        <ele>1051.34</ele>
        <time>2014-11-23T12:55:33Z</time>
      </trkpt>
      <trkpt lat="44.84015" lon="5.24187">
        <ele>1049.9</ele>
        <time>2014-11-23T12:55:45Z</time>
      </trkpt>
      <trkpt lat="44.84026" lon="5.24194">
        <ele>1047.01</ele>
        <time>2014-11-23T12:56:01Z</time>
      </trkpt>
      <trkpt lat="44.84023" lon="5.24204">
        <ele>1044.61</ele>
        <time>2014-11-23T12:56:15Z</time>
      </trkpt>
      <trkpt lat="44.8402" lon="5.24212">
        <ele>1041.25</ele>
        <time>2014-11-23T12:56:26Z</time>
      </trkpt>
      <trkpt lat="44.84014" lon="5.2422">
        <ele>1037.88</ele>
        <time>2014-11-23T12:56:39Z</time>
      </trkpt>
      <trkpt lat="44.84015" lon="5.24228">
        <ele>1034.52</ele>
        <time>2014-11-23T12:56:51Z</time>
      </trkpt>
      <trkpt lat="44.84008" lon="5.2423">
        <ele>1030.67</ele>
        <time>2014-11-23T12:57:03Z</time>
      </trkpt>
      <trkpt lat="44.83997" lon="5.24229">
        <ele>1027.31</ele>
        <time>2014-11-23T12:57:17Z</time>
      </trkpt>
      <trkpt lat="44.83999" lon="5.24236">
        <ele>1023.94</ele>
        <time>2014-11-23T12:57:29Z</time>
      </trkpt>
      <trkpt lat="44.83999" lon="5.24239">
        <ele>1022.98</ele>
        <time>2014-11-23T12:57:33Z</time>
      </trkpt>
      <trkpt lat="44.83994" lon="5.2424">
        <ele>1019.62</ele>
        <time>2014-11-23T12:57:41Z</time>
      </trkpt>
      <trkpt lat="44.83988" lon="5.2424">
        <ele>1016.73</ele>
        <time>2014-11-23T12:57:50Z</time>
      </trkpt>
      <trkpt lat="44.83984" lon="5.24237">
        <ele>1013.37</ele>
        <time>2014-11-23T12:57:58Z</time>
      </trkpt>
      <trkpt lat="44.83978" lon="5.24234">
        <ele>1010.48</ele>
        <time>2014-11-23T12:58:08Z</time>
      </trkpt>
      <trkpt lat="44.83975" lon="5.24239">
        <ele>1007.12</ele>
        <time>2014-11-23T12:58:19Z</time>
      </trkpt>
      <trkpt lat="44.83967" lon="5.24245">
        <ele>1003.75</ele>
        <time>2014-11-23T12:58:30Z</time>
      </trkpt>
      <trkpt lat="44.83967" lon="5.24255">
        <ele>1001.83</ele>
        <time>2014-11-23T12:58:42Z</time>
      </trkpt>
      <trkpt lat="44.8397" lon="5.24264">
        <ele>998.47</ele>
        <time>2014-11-23T12:58:53Z</time>
      </trkpt>
      <trkpt lat="44.83969" lon="5.2427">
        <ele>995.58</ele>
        <time>2014-11-23T12:59:02Z</time>
      </trkpt>
      <trkpt lat="44.83968" lon="5.24271">
        <ele>992.22</ele>
        <time>2014-11-23T12:59:12Z</time>
      </trkpt>
      <trkpt lat="44.8397" lon="5.24277">
        <ele>989.33</ele>
        <time>2014-11-23T12:59:22Z</time>
      </trkpt>
      <trkpt lat="44.83972" lon="5.24284">
        <ele>986.93</ele>
        <time>2014-11-23T12:59:37Z</time>
      </trkpt>
      <trkpt lat="44.83975" lon="5.24292">
        <ele>983.57</ele>
        <time>2014-11-23T12:59:49Z</time>
      </trkpt>
      <trkpt lat="44.8398" lon="5.24298">
        <ele>980.2</ele>
        <time>2014-11-23T13:00:03Z</time>
      </trkpt>
      <trkpt lat="44.83986" lon="5.24304">
        <ele>976.84</ele>
        <time>2014-11-23T13:00:13Z</time>
      </trkpt>
      <trkpt lat="44.83991" lon="5.24311">
        <ele>973.95</ele>
        <time>2014-11-23T13:00:23Z</time>
      </trkpt>
      <trkpt lat="44.83986" lon="5.24321">
        <ele>971.07</ele>
        <time>2014-11-23T13:00:35Z</time>
      </trkpt>
      <trkpt lat="44.83977" lon="5.24324">
        <ele>967.7</ele>
        <time>2014-11-23T13:00:46Z</time>
      </trkpt>
      <trkpt lat="44.83966" lon="5.24327">
        <ele>964.34</ele>
        <time>2014-11-23T13:00:58Z</time>
      </trkpt>
      <trkpt lat="44.83957" lon="5.24325">
        <ele>960.98</ele>
        <time>2014-11-23T13:01:11Z</time>
      </trkpt>
      <trkpt lat="44.8396" lon="5.24334">
        <ele>958.09</ele>
        <time>2014-11-23T13:01:22Z</time>
      </trkpt>
      <trkpt lat="44.83966" lon="5.24343">
        <ele>955.21</ele>
        <time>2014-11-23T13:01:36Z</time>
      </trkpt>
      <trkpt lat="44.83966" lon="5.2435">
        <ele>951.84</ele>
        <time>2014-11-23T13:01:47Z</time>
      </trkpt>
      <trkpt lat="44.83963" lon="5.24357">
        <ele>948.48</ele>
        <time>2014-11-23T13:01:59Z</time>
      </trkpt>
      <trkpt lat="44.83954" lon="5.24361">
        <ele>945.11</ele>
        <time>2014-11-23T13:02:12Z</time>
      </trkpt>
      <trkpt lat="44.83954" lon="5.24368">
        <ele>942.23</ele>
        <time>2014-11-23T13:02:24Z</time>
      </trkpt>
      <trkpt lat="44.83961" lon="5.24377">
        <ele>939.35</ele>
        <time>2014-11-23T13:02:38Z</time>
      </trkpt>
      <trkpt lat="44.83956" lon="5.24379">
        <ele>937.42</ele>
        <time>2014-11-23T13:02:50Z</time>
      </trkpt>
      <trkpt lat="44.8395" lon="5.24384">
        <ele>935.02</ele>
        <time>2014-11-23T13:03:13Z</time>
      </trkpt>
      <trkpt lat="44.83949" lon="5.24385">
        <ele>935.02</ele>
        <time>2014-11-23T13:03:14Z</time>
      </trkpt>
      <trkpt lat="44.83945" lon="5.24387">
        <ele>933.1</ele>
        <time>2014-11-23T13:03:20Z</time>
      </trkpt>
      <trkpt lat="44.83937" lon="5.24393">
        <ele>929.73</ele>
        <time>2014-11-23T13:03:31Z</time>
      </trkpt>
      <trkpt lat="44.83936" lon="5.24394">
        <ele>929.25</ele>
        <time>2014-11-23T13:03:33Z</time>
      </trkpt>
      <trkpt lat="44.83941" lon="5.24399">
        <ele>926.85</ele>
        <time>2014-11-23T13:03:46Z</time>
      </trkpt>
      <trkpt lat="44.83943" lon="5.24403">
        <ele>926.85</ele>
        <time>2014-11-23T13:04:11Z</time>
      </trkpt>
      <trkpt lat="44.83944" lon="5.24405">
        <ele>926.85</ele>
        <time>2014-11-23T13:04:23Z</time>
      </trkpt>
      <trkpt lat="44.83945" lon="5.24406">
        <ele>926.85</ele>
        <time>2014-11-23T13:04:47Z</time>
      </trkpt>
      <trkpt lat="44.83946" lon="5.24408">
        <ele>926.85</ele>
        <time>2014-11-23T13:05:13Z</time>
      </trkpt>
      <trkpt lat="44.83945" lon="5.24409">
        <ele>928.29</ele>
        <time>2014-11-23T13:05:18Z</time>
      </trkpt>
      <trkpt lat="44.83944" lon="5.24408">
        <ele>928.29</ele>
        <time>2014-11-23T13:05:44Z</time>
      </trkpt>
      <trkpt lat="44.83944" lon="5.24407">
        <ele>928.29</ele>
        <time>2014-11-23T13:06:02Z</time>
      </trkpt>
      <trkpt lat="44.83942" lon="5.24407">
        <ele>926.85</ele>
        <time>2014-11-23T13:06:31Z</time>
      </trkpt>
      <trkpt lat="44.83941" lon="5.24405">
        <ele>926.85</ele>
        <time>2014-11-23T13:06:49Z</time>
      </trkpt>
      <trkpt lat="44.83934" lon="5.24407">
        <ele>925.41</ele>
        <time>2014-11-23T13:07:06Z</time>
      </trkpt>
      <trkpt lat="44.83927" lon="5.24406">
        <ele>923.48</ele>
        <time>2014-11-23T13:07:18Z</time>
      </trkpt>
      <trkpt lat="44.83934" lon="5.24415">
        <ele>920.12</ele>
        <time>2014-11-23T13:07:31Z</time>
      </trkpt>
      <trkpt lat="44.83927" lon="5.2442">
        <ele>917.24</ele>
        <time>2014-11-23T13:07:44Z</time>
      </trkpt>
      <trkpt lat="44.83924" lon="5.24425">
        <ele>914.35</ele>
        <time>2014-11-23T13:07:53Z</time>
      </trkpt>
      <trkpt lat="44.83928" lon="5.24436">
        <ele>910.99</ele>
        <time>2014-11-23T13:08:05Z</time>
      </trkpt>
      <trkpt lat="44.83934" lon="5.2444">
        <ele>907.62</ele>
        <time>2014-11-23T13:08:17Z</time>
      </trkpt>
      <trkpt lat="44.83939" lon="5.24446">
        <ele>904.26</ele>
        <time>2014-11-23T13:08:27Z</time>
      </trkpt>
      <trkpt lat="44.83937" lon="5.2445">
        <ele>903.3</ele>
        <time>2014-11-23T13:08:31Z</time>
      </trkpt>
      <trkpt lat="44.83929" lon="5.24465">
        <ele>900.41</ele>
        <time>2014-11-23T13:08:44Z</time>
      </trkpt>
      <trkpt lat="44.8392" lon="5.24465">
        <ele>897.05</ele>
        <time>2014-11-23T13:08:55Z</time>
      </trkpt>
      <trkpt lat="44.83913" lon="5.24463">
        <ele>893.68</ele>
        <time>2014-11-23T13:09:05Z</time>
      </trkpt>
      <trkpt lat="44.83905" lon="5.24459">
        <ele>890.32</ele>
        <time>2014-11-23T13:09:16Z</time>
      </trkpt>
      <trkpt lat="44.83897" lon="5.24463">
        <ele>887.43</ele>
        <time>2014-11-23T13:09:27Z</time>
      </trkpt>
      <trkpt lat="44.83895" lon="5.24477">
        <ele>883.59</ele>
        <time>2014-11-23T13:09:41Z</time>
      </trkpt>
      <trkpt lat="44.83891" lon="5.24483">
        <ele>880.22</ele>
        <time>2014-11-23T13:09:52Z</time>
      </trkpt>
      <trkpt lat="44.83889" lon="5.2448">
        <ele>878.78</ele>
        <time>2014-11-23T13:09:56Z</time>
      </trkpt>
      <trkpt lat="44.8388" lon="5.24478">
        <ele>876.38</ele>
        <time>2014-11-23T13:10:07Z</time>
      </trkpt>
      <trkpt lat="44.83875" lon="5.24479">
        <ele>875.42</ele>
        <time>2014-11-23T13:10:26Z</time>
      </trkpt>
      <trkpt lat="44.83867" lon="5.24486">
        <ele>873.01</ele>
        <time>2014-11-23T13:10:38Z</time>
      </trkpt>
      <trkpt lat="44.83861" lon="5.24492">
        <ele>869.65</ele>
        <time>2014-11-23T13:10:52Z</time>
      </trkpt>
      <trkpt lat="44.83861" lon="5.24492">
        <ele>869.65</ele>
        <time>2014-11-23T13:10:53Z</time>
      </trkpt>
      <trkpt lat="44.83856" lon="5.24507">
        <ele>867.25</ele>
        <time>2014-11-23T13:11:07Z</time>
      </trkpt>
      <trkpt lat="44.83856" lon="5.24514">
        <ele>863.88</ele>
        <time>2014-11-23T13:11:18Z</time>
      </trkpt>
      <trkpt lat="44.83856" lon="5.24526">
        <ele>860.52</ele>
        <time>2014-11-23T13:11:33Z</time>
      </trkpt>
      <trkpt lat="44.83856" lon="5.24535">
        <ele>858.11</ele>
        <time>2014-11-23T13:11:45Z</time>
      </trkpt>
      <trkpt lat="44.83852" lon="5.24542">
        <ele>854.75</ele>
        <time>2014-11-23T13:11:55Z</time>
      </trkpt>
      <trkpt lat="44.83852" lon="5.24553">
        <ele>851.38</ele>
        <time>2014-11-23T13:12:06Z</time>
      </trkpt>
      <trkpt lat="44.83857" lon="5.24569">
        <ele>848.5</ele>
        <time>2014-11-23T13:12:15Z</time>
      </trkpt>
      <trkpt lat="44.83862" lon="5.24581">
        <ele>845.14</ele>
        <time>2014-11-23T13:12:29Z</time>
      </trkpt>
      <trkpt lat="44.83871" lon="5.24594">
        <ele>842.25</ele>
        <time>2014-11-23T13:12:39Z</time>
      </trkpt>
      <trkpt lat="44.83877" lon="5.24604">
        <ele>840.33</ele>
        <time>2014-11-23T13:12:51Z</time>
      </trkpt>
      <trkpt lat="44.8388" lon="5.24609">
        <ele>839.37</ele>
        <time>2014-11-23T13:12:56Z</time>
      </trkpt>
      <trkpt lat="44.8389" lon="5.24623">
        <ele>836.96</ele>
        <time>2014-11-23T13:13:08Z</time>
      </trkpt>
      <trkpt lat="44.83891" lon="5.24636">
        <ele>834.08</ele>
        <time>2014-11-23T13:13:18Z</time>
      </trkpt>
      <trkpt lat="44.83889" lon="5.24643">
        <ele>833.12</ele>
        <time>2014-11-23T13:13:22Z</time>
      </trkpt>
      <trkpt lat="44.83883" lon="5.24654">
        <ele>828.79</ele>
        <time>2014-11-23T13:13:33Z</time>
      </trkpt>
      <trkpt lat="44.83878" lon="5.24665">
        <ele>825.91</ele>
        <time>2014-11-23T13:13:42Z</time>
      </trkpt>
      <trkpt lat="44.83872" lon="5.24674">
        <ele>822.06</ele>
        <time>2014-11-23T13:13:52Z</time>
      </trkpt>
      <trkpt lat="44.83869" lon="5.24686">
        <ele>818.7</ele>
        <time>2014-11-23T13:14:01Z</time>
      </trkpt>
      <trkpt lat="44.83865" lon="5.24694">
        <ele>816.3</ele>
        <time>2014-11-23T13:14:09Z</time>
      </trkpt>
      <trkpt lat="44.83859" lon="5.24708">
        <ele>812.45</ele>
        <time>2014-11-23T13:14:19Z</time>
      </trkpt>
      <trkpt lat="44.83853" lon="5.24719">
        <ele>809.57</ele>
        <time>2014-11-23T13:14:29Z</time>
      </trkpt>
      <trkpt lat="44.83851" lon="5.24726">
        <ele>807.64</ele>
        <time>2014-11-23T13:14:34Z</time>
      </trkpt>
      <trkpt lat="44.83849" lon="5.24738">
        <ele>804.28</ele>
        <time>2014-11-23T13:14:43Z</time>
      </trkpt>
      <trkpt lat="44.83846" lon="5.24756">
        <ele>800.92</ele>
        <time>2014-11-23T13:14:55Z</time>
      </trkpt>
      <trkpt lat="44.83843" lon="5.24774">
        <ele>798.51</ele>
        <time>2014-11-23T13:15:07Z</time>
      </trkpt>
      <trkpt lat="44.8384" lon="5.24783">
        <ele>796.59</ele>
        <time>2014-11-23T13:15:13Z</time>
      </trkpt>
      <trkpt lat="44.83828" lon="5.24791">
        <ele>792.26</ele>
        <time>2014-11-23T13:15:26Z</time>
      </trkpt>
      <trkpt lat="44.83823" lon="5.24793">
        <ele>789.38</ele>
        <time>2014-11-23T13:15:35Z</time>
      </trkpt>
      <trkpt lat="44.83819" lon="5.24795">
        <ele>787.46</ele>
        <time>2014-11-23T13:15:41Z</time>
      </trkpt>
      <trkpt lat="44.83811" lon="5.24797">
        <ele>784.09</ele>
        <time>2014-11-23T13:15:52Z</time>
      </trkpt>
      <trkpt lat="44.83802" lon="5.24803">
        <ele>780.73</ele>
        <time>2014-11-23T13:16:02Z</time>
      </trkpt>
      <trkpt lat="44.83788" lon="5.24806">
        <ele>777.36</ele>
        <time>2014-11-23T13:16:14Z</time>
      </trkpt>
      <trkpt lat="44.83773" lon="5.24809">
        <ele>774.48</ele>
        <time>2014-11-23T13:16:26Z</time>
      </trkpt>
      <trkpt lat="44.83765" lon="5.24813">
        <ele>771.11</ele>
        <time>2014-11-23T13:16:35Z</time>
      </trkpt>
      <trkpt lat="44.83762" lon="5.24815">
        <ele>770.63</ele>
        <time>2014-11-23T13:16:38Z</time>
      </trkpt>
      <trkpt lat="44.83755" lon="5.24819">
        <ele>768.71</ele>
        <time>2014-11-23T13:16:44Z</time>
      </trkpt>
      <trkpt lat="44.83744" lon="5.24827">
        <ele>764.87</ele>
        <time>2014-11-23T13:16:57Z</time>
      </trkpt>
      <trkpt lat="44.83743" lon="5.24829">
        <ele>764.87</ele>
        <time>2014-11-23T13:16:58Z</time>
      </trkpt>
      <trkpt lat="44.83742" lon="5.24842">
        <ele>762.94</ele>
        <time>2014-11-23T13:17:06Z</time>
      </trkpt>
      <trkpt lat="44.83743" lon="5.24849">
        <ele>761.02</ele>
        <time>2014-11-23T13:17:20Z</time>
      </trkpt>
      <trkpt lat="44.83744" lon="5.24849">
        <ele>761.02</ele>
        <time>2014-11-23T13:17:40Z</time>
      </trkpt>
      <trkpt lat="44.83743" lon="5.24849">
        <ele>761.02</ele>
        <time>2014-11-23T13:18:09Z</time>
      </trkpt>
      <trkpt lat="44.83742" lon="5.24849">
        <ele>761.02</ele>
        <time>2014-11-23T13:18:31Z</time>
      </trkpt>
      <trkpt lat="44.83741" lon="5.24847">
        <ele>761.02</ele>
        <time>2014-11-23T13:18:58Z</time>
      </trkpt>
      <trkpt lat="44.83742" lon="5.24849">
        <ele>761.02</ele>
        <time>2014-11-23T13:19:17Z</time>
      </trkpt>
      <trkpt lat="44.83742" lon="5.24848">
        <ele>760.54</ele>
        <time>2014-11-23T13:19:38Z</time>
      </trkpt>
      <trkpt lat="44.83742" lon="5.24849">
        <ele>760.54</ele>
        <time>2014-11-23T13:20:04Z</time>
      </trkpt>
      <trkpt lat="44.83743" lon="5.24847">
        <ele>760.54</ele>
        <time>2014-11-23T13:20:25Z</time>
      </trkpt>
      <trkpt lat="44.83743" lon="5.24848">
        <ele>760.54</ele>
        <time>2014-11-23T13:20:50Z</time>
      </trkpt>
      <trkpt lat="44.83743" lon="5.24852">
        <ele>760.54</ele>
        <time>2014-11-23T13:21:17Z</time>
      </trkpt>
      <trkpt lat="44.83742" lon="5.24849">
        <ele>760.54</ele>
        <time>2014-11-23T13:21:44Z</time>
      </trkpt>
      <trkpt lat="44.8374" lon="5.24853">
        <ele>760.06</ele>
        <time>2014-11-23T13:22:02Z</time>
      </trkpt>
      <trkpt lat="44.83742" lon="5.2486">
        <ele>756.69</ele>
        <time>2014-11-23T13:22:16Z</time>
      </trkpt>
      <trkpt lat="44.83749" lon="5.24869">
        <ele>753.33</ele>
        <time>2014-11-23T13:22:27Z</time>
      </trkpt>
      <trkpt lat="44.83751" lon="5.24879">
        <ele>750.93</ele>
        <time>2014-11-23T13:22:38Z</time>
      </trkpt>
      <trkpt lat="44.83742" lon="5.24881">
        <ele>747.56</ele>
        <time>2014-11-23T13:22:50Z</time>
      </trkpt>
      <trkpt lat="44.83732" lon="5.24875">
        <ele>744.2</ele>
        <time>2014-11-23T13:23:03Z</time>
      </trkpt>
      <trkpt lat="44.83724" lon="5.24877">
        <ele>743.72</ele>
        <time>2014-11-23T13:23:18Z</time>
      </trkpt>
      <trkpt lat="44.83721" lon="5.24881">
        <ele>743.24</ele>
        <time>2014-11-23T13:23:22Z</time>
      </trkpt>
      <trkpt lat="44.83719" lon="5.24887">
        <ele>744.68</ele>
        <time>2014-11-23T13:23:27Z</time>
      </trkpt>
      <trkpt lat="44.83718" lon="5.24889">
        <ele>744.68</ele>
        <time>2014-11-23T13:23:29Z</time>
      </trkpt>
      <trkpt lat="44.83716" lon="5.24898">
        <ele>745.64</ele>
        <time>2014-11-23T13:23:37Z</time>
      </trkpt>
      <trkpt lat="44.83712" lon="5.24905">
        <ele>745.64</ele>
        <time>2014-11-23T13:23:44Z</time>
      </trkpt>
      <trkpt lat="44.83709" lon="5.24914">
        <ele>744.2</ele>
        <time>2014-11-23T13:23:51Z</time>
      </trkpt>
      <trkpt lat="44.83708" lon="5.24918">
        <ele>743.24</ele>
        <time>2014-11-23T13:23:55Z</time>
      </trkpt>
      <trkpt lat="44.83705" lon="5.2492">
        <ele>741.79</ele>
        <time>2014-11-23T13:23:58Z</time>
      </trkpt>
      <trkpt lat="44.83699" lon="5.2493">
        <ele>739.39</ele>
        <time>2014-11-23T13:24:09Z</time>
      </trkpt>
      <trkpt lat="44.83689" lon="5.24939">
        <ele>737.47</ele>
        <time>2014-11-23T13:24:21Z</time>
      </trkpt>
      <trkpt lat="44.83686" lon="5.24943">
        <ele>736.99</ele>
        <time>2014-11-23T13:24:24Z</time>
      </trkpt>
      <trkpt lat="44.83679" lon="5.24953">
        <ele>736.99</ele>
        <time>2014-11-23T13:24:31Z</time>
      </trkpt>
      <trkpt lat="44.83666" lon="5.24969">
        <ele>733.14</ele>
        <time>2014-11-23T13:24:44Z</time>
      </trkpt>
      <trkpt lat="44.83653" lon="5.24983">
        <ele>731.7</ele>
        <time>2014-11-23T13:24:56Z</time>
      </trkpt>
      <trkpt lat="44.83641" lon="5.24994">
        <ele>728.82</ele>
        <time>2014-11-23T13:25:10Z</time>
      </trkpt>
      <trkpt lat="44.83631" lon="5.24991">
        <ele>724.97</ele>
        <time>2014-11-23T13:25:19Z</time>
      </trkpt>
      <trkpt lat="44.83629" lon="5.2499">
        <ele>724.49</ele>
        <time>2014-11-23T13:25:21Z</time>
      </trkpt>
      <trkpt lat="44.83619" lon="5.24987">
        <ele>721.13</ele>
        <time>2014-11-23T13:25:30Z</time>
      </trkpt>
      <trkpt lat="44.83613" lon="5.24983">
        <ele>719.68</ele>
        <time>2014-11-23T13:25:36Z</time>
      </trkpt>
      <trkpt lat="44.836" lon="5.24989">
        <ele>716.8</ele>
        <time>2014-11-23T13:25:48Z</time>
      </trkpt>
      <trkpt lat="44.8359" lon="5.25008">
        <ele>713.92</ele>
        <time>2014-11-23T13:26:02Z</time>
      </trkpt>
      <trkpt lat="44.83584" lon="5.25024">
        <ele>711.03</ele>
        <time>2014-11-23T13:26:15Z</time>
      </trkpt>
      <trkpt lat="44.83576" lon="5.25039">
        <ele>709.11</ele>
        <time>2014-11-23T13:26:28Z</time>
      </trkpt>
      <trkpt lat="44.83572" lon="5.25043">
        <ele>708.63</ele>
        <time>2014-11-23T13:26:32Z</time>
      </trkpt>
      <trkpt lat="44.83562" lon="5.25054">
        <ele>706.71</ele>
        <time>2014-11-23T13:26:43Z</time>
      </trkpt>
      <trkpt lat="44.83559" lon="5.25059">
        <ele>705.26</ele>
        <time>2014-11-23T13:26:46Z</time>
      </trkpt>
      <trkpt lat="44.83547" lon="5.25068">
        <ele>703.82</ele>
        <time>2014-11-23T13:26:57Z</time>
      </trkpt>
      <trkpt lat="44.83533" lon="5.25075">
        <ele>703.82</ele>
        <time>2014-11-23T13:27:09Z</time>
      </trkpt>
      <trkpt lat="44.83533" lon="5.25076">
        <ele>703.34</ele>
        <time>2014-11-23T13:27:10Z</time>
      </trkpt>
      <trkpt lat="44.83529" lon="5.2508">
        <ele>703.34</ele>
        <time>2014-11-23T13:27:13Z</time>
      </trkpt>
      <trkpt lat="44.8351" lon="5.25094">
        <ele>701.42</ele>
        <time>2014-11-23T13:27:27Z</time>
      </trkpt>
      <trkpt lat="44.83505" lon="5.25097">
        <ele>700.46</ele>
        <time>2014-11-23T13:27:32Z</time>
      </trkpt>
      <trkpt lat="44.83499" lon="5.251">
        <ele>700.46</ele>
        <time>2014-11-23T13:27:36Z</time>
      </trkpt>
      <trkpt lat="44.83497" lon="5.25101">
        <ele>699.98</ele>
        <time>2014-11-23T13:27:38Z</time>
      </trkpt>
      <trkpt lat="44.8348" lon="5.25114">
        <ele>699.02</ele>
        <time>2014-11-23T13:27:51Z</time>
      </trkpt>
      <trkpt lat="44.83467" lon="5.25121">
        <ele>698.53</ele>
        <time>2014-11-23T13:28:02Z</time>
      </trkpt>
      <trkpt lat="44.83461" lon="5.25125">
        <ele>698.53</ele>
        <time>2014-11-23T13:28:07Z</time>
      </trkpt>
      <trkpt lat="44.83452" lon="5.25129">
        <ele>698.05</ele>
        <time>2014-11-23T13:28:20Z</time>
      </trkpt>
      <trkpt lat="44.83441" lon="5.25135">
        <ele>697.57</ele>
        <time>2014-11-23T13:28:31Z</time>
      </trkpt>
      <trkpt lat="44.83427" lon="5.25144">
        <ele>697.57</ele>
        <time>2014-11-23T13:28:43Z</time>
      </trkpt>
      <trkpt lat="44.83423" lon="5.25153">
        <ele>696.61</ele>
        <time>2014-11-23T13:28:58Z</time>
      </trkpt>
      <trkpt lat="44.83424" lon="5.25156">
        <ele>696.61</ele>
        <time>2014-11-23T13:29:19Z</time>
      </trkpt>
      <trkpt lat="44.8342" lon="5.25158">
        <ele>696.13</ele>
        <time>2014-11-23T13:29:46Z</time>
      </trkpt>
      <trkpt lat="44.8342" lon="5.25159">
        <ele>696.13</ele>
        <time>2014-11-23T13:30:06Z</time>
      </trkpt>
      <trkpt lat="44.83417" lon="5.25162">
        <ele>696.13</ele>
        <time>2014-11-23T13:30:09Z</time>
      </trkpt>
      <trkpt lat="44.8341" lon="5.25175">
        <ele>695.65</ele>
        <time>2014-11-23T13:30:19Z</time>
      </trkpt>
      <trkpt lat="44.83408" lon="5.25178">
        <ele>695.65</ele>
        <time>2014-11-23T13:30:22Z</time>
      </trkpt>
      <trkpt lat="44.83398" lon="5.252">
        <ele>694.69</ele>
        <time>2014-11-23T13:30:38Z</time>
      </trkpt>
      <trkpt lat="44.83393" lon="5.2522">
        <ele>693.73</ele>
        <time>2014-11-23T13:30:51Z</time>
      </trkpt>
      <trkpt lat="44.83388" lon="5.25231">
        <ele>692.29</ele>
        <time>2014-11-23T13:31:00Z</time>
      </trkpt>
      <trkpt lat="44.83385" lon="5.25237">
        <ele>691.81</ele>
        <time>2014-11-23T13:31:04Z</time>
      </trkpt>
      <trkpt lat="44.83377" lon="5.2525">
        <ele>689.4</ele>
        <time>2014-11-23T13:31:16Z</time>
      </trkpt>
      <trkpt lat="44.83376" lon="5.25254">
        <ele>689.4</ele>
        <time>2014-11-23T13:31:19Z</time>
      </trkpt>
      <trkpt lat="44.83372" lon="5.25262">
        <ele>689.4</ele>
        <time>2014-11-23T13:31:24Z</time>
      </trkpt>
      <trkpt lat="44.83368" lon="5.25282">
        <ele>688.44</ele>
        <time>2014-11-23T13:31:38Z</time>
      </trkpt>
      <trkpt lat="44.83364" lon="5.253">
        <ele>687.96</ele>
        <time>2014-11-23T13:31:51Z</time>
      </trkpt>
      <trkpt lat="44.83358" lon="5.25319">
        <ele>687.96</ele>
        <time>2014-11-23T13:32:04Z</time>
      </trkpt>
      <trkpt lat="44.83355" lon="5.25334">
        <ele>687.96</ele>
        <time>2014-11-23T13:32:12Z</time>
      </trkpt>
      <trkpt lat="44.83353" lon="5.25342">
        <ele>687.96</ele>
        <time>2014-11-23T13:32:17Z</time>
      </trkpt>
      <trkpt lat="44.83351" lon="5.25346">
        <ele>687.96</ele>
        <time>2014-11-23T13:32:19Z</time>
      </trkpt>
      <trkpt lat="44.83344" lon="5.2537">
        <ele>685.56</ele>
        <time>2014-11-23T13:32:34Z</time>
      </trkpt>
      <trkpt lat="44.8334" lon="5.25385">
        <ele>684.6</ele>
        <time>2014-11-23T13:32:43Z</time>
      </trkpt>
      <trkpt lat="44.83334" lon="5.254">
        <ele>683.63</ele>
        <time>2014-11-23T13:32:53Z</time>
      </trkpt>
      <trkpt lat="44.83333" lon="5.25401">
        <ele>683.63</ele>
        <time>2014-11-23T13:32:54Z</time>
      </trkpt>
      <trkpt lat="44.8333" lon="5.25405">
        <ele>683.63</ele>
        <time>2014-11-23T13:32:57Z</time>
      </trkpt>
      <trkpt lat="44.83324" lon="5.25415">
        <ele>683.63</ele>
        <time>2014-11-23T13:33:05Z</time>
      </trkpt>
      <trkpt lat="44.83319" lon="5.25433">
        <ele>684.6</ele>
        <time>2014-11-23T13:33:18Z</time>
      </trkpt>
      <trkpt lat="44.83313" lon="5.25446">
        <ele>685.56</ele>
        <time>2014-11-23T13:33:27Z</time>
      </trkpt>
      <trkpt lat="44.83308" lon="5.25465">
        <ele>686.52</ele>
        <time>2014-11-23T13:33:42Z</time>
      </trkpt>
      <trkpt lat="44.83302" lon="5.25478">
        <ele>686.52</ele>
        <time>2014-11-23T13:33:54Z</time>
      </trkpt>
      <trkpt lat="44.83301" lon="5.25483">
        <ele>687</ele>
        <time>2014-11-23T13:34:16Z</time>
      </trkpt>
      <trkpt lat="44.83297" lon="5.25492">
        <ele>687</ele>
        <time>2014-11-23T13:34:29Z</time>
      </trkpt>
      <trkpt lat="44.83296" lon="5.25507">
        <ele>685.56</ele>
        <time>2014-11-23T13:34:44Z</time>
      </trkpt>
      <trkpt lat="44.83293" lon="5.25524">
        <ele>685.56</ele>
        <time>2014-11-23T13:34:58Z</time>
      </trkpt>
      <trkpt lat="44.83286" lon="5.25544">
        <ele>685.08</ele>
        <time>2014-11-23T13:35:12Z</time>
      </trkpt>
      <trkpt lat="44.83286" lon="5.2557">
        <ele>684.6</ele>
        <time>2014-11-23T13:35:28Z</time>
      </trkpt>
      <trkpt lat="44.83285" lon="5.25588">
        <ele>686.04</ele>
        <time>2014-11-23T13:35:39Z</time>
      </trkpt>
      <trkpt lat="44.83285" lon="5.25601">
        <ele>686.04</ele>
        <time>2014-11-23T13:35:46Z</time>
      </trkpt>
      <trkpt lat="44.83281" lon="5.25618">
        <ele>685.08</ele>
        <time>2014-11-23T13:35:56Z</time>
      </trkpt>
      <trkpt lat="44.83271" lon="5.25636">
        <ele>681.23</ele>
        <time>2014-11-23T13:36:10Z</time>
      </trkpt>
      <trkpt lat="44.83266" lon="5.25651">
        <ele>678.83</ele>
        <time>2014-11-23T13:36:23Z</time>
      </trkpt>
      <trkpt lat="44.83265" lon="5.25661">
        <ele>677.39</ele>
        <time>2014-11-23T13:36:30Z</time>
      </trkpt>
      <trkpt lat="44.8326" lon="5.25682">
        <ele>674.02</ele>
        <time>2014-11-23T13:36:43Z</time>
      </trkpt>
      <trkpt lat="44.83259" lon="5.25688">
        <ele>672.1</ele>
        <time>2014-11-23T13:36:49Z</time>
      </trkpt>
      <trkpt lat="44.83258" lon="5.25701">
        <ele>669.22</ele>
        <time>2014-11-23T13:37:00Z</time>
      </trkpt>
      <trkpt lat="44.83253" lon="5.25721">
        <ele>666.81</ele>
        <time>2014-11-23T13:37:12Z</time>
      </trkpt>
      <trkpt lat="44.83249" lon="5.2573">
        <ele>664.89</ele>
        <time>2014-11-23T13:37:19Z</time>
      </trkpt>
      <trkpt lat="44.83242" lon="5.25743">
        <ele>662.97</ele>
        <time>2014-11-23T13:37:31Z</time>
      </trkpt>
      <trkpt lat="44.83231" lon="5.25755">
        <ele>659.6</ele>
        <time>2014-11-23T13:37:43Z</time>
      </trkpt>
      <trkpt lat="44.83229" lon="5.25758">
        <ele>659.12</ele>
        <time>2014-11-23T13:37:46Z</time>
      </trkpt>
      <trkpt lat="44.8322" lon="5.25766">
        <ele>656.24</ele>
        <time>2014-11-23T13:37:56Z</time>
      </trkpt>
      <trkpt lat="44.83219" lon="5.25768">
        <ele>656.24</ele>
        <time>2014-11-23T13:37:58Z</time>
      </trkpt>
      <trkpt lat="44.83209" lon="5.25783">
        <ele>653.83</ele>
        <time>2014-11-23T13:38:11Z</time>
      </trkpt>
      <trkpt lat="44.832" lon="5.25798">
        <ele>652.39</ele>
        <time>2014-11-23T13:38:24Z</time>
      </trkpt>
      <trkpt lat="44.83195" lon="5.25811">
        <ele>649.99</ele>
        <time>2014-11-23T13:38:35Z</time>
      </trkpt>
      <trkpt lat="44.83186" lon="5.25826">
        <ele>647.59</ele>
        <time>2014-11-23T13:38:47Z</time>
      </trkpt>
      <trkpt lat="44.83178" lon="5.25843">
        <ele>644.22</ele>
        <time>2014-11-23T13:39:00Z</time>
      </trkpt>
      <trkpt lat="44.83173" lon="5.25853">
        <ele>641.82</ele>
        <time>2014-11-23T13:39:12Z</time>
      </trkpt>
      <trkpt lat="44.8317" lon="5.25863">
        <ele>639.89</ele>
        <time>2014-11-23T13:39:20Z</time>
      </trkpt>
      <trkpt lat="44.83163" lon="5.25876">
        <ele>636.53</ele>
        <time>2014-11-23T13:39:33Z</time>
      </trkpt>
      <trkpt lat="44.83155" lon="5.25884">
        <ele>632.68</ele>
        <time>2014-11-23T13:39:45Z</time>
      </trkpt>
      <trkpt lat="44.83151" lon="5.2589">
        <ele>631.24</ele>
        <time>2014-11-23T13:39:53Z</time>
      </trkpt>
      <trkpt lat="44.83147" lon="5.25896">
        <ele>628.84</ele>
        <time>2014-11-23T13:40:08Z</time>
      </trkpt>
      <trkpt lat="44.83147" lon="5.25895">
        <ele>628.84</ele>
        <time>2014-11-23T13:40:31Z</time>
      </trkpt>
      <trkpt lat="44.83147" lon="5.25898">
        <ele>628.36</ele>
        <time>2014-11-23T13:40:52Z</time>
      </trkpt>
      <trkpt lat="44.83146" lon="5.259">
        <ele>628.36</ele>
        <time>2014-11-23T13:41:13Z</time>
      </trkpt>
      <trkpt lat="44.83143" lon="5.25903">
        <ele>627.4</ele>
        <time>2014-11-23T13:41:27Z</time>
      </trkpt>
      <trkpt lat="44.8314" lon="5.25905">
        <ele>626.92</ele>
        <time>2014-11-23T13:41:50Z</time>
      </trkpt>
      <trkpt lat="44.83133" lon="5.25902">
        <ele>623.55</ele>
        <time>2014-11-23T13:42:04Z</time>
      </trkpt>
      <trkpt lat="44.83124" lon="5.25895">
        <ele>619.71</ele>
        <time>2014-11-23T13:42:18Z</time>
      </trkpt>
      <trkpt lat="44.83117" lon="5.25887">
        <ele>616.82</ele>
        <time>2014-11-23T13:42:31Z</time>
      </trkpt>
      <trkpt lat="44.83106" lon="5.25882">
        <ele>613.46</ele>
        <time>2014-11-23T13:42:45Z</time>
      </trkpt>
      <trkpt lat="44.83098" lon="5.25886">
        <ele>610.57</ele>
        <time>2014-11-23T13:42:56Z</time>
      </trkpt>
      <trkpt lat="44.83098" lon="5.25886">
        <ele>610.57</ele>
        <time>2014-11-23T13:42:57Z</time>
      </trkpt>
      <trkpt lat="44.83087" lon="5.25891">
        <ele>607.21</ele>
        <time>2014-11-23T13:43:10Z</time>
      </trkpt>
      <trkpt lat="44.8308" lon="5.25897">
        <ele>605.77</ele>
        <time>2014-11-23T13:43:20Z</time>
      </trkpt>
      <trkpt lat="44.83074" lon="5.25911">
        <ele>602.4</ele>
        <time>2014-11-23T13:43:34Z</time>
      </trkpt>
      <trkpt lat="44.83072" lon="5.25915">
        <ele>601.44</ele>
        <time>2014-11-23T13:43:38Z</time>
      </trkpt>
      <trkpt lat="44.83066" lon="5.25921">
        <ele>600</ele>
        <time>2014-11-23T13:43:47Z</time>
      </trkpt>
      <trkpt lat="44.83059" lon="5.25928">
        <ele>597.6</ele>
        <time>2014-11-23T13:43:57Z</time>
      </trkpt>
      <trkpt lat="44.83053" lon="5.25932">
        <ele>595.67</ele>
        <time>2014-11-23T13:44:05Z</time>
      </trkpt>
      <trkpt lat="44.83045" lon="5.25937">
        <ele>592.31</ele>
        <time>2014-11-23T13:44:19Z</time>
      </trkpt>
      <trkpt lat="44.83043" lon="5.2594">
        <ele>591.83</ele>
        <time>2014-11-23T13:44:38Z</time>
      </trkpt>
      <trkpt lat="44.83038" lon="5.25944">
        <ele>591.35</ele>
        <time>2014-11-23T13:45:01Z</time>
      </trkpt>
      <trkpt lat="44.83039" lon="5.25945">
        <ele>591.35</ele>
        <time>2014-11-23T13:45:22Z</time>
      </trkpt>
      <trkpt lat="44.83038" lon="5.25947">
        <ele>590.87</ele>
        <time>2014-11-23T13:45:36Z</time>
      </trkpt>
      <trkpt lat="44.83035" lon="5.25945">
        <ele>590.87</ele>
        <time>2014-11-23T13:45:57Z</time>
      </trkpt>
      <trkpt lat="44.83033" lon="5.25945">
        <ele>590.87</ele>
        <time>2014-11-23T13:46:17Z</time>
      </trkpt>
      <trkpt lat="44.83033" lon="5.25946">
        <ele>590.87</ele>
        <time>2014-11-23T13:46:38Z</time>
      </trkpt>
      <trkpt lat="44.83031" lon="5.25947">
        <ele>590.39</ele>
        <time>2014-11-23T13:46:59Z</time>
      </trkpt>
      <trkpt lat="44.83024" lon="5.25946">
        <ele>588.95</ele>
        <time>2014-11-23T13:47:09Z</time>
      </trkpt>
      <trkpt lat="44.83007" lon="5.25952">
        <ele>586.54</ele>
        <time>2014-11-23T13:47:23Z</time>
      </trkpt>
      <trkpt lat="44.83003" lon="5.25956">
        <ele>586.06</ele>
        <time>2014-11-23T13:47:27Z</time>
      </trkpt>
      <trkpt lat="44.82996" lon="5.25962">
        <ele>585.1</ele>
        <time>2014-11-23T13:47:35Z</time>
      </trkpt>
      <trkpt lat="44.82987" lon="5.25983">
        <ele>583.18</ele>
        <time>2014-11-23T13:47:51Z</time>
      </trkpt>
      <trkpt lat="44.8298" lon="5.26003">
        <ele>581.25</ele>
        <time>2014-11-23T13:48:05Z</time>
      </trkpt>
      <trkpt lat="44.82978" lon="5.2601">
        <ele>580.77</ele>
        <time>2014-11-23T13:48:10Z</time>
      </trkpt>
      <trkpt lat="44.82968" lon="5.2602">
        <ele>579.81</ele>
        <time>2014-11-23T13:48:21Z</time>
      </trkpt>
      <trkpt lat="44.82965" lon="5.26019">
        <ele>579.33</ele>
        <time>2014-11-23T13:48:24Z</time>
      </trkpt>
      <trkpt lat="44.82953" lon="5.26006">
        <ele>577.41</ele>
        <time>2014-11-23T13:48:37Z</time>
      </trkpt>
      <trkpt lat="44.82948" lon="5.26006">
        <ele>576.45</ele>
        <time>2014-11-23T13:48:43Z</time>
      </trkpt>
      <trkpt lat="44.82949" lon="5.26029">
        <ele>574.53</ele>
        <time>2014-11-23T13:48:59Z</time>
      </trkpt>
      <trkpt lat="44.82945" lon="5.26044">
        <ele>572.6</ele>
        <time>2014-11-23T13:49:11Z</time>
      </trkpt>
      <trkpt lat="44.82945" lon="5.26062">
        <ele>570.68</ele>
        <time>2014-11-23T13:49:23Z</time>
      </trkpt>
      <trkpt lat="44.82946" lon="5.26065">
        <ele>570.68</ele>
        <time>2014-11-23T13:49:25Z</time>
      </trkpt>
      <trkpt lat="44.82948" lon="5.26071">
        <ele>570.68</ele>
        <time>2014-11-23T13:49:29Z</time>
      </trkpt>
      <trkpt lat="44.82961" lon="5.26083">
        <ele>569.72</ele>
        <time>2014-11-23T13:49:43Z</time>
      </trkpt>
      <trkpt lat="44.82978" lon="5.26091">
        <ele>567.8</ele>
        <time>2014-11-23T13:49:56Z</time>
      </trkpt>
      <trkpt lat="44.82978" lon="5.26103">
        <ele>565.87</ele>
        <time>2014-11-23T13:50:09Z</time>
      </trkpt>
      <trkpt lat="44.82974" lon="5.26103">
        <ele>565.39</ele>
        <time>2014-11-23T13:50:14Z</time>
      </trkpt>
      <trkpt lat="44.82957" lon="5.2611">
        <ele>563.47</ele>
        <time>2014-11-23T13:50:28Z</time>
      </trkpt>
      <trkpt lat="44.82942" lon="5.26109">
        <ele>562.51</ele>
        <time>2014-11-23T13:50:40Z</time>
      </trkpt>
      <trkpt lat="44.82926" lon="5.26095">
        <ele>561.55</ele>
        <time>2014-11-23T13:50:55Z</time>
      </trkpt>
      <trkpt lat="44.82925" lon="5.26095">
        <ele>561.55</ele>
        <time>2014-11-23T13:50:56Z</time>
      </trkpt>
      <trkpt lat="44.82923" lon="5.26096">
        <ele>561.55</ele>
        <time>2014-11-23T13:50:58Z</time>
      </trkpt>
      <trkpt lat="44.82921" lon="5.26102">
        <ele>561.07</ele>
        <time>2014-11-23T13:51:03Z</time>
      </trkpt>
      <trkpt lat="44.82935" lon="5.2612">
        <ele>559.62</ele>
        <time>2014-11-23T13:51:17Z</time>
      </trkpt>
      <trkpt lat="44.82952" lon="5.2613">
        <ele>558.18</ele>
        <time>2014-11-23T13:51:31Z</time>
      </trkpt>
      <trkpt lat="44.82955" lon="5.26131">
        <ele>558.18</ele>
        <time>2014-11-23T13:51:33Z</time>
      </trkpt>
      <trkpt lat="44.82966" lon="5.26134">
        <ele>557.22</ele>
        <time>2014-11-23T13:51:44Z</time>
      </trkpt>
      <trkpt lat="44.82974" lon="5.26136">
        <ele>556.74</ele>
        <time>2014-11-23T13:51:50Z</time>
      </trkpt>
      <trkpt lat="44.82983" lon="5.26136">
        <ele>556.26</ele>
        <time>2014-11-23T13:51:59Z</time>
      </trkpt>
      <trkpt lat="44.82999" lon="5.26134">
        <ele>555.3</ele>
        <time>2014-11-23T13:52:13Z</time>
      </trkpt>
      <trkpt lat="44.83002" lon="5.26133">
        <ele>555.3</ele>
        <time>2014-11-23T13:52:15Z</time>
      </trkpt>
      <trkpt lat="44.83012" lon="5.26126">
        <ele>554.34</ele>
        <time>2014-11-23T13:52:24Z</time>
      </trkpt>
      <trkpt lat="44.83027" lon="5.26113">
        <ele>552.9</ele>
        <time>2014-11-23T13:52:38Z</time>
      </trkpt>
      <trkpt lat="44.83044" lon="5.26111">
        <ele>551.45</ele>
        <time>2014-11-23T13:52:53Z</time>
      </trkpt>
      <trkpt lat="44.83059" lon="5.26113">
        <ele>550.01</ele>
        <time>2014-11-23T13:53:03Z</time>
      </trkpt>
      <trkpt lat="44.83062" lon="5.26113">
        <ele>549.53</ele>
        <time>2014-11-23T13:53:05Z</time>
      </trkpt>
      <trkpt lat="44.83083" lon="5.26119">
        <ele>548.57</ele>
        <time>2014-11-23T13:53:21Z</time>
      </trkpt>
      <trkpt lat="44.83094" lon="5.26123">
        <ele>547.61</ele>
        <time>2014-11-23T13:53:32Z</time>
      </trkpt>
      <trkpt lat="44.831" lon="5.26121">
        <ele>546.65</ele>
        <time>2014-11-23T13:53:36Z</time>
      </trkpt>
      <trkpt lat="44.83113" lon="5.26122">
        <ele>545.69</ele>
        <time>2014-11-23T13:53:48Z</time>
      </trkpt>
      <trkpt lat="44.83116" lon="5.26122">
        <ele>545.2</ele>
        <time>2014-11-23T13:53:50Z</time>
      </trkpt>
      <trkpt lat="44.8314" lon="5.2612">
        <ele>544.24</ele>
        <time>2014-11-23T13:54:05Z</time>
      </trkpt>
      <trkpt lat="44.83147" lon="5.26117">
        <ele>543.76</ele>
        <time>2014-11-23T13:54:11Z</time>
      </trkpt>
      <trkpt lat="44.83154" lon="5.26115">
        <ele>543.28</ele>
        <time>2014-11-23T13:54:15Z</time>
      </trkpt>
      <trkpt lat="44.83162" lon="5.26113">
        <ele>542.8</ele>
        <time>2014-11-23T13:54:22Z</time>
      </trkpt>
      <trkpt lat="44.83187" lon="5.26121">
        <ele>541.36</ele>
        <time>2014-11-23T13:54:39Z</time>
      </trkpt>
      <trkpt lat="44.83188" lon="5.26124">
        <ele>540.88</ele>
        <time>2014-11-23T13:54:41Z</time>
      </trkpt>
      <trkpt lat="44.83191" lon="5.26152">
        <ele>540.4</ele>
        <time>2014-11-23T13:54:56Z</time>
      </trkpt>
      <trkpt lat="44.83188" lon="5.26159">
        <ele>540.4</ele>
        <time>2014-11-23T13:55:00Z</time>
      </trkpt>
      <trkpt lat="44.83184" lon="5.26164">
        <ele>540.4</ele>
        <time>2014-11-23T13:55:04Z</time>
      </trkpt>
      <trkpt lat="44.8317" lon="5.2617">
        <ele>539.44</ele>
        <time>2014-11-23T13:55:17Z</time>
      </trkpt>
      <trkpt lat="44.83167" lon="5.26172">
        <ele>539.44</ele>
        <time>2014-11-23T13:55:20Z</time>
      </trkpt>
      <trkpt lat="44.83152" lon="5.26188">
        <ele>538.96</ele>
        <time>2014-11-23T13:55:36Z</time>
      </trkpt>
      <trkpt lat="44.83143" lon="5.26199">
        <ele>538.96</ele>
        <time>2014-11-23T13:55:45Z</time>
      </trkpt>
      <trkpt lat="44.8314" lon="5.26203">
        <ele>538.96</ele>
        <time>2014-11-23T13:55:50Z</time>
      </trkpt>
      <trkpt lat="44.83135" lon="5.26208">
        <ele>538.96</ele>
        <time>2014-11-23T13:55:54Z</time>
      </trkpt>
      <trkpt lat="44.8312" lon="5.26217">
        <ele>538.96</ele>
        <time>2014-11-23T13:56:06Z</time>
      </trkpt>
      <trkpt lat="44.83115" lon="5.2622">
        <ele>538.48</ele>
        <time>2014-11-23T13:56:11Z</time>
      </trkpt>
      <trkpt lat="44.83101" lon="5.26224">
        <ele>538.48</ele>
        <time>2014-11-23T13:56:20Z</time>
      </trkpt>
      <trkpt lat="44.83084" lon="5.26226">
        <ele>538.48</ele>
        <time>2014-11-23T13:56:33Z</time>
      </trkpt>
      <trkpt lat="44.83083" lon="5.26226">
        <ele>538.48</ele>
        <time>2014-11-23T13:56:34Z</time>
      </trkpt>
      <trkpt lat="44.8308" lon="5.26226">
        <ele>539.92</ele>
        <time>2014-11-23T13:56:37Z</time>
      </trkpt>
      <trkpt lat="44.8307" lon="5.26228">
        <ele>540.4</ele>
        <time>2014-11-23T13:56:46Z</time>
      </trkpt>
      <trkpt lat="44.83052" lon="5.26232">
        <ele>540.4</ele>
        <time>2014-11-23T13:57:00Z</time>
      </trkpt>
      <trkpt lat="44.83039" lon="5.2624">
        <ele>540.4</ele>
        <time>2014-11-23T13:57:11Z</time>
      </trkpt>
      <trkpt lat="44.83023" lon="5.26251">
        <ele>540.88</ele>
        <time>2014-11-23T13:57:23Z</time>
      </trkpt>
      <trkpt lat="44.83009" lon="5.26265">
        <ele>540.88</ele>
        <time>2014-11-23T13:57:37Z</time>
      </trkpt>
      <trkpt lat="44.83008" lon="5.26266">
        <ele>540.88</ele>
        <time>2014-11-23T13:57:38Z</time>
      </trkpt>
      <trkpt lat="44.82999" lon="5.2628">
        <ele>541.36</ele>
        <time>2014-11-23T13:57:50Z</time>
      </trkpt>
      <trkpt lat="44.8299" lon="5.26295">
        <ele>540.88</ele>
        <time>2014-11-23T13:58:02Z</time>
      </trkpt>
      <trkpt lat="44.82981" lon="5.26312">
        <ele>541.36</ele>
        <time>2014-11-23T13:58:11Z</time>
      </trkpt>
      <trkpt lat="44.8297" lon="5.26335">
        <ele>541.36</ele>
        <time>2014-11-23T13:58:26Z</time>
      </trkpt>
      <trkpt lat="44.82966" lon="5.26343">
        <ele>541.36</ele>
        <time>2014-11-23T13:58:31Z</time>
      </trkpt>
      <trkpt lat="44.82955" lon="5.26366">
        <ele>541.84</ele>
        <time>2014-11-23T13:58:46Z</time>
      </trkpt>
      <trkpt lat="44.8294" lon="5.26386">
        <ele>541.84</ele>
        <time>2014-11-23T13:59:01Z</time>
      </trkpt>
      <trkpt lat="44.82927" lon="5.264">
        <ele>542.32</ele>
        <time>2014-11-23T13:59:13Z</time>
      </trkpt>
      <trkpt lat="44.82919" lon="5.26408">
        <ele>542.32</ele>
        <time>2014-11-23T13:59:20Z</time>
      </trkpt>
      <trkpt lat="44.82912" lon="5.26412">
        <ele>542.32</ele>
        <time>2014-11-23T13:59:26Z</time>
      </trkpt>
      <trkpt lat="44.82907" lon="5.26416">
        <ele>542.32</ele>
        <time>2014-11-23T13:59:30Z</time>
      </trkpt>
      <trkpt lat="44.8289" lon="5.26428">
        <ele>542.8</ele>
        <time>2014-11-23T13:59:44Z</time>
      </trkpt>
      <trkpt lat="44.8287" lon="5.26434">
        <ele>542.8</ele>
        <time>2014-11-23T13:59:59Z</time>
      </trkpt>
      <trkpt lat="44.82857" lon="5.26444">
        <ele>541.36</ele>
        <time>2014-11-23T14:00:11Z</time>
      </trkpt>
      <trkpt lat="44.82854" lon="5.2645">
        <ele>541.36</ele>
        <time>2014-11-23T14:00:15Z</time>
      </trkpt>
      <trkpt lat="44.82847" lon="5.26458">
        <ele>540.88</ele>
        <time>2014-11-23T14:00:21Z</time>
      </trkpt>
      <trkpt lat="44.82838" lon="5.26469">
        <ele>539.92</ele>
        <time>2014-11-23T14:00:29Z</time>
      </trkpt>
      <trkpt lat="44.82831" lon="5.26483">
        <ele>539.44</ele>
        <time>2014-11-23T14:00:39Z</time>
      </trkpt>
      <trkpt lat="44.82828" lon="5.2649">
        <ele>539.44</ele>
        <time>2014-11-23T14:00:44Z</time>
      </trkpt>
      <trkpt lat="44.82831" lon="5.26497">
        <ele>539.44</ele>
        <time>2014-11-23T14:00:49Z</time>
      </trkpt>
      <trkpt lat="44.8284" lon="5.26525">
        <ele>537.51</ele>
        <time>2014-11-23T14:01:04Z</time>
      </trkpt>
      <trkpt lat="44.82839" lon="5.26527">
        <ele>537.51</ele>
        <time>2014-11-23T14:01:05Z</time>
      </trkpt>
      <trkpt lat="44.82822" lon="5.26535">
        <ele>537.51</ele>
        <time>2014-11-23T14:01:20Z</time>
      </trkpt>
      <trkpt lat="44.8282" lon="5.26535">
        <ele>538.96</ele>
        <time>2014-11-23T14:01:22Z</time>
      </trkpt>
      <trkpt lat="44.82816" lon="5.26536">
        <ele>538.96</ele>
        <time>2014-11-23T14:01:25Z</time>
      </trkpt>
      <trkpt lat="44.82807" lon="5.26537">
        <ele>539.44</ele>
        <time>2014-11-23T14:01:33Z</time>
      </trkpt>
      <trkpt lat="44.82784" lon="5.26546">
        <ele>540.4</ele>
        <time>2014-11-23T14:01:51Z</time>
      </trkpt>
      <trkpt lat="44.82766" lon="5.26557">
        <ele>540.88</ele>
        <time>2014-11-23T14:02:05Z</time>
      </trkpt>
      <trkpt lat="44.8276" lon="5.26558">
        <ele>540.88</ele>
        <time>2014-11-23T14:02:09Z</time>
      </trkpt>
      <trkpt lat="44.82755" lon="5.26559">
        <ele>540.88</ele>
        <time>2014-11-23T14:02:13Z</time>
      </trkpt>
      <trkpt lat="44.82735" lon="5.26567">
        <ele>541.36</ele>
        <time>2014-11-23T14:02:29Z</time>
      </trkpt>
      <trkpt lat="44.82718" lon="5.26574">
        <ele>542.32</ele>
        <time>2014-11-23T14:02:42Z</time>
      </trkpt>
      <trkpt lat="44.82713" lon="5.26575">
        <ele>542.32</ele>
        <time>2014-11-23T14:02:46Z</time>
      </trkpt>
      <trkpt lat="44.82697" lon="5.2658">
        <ele>543.28</ele>
        <time>2014-11-23T14:02:59Z</time>
      </trkpt>
      <trkpt lat="44.82689" lon="5.26583">
        <ele>543.28</ele>
        <time>2014-11-23T14:03:06Z</time>
      </trkpt>
      <trkpt lat="44.82676" lon="5.2659">
        <ele>543.28</ele>
        <time>2014-11-23T14:03:18Z</time>
      </trkpt>
      <trkpt lat="44.82675" lon="5.26591">
        <ele>543.28</ele>
        <time>2014-11-23T14:03:19Z</time>
      </trkpt>
      <trkpt lat="44.82665" lon="5.266">
        <ele>543.76</ele>
        <time>2014-11-23T14:03:30Z</time>
      </trkpt>
      <trkpt lat="44.82665" lon="5.26607">
        <ele>543.76</ele>
        <time>2014-11-23T14:03:35Z</time>
      </trkpt>
      <trkpt lat="44.82664" lon="5.26614">
        <ele>542.8</ele>
        <time>2014-11-23T14:03:40Z</time>
      </trkpt>
      <trkpt lat="44.82665" lon="5.26632">
        <ele>541.84</ele>
        <time>2014-11-23T14:03:49Z</time>
      </trkpt>
      <trkpt lat="44.82667" lon="5.26639">
        <ele>541.36</ele>
        <time>2014-11-23T14:03:53Z</time>
      </trkpt>
      <trkpt lat="44.8267" lon="5.26672">
        <ele>539.92</ele>
        <time>2014-11-23T14:04:09Z</time>
      </trkpt>
      <trkpt lat="44.82665" lon="5.267">
        <ele>538.96</ele>
        <time>2014-11-23T14:04:24Z</time>
      </trkpt>
      <trkpt lat="44.82663" lon="5.26727">
        <ele>537.99</ele>
        <time>2014-11-23T14:04:38Z</time>
      </trkpt>
      <trkpt lat="44.82669" lon="5.26751">
        <ele>536.55</ele>
        <time>2014-11-23T14:04:52Z</time>
      </trkpt>
      <trkpt lat="44.82671" lon="5.26757">
        <ele>536.55</ele>
        <time>2014-11-23T14:04:55Z</time>
      </trkpt>
      <trkpt lat="44.82681" lon="5.26779">
        <ele>534.15</ele>
        <time>2014-11-23T14:05:10Z</time>
      </trkpt>
      <trkpt lat="44.82695" lon="5.26804">
        <ele>533.19</ele>
        <time>2014-11-23T14:05:25Z</time>
      </trkpt>
      <trkpt lat="44.82708" lon="5.26826">
        <ele>531.75</ele>
        <time>2014-11-23T14:05:39Z</time>
      </trkpt>
      <trkpt lat="44.82713" lon="5.26834">
        <ele>531.27</ele>
        <time>2014-11-23T14:05:45Z</time>
      </trkpt>
      <trkpt lat="44.82722" lon="5.26857">
        <ele>529.82</ele>
        <time>2014-11-23T14:05:59Z</time>
      </trkpt>
      <trkpt lat="44.82724" lon="5.26859">
        <ele>529.82</ele>
        <time>2014-11-23T14:06:01Z</time>
      </trkpt>
      <trkpt lat="44.82726" lon="5.26864">
        <ele>529.82</ele>
        <time>2014-11-23T14:06:05Z</time>
      </trkpt>
      <trkpt lat="44.82735" lon="5.26878">
        <ele>529.34</ele>
        <time>2014-11-23T14:06:18Z</time>
      </trkpt>
      <trkpt lat="44.82738" lon="5.26887">
        <ele>529.34</ele>
        <time>2014-11-23T14:06:25Z</time>
      </trkpt>
      <trkpt lat="44.82739" lon="5.26892">
        <ele>529.34</ele>
        <time>2014-11-23T14:06:29Z</time>
      </trkpt>
      <trkpt lat="44.8274" lon="5.26894">
        <ele>529.34</ele>
        <time>2014-11-23T14:06:31Z</time>
      </trkpt>
      <trkpt lat="44.82743" lon="5.26903">
        <ele>528.86</ele>
        <time>2014-11-23T14:06:37Z</time>
      </trkpt>
      <trkpt lat="44.82747" lon="5.26908">
        <ele>528.86</ele>
        <time>2014-11-23T14:06:41Z</time>
      </trkpt>
      <trkpt lat="44.82751" lon="5.26938">
        <ele>527.9</ele>
        <time>2014-11-23T14:06:57Z</time>
      </trkpt>
      <trkpt lat="44.82752" lon="5.26963">
        <ele>526.94</ele>
        <time>2014-11-23T14:07:11Z</time>
      </trkpt>
      <trkpt lat="44.82754" lon="5.26967">
        <ele>526.46</ele>
        <time>2014-11-23T14:07:14Z</time>
      </trkpt>
      <trkpt lat="44.8276" lon="5.26991">
        <ele>525.5</ele>
        <time>2014-11-23T14:07:26Z</time>
      </trkpt>
      <trkpt lat="44.82767" lon="5.27012">
        <ele>524.54</ele>
        <time>2014-11-23T14:07:38Z</time>
      </trkpt>
      <trkpt lat="44.82768" lon="5.27014">
        <ele>524.54</ele>
        <time>2014-11-23T14:07:40Z</time>
      </trkpt>
      <trkpt lat="44.82773" lon="5.27028">
        <ele>524.06</ele>
        <time>2014-11-23T14:07:48Z</time>
      </trkpt>
      <trkpt lat="44.82775" lon="5.27031">
        <ele>523.09</ele>
        <time>2014-11-23T14:07:51Z</time>
      </trkpt>
      <trkpt lat="44.82783" lon="5.27048">
        <ele>522.61</ele>
        <time>2014-11-23T14:08:02Z</time>
      </trkpt>
      <trkpt lat="44.82784" lon="5.27053">
        <ele>522.13</ele>
        <time>2014-11-23T14:08:05Z</time>
      </trkpt>
      <trkpt lat="44.82787" lon="5.27057">
        <ele>522.61</ele>
        <time>2014-11-23T14:08:08Z</time>
      </trkpt>
      <trkpt lat="44.82792" lon="5.27075">
        <ele>521.65</ele>
        <time>2014-11-23T14:08:18Z</time>
      </trkpt>
      <trkpt lat="44.82799" lon="5.27096">
        <ele>520.69</ele>
        <time>2014-11-23T14:08:31Z</time>
      </trkpt>
      <trkpt lat="44.82799" lon="5.27101">
        <ele>520.21</ele>
        <time>2014-11-23T14:08:33Z</time>
      </trkpt>
      <trkpt lat="44.828" lon="5.27104">
        <ele>520.21</ele>
        <time>2014-11-23T14:08:34Z</time>
      </trkpt>
      <trkpt lat="44.828" lon="5.27105">
        <ele>520.21</ele>
        <time>2014-11-23T14:08:35Z</time>
      </trkpt>
      <trkpt lat="44.82801" lon="5.27107">
        <ele>520.21</ele>
        <time>2014-11-23T14:08:36Z</time>
      </trkpt>
      <trkpt lat="44.82802" lon="5.27108">
        <ele>520.21</ele>
        <time>2014-11-23T14:08:37Z</time>
      </trkpt>
      <trkpt lat="44.82802" lon="5.2711">
        <ele>520.21</ele>
        <time>2014-11-23T14:08:38Z</time>
      </trkpt>
      <trkpt lat="44.82803" lon="5.27111">
        <ele>519.73</ele>
        <time>2014-11-23T14:08:39Z</time>
      </trkpt>
      <trkpt lat="44.82804" lon="5.27113">
        <ele>519.73</ele>
        <time>2014-11-23T14:08:40Z</time>
      </trkpt>
      <trkpt lat="44.82805" lon="5.27116">
        <ele>519.73</ele>
        <time>2014-11-23T14:08:41Z</time>
      </trkpt>
      <trkpt lat="44.82805" lon="5.27118">
        <ele>519.73</ele>
        <time>2014-11-23T14:08:42Z</time>
      </trkpt>
      <trkpt lat="44.82813" lon="5.27136">
        <ele>519.25</ele>
        <time>2014-11-23T14:08:55Z</time>
      </trkpt>
      <trkpt lat="44.82814" lon="5.27137">
        <ele>519.25</ele>
        <time>2014-11-23T14:08:56Z</time>
      </trkpt>
      <trkpt lat="44.82815" lon="5.27138">
        <ele>519.25</ele>
        <time>2014-11-23T14:08:57Z</time>
      </trkpt>
      <trkpt lat="44.82816" lon="5.27139">
        <ele>518.77</ele>
        <time>2014-11-23T14:08:58Z</time>
      </trkpt>
      <trkpt lat="44.82816" lon="5.27141">
        <ele>518.77</ele>
        <time>2014-11-23T14:08:59Z</time>
      </trkpt>
      <trkpt lat="44.82817" lon="5.27143">
        <ele>518.77</ele>
        <time>2014-11-23T14:09:00Z</time>
      </trkpt>
      <trkpt lat="44.82818" lon="5.27144">
        <ele>518.77</ele>
        <time>2014-11-23T14:09:01Z</time>
      </trkpt>
      <trkpt lat="44.82827" lon="5.27162">
        <ele>518.29</ele>
        <time>2014-11-23T14:09:13Z</time>
      </trkpt>
      <trkpt lat="44.82835" lon="5.27175">
        <ele>517.33</ele>
        <time>2014-11-23T14:09:21Z</time>
      </trkpt>
      <trkpt lat="44.82836" lon="5.27177">
        <ele>517.33</ele>
        <time>2014-11-23T14:09:22Z</time>
      </trkpt>
      <trkpt lat="44.82839" lon="5.27182">
        <ele>516.85</ele>
        <time>2014-11-23T14:09:26Z</time>
      </trkpt>
      <trkpt lat="44.82842" lon="5.272">
        <ele>515.88</ele>
        <time>2014-11-23T14:09:38Z</time>
      </trkpt>
      <trkpt lat="44.82842" lon="5.27202">
        <ele>515.88</ele>
        <time>2014-11-23T14:09:39Z</time>
      </trkpt>
      <trkpt lat="44.82842" lon="5.27213">
        <ele>514.92</ele>
        <time>2014-11-23T14:09:46Z</time>
      </trkpt>
      <trkpt lat="44.82841" lon="5.27215">
        <ele>514.92</ele>
        <time>2014-11-23T14:09:47Z</time>
      </trkpt>
      <trkpt lat="44.82842" lon="5.27217">
        <ele>514.92</ele>
        <time>2014-11-23T14:09:48Z</time>
      </trkpt>
      <trkpt lat="44.82842" lon="5.27219">
        <ele>514.92</ele>
        <time>2014-11-23T14:09:49Z</time>
      </trkpt>
      <trkpt lat="44.82842" lon="5.27221">
        <ele>514.92</ele>
        <time>2014-11-23T14:09:50Z</time>
      </trkpt>
      <trkpt lat="44.82844" lon="5.27244">
        <ele>513.96</ele>
        <time>2014-11-23T14:10:03Z</time>
      </trkpt>
      <trkpt lat="44.82846" lon="5.27254">
        <ele>513.48</ele>
        <time>2014-11-23T14:10:08Z</time>
      </trkpt>
      <trkpt lat="44.82846" lon="5.27256">
        <ele>513.48</ele>
        <time>2014-11-23T14:10:09Z</time>
      </trkpt>
      <trkpt lat="44.82846" lon="5.27258">
        <ele>513.48</ele>
        <time>2014-11-23T14:10:10Z</time>
      </trkpt>
      <trkpt lat="44.82849" lon="5.27265">
        <ele>513</ele>
        <time>2014-11-23T14:10:15Z</time>
      </trkpt>
      <trkpt lat="44.8285" lon="5.27267">
        <ele>513</ele>
        <time>2014-11-23T14:10:16Z</time>
      </trkpt>
      <trkpt lat="44.8285" lon="5.27269">
        <ele>513</ele>
        <time>2014-11-23T14:10:17Z</time>
      </trkpt>
      <trkpt lat="44.82851" lon="5.27271">
        <ele>513</ele>
        <time>2014-11-23T14:10:18Z</time>
      </trkpt>
      <trkpt lat="44.82851" lon="5.27273">
        <ele>513</ele>
        <time>2014-11-23T14:10:19Z</time>
      </trkpt>
      <trkpt lat="44.82852" lon="5.27274">
        <ele>513</ele>
        <time>2014-11-23T14:10:20Z</time>
      </trkpt>
      <trkpt lat="44.82859" lon="5.27294">
        <ele>512.52</ele>
        <time>2014-11-23T14:10:32Z</time>
      </trkpt>
      <trkpt lat="44.82861" lon="5.27297">
        <ele>512.52</ele>
        <time>2014-11-23T14:10:34Z</time>
      </trkpt>
      <trkpt lat="44.82861" lon="5.27299">
        <ele>512.52</ele>
        <time>2014-11-23T14:10:35Z</time>
      </trkpt>
      <trkpt lat="44.82861" lon="5.27307">
        <ele>512.52</ele>
        <time>2014-11-23T14:10:38Z</time>
      </trkpt>
      <trkpt lat="44.82863" lon="5.27315">
        <ele>512.52</ele>
        <time>2014-11-23T14:10:42Z</time>
      </trkpt>
      <trkpt lat="44.82863" lon="5.27317">
        <ele>512.52</ele>
        <time>2014-11-23T14:10:43Z</time>
      </trkpt>
      <trkpt lat="44.82863" lon="5.2732">
        <ele>512.52</ele>
        <time>2014-11-23T14:10:44Z</time>
      </trkpt>
      <trkpt lat="44.82863" lon="5.27321">
        <ele>512.52</ele>
        <time>2014-11-23T14:10:45Z</time>
      </trkpt>
      <trkpt lat="44.82866" lon="5.27345">
        <ele>512.52</ele>
        <time>2014-11-23T14:10:58Z</time>
      </trkpt>
      <trkpt lat="44.82868" lon="5.27357">
        <ele>513.48</ele>
        <time>2014-11-23T14:11:06Z</time>
      </trkpt>
      <trkpt lat="44.8287" lon="5.27382">
        <ele>514.44</ele>
        <time>2014-11-23T14:11:21Z</time>
      </trkpt>
      <trkpt lat="44.82873" lon="5.27407">
        <ele>514.92</ele>
        <time>2014-11-23T14:11:34Z</time>
      </trkpt>
      <trkpt lat="44.82881" lon="5.27431">
        <ele>514.92</ele>
        <time>2014-11-23T14:11:48Z</time>
      </trkpt>
      <trkpt lat="44.82885" lon="5.27446">
        <ele>515.4</ele>
        <time>2014-11-23T14:11:57Z</time>
      </trkpt>
      <trkpt lat="44.82895" lon="5.27471">
        <ele>516.37</ele>
        <time>2014-11-23T14:12:11Z</time>
      </trkpt>
      <trkpt lat="44.82904" lon="5.27487">
        <ele>516.85</ele>
        <time>2014-11-23T14:12:23Z</time>
      </trkpt>
      <trkpt lat="44.82914" lon="5.27503">
        <ele>516.85</ele>
        <time>2014-11-23T14:12:35Z</time>
      </trkpt>
      <trkpt lat="44.82915" lon="5.27504">
        <ele>516.85</ele>
        <time>2014-11-23T14:12:36Z</time>
      </trkpt>
      <trkpt lat="44.82921" lon="5.27513">
        <ele>516.85</ele>
        <time>2014-11-23T14:12:43Z</time>
      </trkpt>
      <trkpt lat="44.82935" lon="5.27525">
        <ele>516.37</ele>
        <time>2014-11-23T14:12:55Z</time>
      </trkpt>
      <trkpt lat="44.82936" lon="5.27526">
        <ele>516.37</ele>
        <time>2014-11-23T14:12:56Z</time>
      </trkpt>
      <trkpt lat="44.82937" lon="5.27527">
        <ele>516.37</ele>
        <time>2014-11-23T14:12:57Z</time>
      </trkpt>
      <trkpt lat="44.82938" lon="5.27529">
        <ele>516.37</ele>
        <time>2014-11-23T14:12:58Z</time>
      </trkpt>
      <trkpt lat="44.82939" lon="5.2753">
        <ele>516.37</ele>
        <time>2014-11-23T14:12:59Z</time>
      </trkpt>
      <trkpt lat="44.82943" lon="5.27535">
        <ele>516.37</ele>
        <time>2014-11-23T14:13:04Z</time>
      </trkpt>
      <trkpt lat="44.82943" lon="5.27537">
        <ele>516.37</ele>
        <time>2014-11-23T14:13:05Z</time>
      </trkpt>
      <trkpt lat="44.82944" lon="5.27538">
        <ele>516.37</ele>
        <time>2014-11-23T14:13:06Z</time>
      </trkpt>
      <trkpt lat="44.82953" lon="5.27553">
        <ele>516.37</ele>
        <time>2014-11-23T14:13:18Z</time>
      </trkpt>
      <trkpt lat="44.82964" lon="5.27576">
        <ele>516.37</ele>
        <time>2014-11-23T14:13:32Z</time>
      </trkpt>
      <trkpt lat="44.82972" lon="5.27602">
        <ele>516.85</ele>
        <time>2014-11-23T14:13:49Z</time>
      </trkpt>
      <trkpt lat="44.8298" lon="5.27629">
        <ele>518.29</ele>
        <time>2014-11-23T14:14:06Z</time>
      </trkpt>
      <trkpt lat="44.82991" lon="5.27661">
        <ele>518.29</ele>
        <time>2014-11-23T14:14:22Z</time>
      </trkpt>
      <trkpt lat="44.83002" lon="5.27684">
        <ele>518.29</ele>
        <time>2014-11-23T14:14:37Z</time>
      </trkpt>
      <trkpt lat="44.83014" lon="5.27701">
        <ele>518.29</ele>
        <time>2014-11-23T14:14:50Z</time>
      </trkpt>
      <trkpt lat="44.83029" lon="5.27722">
        <ele>519.25</ele>
        <time>2014-11-23T14:15:05Z</time>
      </trkpt>
      <trkpt lat="44.83032" lon="5.27726">
        <ele>519.25</ele>
        <time>2014-11-23T14:15:09Z</time>
      </trkpt>
      <trkpt lat="44.83033" lon="5.27728">
        <ele>519.25</ele>
        <time>2014-11-23T14:15:10Z</time>
      </trkpt>
      <trkpt lat="44.83034" lon="5.27729">
        <ele>519.25</ele>
        <time>2014-11-23T14:15:11Z</time>
      </trkpt>
      <trkpt lat="44.83034" lon="5.2773">
        <ele>519.25</ele>
        <time>2014-11-23T14:15:12Z</time>
      </trkpt>
      <trkpt lat="44.83035" lon="5.27732">
        <ele>519.25</ele>
        <time>2014-11-23T14:15:13Z</time>
      </trkpt>
      <trkpt lat="44.83042" lon="5.27753">
        <ele>519.73</ele>
        <time>2014-11-23T14:15:27Z</time>
      </trkpt>
      <trkpt lat="44.83042" lon="5.27759">
        <ele>519.73</ele>
        <time>2014-11-23T14:15:33Z</time>
      </trkpt>
      <trkpt lat="44.83043" lon="5.27761">
        <ele>519.73</ele>
        <time>2014-11-23T14:15:34Z</time>
      </trkpt>
      <trkpt lat="44.83043" lon="5.27763">
        <ele>519.73</ele>
        <time>2014-11-23T14:15:35Z</time>
      </trkpt>
      <trkpt lat="44.8305" lon="5.27785">
        <ele>519.73</ele>
        <time>2014-11-23T14:15:48Z</time>
      </trkpt>
      <trkpt lat="44.83052" lon="5.27791">
        <ele>519.73</ele>
        <time>2014-11-23T14:15:51Z</time>
      </trkpt>
      <trkpt lat="44.83052" lon="5.27793">
        <ele>519.73</ele>
        <time>2014-11-23T14:15:52Z</time>
      </trkpt>
      <trkpt lat="44.83055" lon="5.27802">
        <ele>519.73</ele>
        <time>2014-11-23T14:15:57Z</time>
      </trkpt>
      <trkpt lat="44.83055" lon="5.27804">
        <ele>519.73</ele>
        <time>2014-11-23T14:15:58Z</time>
      </trkpt>
      <trkpt lat="44.83055" lon="5.27805">
        <ele>519.73</ele>
        <time>2014-11-23T14:15:59Z</time>
      </trkpt>
      <trkpt lat="44.83056" lon="5.27807">
        <ele>519.73</ele>
        <time>2014-11-23T14:16:00Z</time>
      </trkpt>
      <trkpt lat="44.83056" lon="5.27809">
        <ele>519.73</ele>
        <time>2014-11-23T14:16:01Z</time>
      </trkpt>
      <trkpt lat="44.83057" lon="5.27811">
        <ele>519.73</ele>
        <time>2014-11-23T14:16:02Z</time>
      </trkpt>
      <trkpt lat="44.83057" lon="5.27813">
        <ele>519.73</ele>
        <time>2014-11-23T14:16:03Z</time>
      </trkpt>
      <trkpt lat="44.83058" lon="5.27816">
        <ele>519.73</ele>
        <time>2014-11-23T14:16:05Z</time>
      </trkpt>
      <trkpt lat="44.83058" lon="5.27818">
        <ele>519.73</ele>
        <time>2014-11-23T14:16:06Z</time>
      </trkpt>
      <trkpt lat="44.83058" lon="5.27819">
        <ele>519.73</ele>
        <time>2014-11-23T14:16:07Z</time>
      </trkpt>
      <trkpt lat="44.83059" lon="5.27821">
        <ele>519.73</ele>
        <time>2014-11-23T14:16:08Z</time>
      </trkpt>
      <trkpt lat="44.83059" lon="5.27823">
        <ele>519.73</ele>
        <time>2014-11-23T14:16:09Z</time>
      </trkpt>
      <trkpt lat="44.83059" lon="5.27825">
        <ele>519.73</ele>
        <time>2014-11-23T14:16:10Z</time>
      </trkpt>
      <trkpt lat="44.8306" lon="5.27827">
        <ele>519.73</ele>
        <time>2014-11-23T14:16:11Z</time>
      </trkpt>
      <trkpt lat="44.83066" lon="5.27854">
        <ele>520.21</ele>
        <time>2014-11-23T14:16:26Z</time>
      </trkpt>
      <trkpt lat="44.83069" lon="5.27861">
        <ele>520.21</ele>
        <time>2014-11-23T14:16:30Z</time>
      </trkpt>
      <trkpt lat="44.83069" lon="5.27863">
        <ele>520.21</ele>
        <time>2014-11-23T14:16:31Z</time>
      </trkpt>
      <trkpt lat="44.83072" lon="5.27873">
        <ele>520.21</ele>
        <time>2014-11-23T14:16:37Z</time>
      </trkpt>
      <trkpt lat="44.83073" lon="5.27874">
        <ele>520.21</ele>
        <time>2014-11-23T14:16:38Z</time>
      </trkpt>
      <trkpt lat="44.83074" lon="5.27876">
        <ele>520.21</ele>
        <time>2014-11-23T14:16:39Z</time>
      </trkpt>
      <trkpt lat="44.83075" lon="5.27878">
        <ele>520.21</ele>
        <time>2014-11-23T14:16:40Z</time>
      </trkpt>
      <trkpt lat="44.83075" lon="5.2788">
        <ele>520.21</ele>
        <time>2014-11-23T14:16:41Z</time>
      </trkpt>
      <trkpt lat="44.83081" lon="5.27899">
        <ele>521.17</ele>
        <time>2014-11-23T14:16:53Z</time>
      </trkpt>
      <trkpt lat="44.83085" lon="5.2791">
        <ele>521.17</ele>
        <time>2014-11-23T14:16:59Z</time>
      </trkpt>
      <trkpt lat="44.83086" lon="5.27911">
        <ele>521.17</ele>
        <time>2014-11-23T14:17:00Z</time>
      </trkpt>
      <trkpt lat="44.83091" lon="5.27923">
        <ele>521.17</ele>
        <time>2014-11-23T14:17:13Z</time>
      </trkpt>
      <trkpt lat="44.83091" lon="5.27923">
        <ele>521.65</ele>
        <time>2014-11-23T14:17:28Z</time>
      </trkpt>
      <trkpt lat="44.83091" lon="5.27923">
        <ele>521.65</ele>
        <time>2014-11-23T14:17:50Z</time>
      </trkpt>
      <trkpt lat="44.83089" lon="5.27924">
        <ele>521.65</ele>
        <time>2014-11-23T14:18:09Z</time>
      </trkpt>
    </trkseg>
  </trk>
</gpx>